﻿<?xml version="1.0" encoding="utf-8"?><gpx creator="Garmin Desktop App" version="1.1" xsi:schemaLocation="http://www.topografix.com/GPX/1/1 http://www.topografix.com/GPX/1/1/gpx.xsd http://www.garmin.com/xmlschemas/WaypointExtension/v1 http://www8.garmin.com/xmlschemas/WaypointExtensionv1.xsd http://www.garmin.com/xmlschemas/TrackPointExtension/v1 http://www.garmin.com/xmlschemas/TrackPointExtensionv1.xsd http://www.garmin.com/xmlschemas/GpxExtensions/v3 http://www8.garmin.com/xmlschemas/GpxExtensionsv3.xsd http://www.garmin.com/xmlschemas/ActivityExtension/v1 http://www8.garmin.com/xmlschemas/ActivityExtensionv1.xsd http://www.garmin.com/xmlschemas/AdventuresExtensions/v1 http://www8.garmin.com/xmlschemas/AdventuresExtensionv1.xsd http://www.garmin.com/xmlschemas/PressureExtension/v1 http://www.garmin.com/xmlschemas/PressureExtensionv1.xsd http://www.garmin.com/xmlschemas/TripExtensions/v1 http://www.garmin.com/xmlschemas/TripExtensionsv1.xsd http://www.garmin.com/xmlschemas/TripMetaDataExtensions/v1 http://www.garmin.com/xmlschemas/TripMetaDataExtensionsv1.xsd http://www.garmin.com/xmlschemas/ViaPointTransportationModeExtensions/v1 http://www.garmin.com/xmlschemas/ViaPointTransportationModeExtensionsv1.xsd http://www.garmin.com/xmlschemas/CreationTimeExtension/v1 http://www.garmin.com/xmlschemas/CreationTimeExtensionsv1.xsd http://www.garmin.com/xmlschemas/AccelerationExtension/v1 http://www.garmin.com/xmlschemas/AccelerationExtensionv1.xsd http://www.garmin.com/xmlschemas/PowerExtension/v1 http://www.garmin.com/xmlschemas/PowerExtensionv1.xsd http://www.garmin.com/xmlschemas/VideoExtension/v1 http://www.garmin.com/xmlschemas/VideoExtensionv1.xsd" xmlns="http://www.topografix.com/GPX/1/1" xmlns:xsi="http://www.w3.org/2001/XMLSchema-instance" xmlns:wptx1="http://www.garmin.com/xmlschemas/WaypointExtension/v1" xmlns:gpxtrx="http://www.garmin.com/xmlschemas/GpxExtensions/v3" xmlns:gpxtpx="http://www.garmin.com/xmlschemas/TrackPointExtension/v1" xmlns:gpxx="http://www.garmin.com/xmlschemas/GpxExtensions/v3" xmlns:trp="http://www.garmin.com/xmlschemas/TripExtensions/v1" xmlns:adv="http://www.garmin.com/xmlschemas/AdventuresExtensions/v1" xmlns:prs="http://www.garmin.com/xmlschemas/PressureExtension/v1" xmlns:tmd="http://www.garmin.com/xmlschemas/TripMetaDataExtensions/v1" xmlns:vptm="http://www.garmin.com/xmlschemas/ViaPointTransportationModeExtensions/v1" xmlns:ctx="http://www.garmin.com/xmlschemas/CreationTimeExtension/v1" xmlns:gpxacc="http://www.garmin.com/xmlschemas/AccelerationExtension/v1" xmlns:gpxpx="http://www.garmin.com/xmlschemas/PowerExtension/v1" xmlns:vidx1="http://www.garmin.com/xmlschemas/VideoExtension/v1">

  <metadata>
    <link href="http://www.garmin.com">
      <text>Garmin International</text>
    </link>
    <time>2021-02-13T10:22:15Z</time>
    <bounds maxlat="45.867279376834631" maxlon="9.354655053466559" minlat="45.849101627245545" minlon="9.327788706868887" />
  </metadata>

  <trk>
    <name>monte-moregallo2014-05-25</name>
    <extensions>
      <gpxx:TrackExtension>
        <gpxx:DisplayColor>Yellow</gpxx:DisplayColor>
      </gpxx:TrackExtension>
      <gpxtrkx:TrackStatsExtension xmlns:gpxtrkx="http://www.garmin.com/xmlschemas/TrackStatsExtension/v1">
        <gpxtrkx:Distance>14712</gpxtrkx:Distance>
        <gpxtrkx:TotalElapsedTime>29957</gpxtrkx:TotalElapsedTime>
        <gpxtrkx:MovingTime>16704</gpxtrkx:MovingTime>
        <gpxtrkx:StoppedTime>13241</gpxtrkx:StoppedTime>
        <gpxtrkx:MovingSpeed>1</gpxtrkx:MovingSpeed>
        <gpxtrkx:MaxSpeed>3</gpxtrkx:MaxSpeed>
        <gpxtrkx:MaxElevation>1272</gpxtrkx:MaxElevation>
        <gpxtrkx:MinElevation>283</gpxtrkx:MinElevation>
        <gpxtrkx:Ascent>1220</gpxtrkx:Ascent>
        <gpxtrkx:Descent>1228</gpxtrkx:Descent>
        <gpxtrkx:AvgAscentRate>0</gpxtrkx:AvgAscentRate>
        <gpxtrkx:MaxAscentRate>0</gpxtrkx:MaxAscentRate>
        <gpxtrkx:AvgDescentRate>0</gpxtrkx:AvgDescentRate>
        <gpxtrkx:MaxDescentRate>-1</gpxtrkx:MaxDescentRate>
      </gpxtrkx:TrackStatsExtension>
    </extensions>
    <trkseg>
      <trkpt lat="45.851141950115561" lon="9.353570016101003">
        <ele>293.81999999999999</ele>
        <time>2014-05-25T06:53:31Z</time>
      </trkpt>
      <trkpt lat="45.851145386695862" lon="9.353552497923374">
        <ele>293.81999999999999</ele>
        <time>2014-05-25T06:53:34Z</time>
      </trkpt>
      <trkpt lat="45.851211436092854" lon="9.353498602285981">
        <ele>294.30000000000001</ele>
        <time>2014-05-25T06:53:49Z</time>
      </trkpt>
      <trkpt lat="45.851243454962969" lon="9.353459291160107">
        <ele>294.30000000000001</ele>
        <time>2014-05-25T06:54:01Z</time>
      </trkpt>
      <trkpt lat="45.851292824372649" lon="9.353444203734398">
        <ele>294.77999999999997</ele>
        <time>2014-05-25T06:54:15Z</time>
      </trkpt>
      <trkpt lat="45.851320987567306" lon="9.353460632264614">
        <ele>293.81999999999999</ele>
        <time>2014-05-25T06:54:26Z</time>
      </trkpt>
      <trkpt lat="45.851396508514881" lon="9.353435654193163">
        <ele>296.22000000000003</ele>
        <time>2014-05-25T06:54:39Z</time>
      </trkpt>
      <trkpt lat="45.851451074704528" lon="9.353400785475969">
        <ele>298.14999999999998</ele>
        <time>2014-05-25T06:54:56Z</time>
      </trkpt>
      <trkpt lat="45.851378571242094" lon="9.353372706100345">
        <ele>300.06999999999999</ele>
        <time>2014-05-25T06:55:12Z</time>
      </trkpt>
      <trkpt lat="45.851380247622728" lon="9.353367928415537">
        <ele>301.99000000000001</ele>
        <time>2014-05-25T06:55:26Z</time>
      </trkpt>
      <trkpt lat="45.851449817419052" lon="9.353299532085657">
        <ele>304.88</ele>
        <time>2014-05-25T06:55:43Z</time>
      </trkpt>
      <trkpt lat="45.851352671161294" lon="9.353276314213872">
        <ele>305.83999999999997</ele>
        <time>2014-05-25T06:55:55Z</time>
      </trkpt>
      <trkpt lat="45.851319897919893" lon="9.353263908997178">
        <ele>306.31999999999999</ele>
        <time>2014-05-25T06:56:00Z</time>
      </trkpt>
      <trkpt lat="45.851243790239096" lon="9.353122422471643">
        <ele>305.83999999999997</ele>
        <time>2014-05-25T06:56:15Z</time>
      </trkpt>
      <trkpt lat="45.851148068904877" lon="9.352897116914392">
        <ele>305.36000000000001</ele>
        <time>2014-05-25T06:56:32Z</time>
      </trkpt>
      <trkpt lat="45.851156702265143" lon="9.352754456922412">
        <ele>305.83999999999997</ele>
        <time>2014-05-25T06:56:42Z</time>
      </trkpt>
      <trkpt lat="45.851179249584675" lon="9.352634930983186">
        <ele>307.27999999999997</ele>
        <time>2014-05-25T06:56:52Z</time>
      </trkpt>
      <trkpt lat="45.851121665909886" lon="9.352435860782862">
        <ele>308.24000000000001</ele>
        <time>2014-05-25T06:57:07Z</time>
      </trkpt>
      <trkpt lat="45.85098990239203" lon="9.352259421721101">
        <ele>309.19999999999999</ele>
        <time>2014-05-25T06:57:26Z</time>
      </trkpt>
      <trkpt lat="45.850866939872503" lon="9.35210351832211">
        <ele>309.68000000000001</ele>
        <time>2014-05-25T06:57:42Z</time>
      </trkpt>
      <trkpt lat="45.850726459175348" lon="9.352035624906421">
        <ele>310.63999999999999</ele>
        <time>2014-05-25T06:57:59Z</time>
      </trkpt>
      <trkpt lat="45.850604502484202" lon="9.352025231346488">
        <ele>311.60000000000002</ele>
        <time>2014-05-25T06:58:14Z</time>
      </trkpt>
      <trkpt lat="45.850483886897564" lon="9.352011568844318">
        <ele>313.05000000000001</ele>
        <time>2014-05-25T06:58:29Z</time>
      </trkpt>
      <trkpt lat="45.850368216633797" lon="9.352004947140813">
        <ele>314.49000000000001</ele>
        <time>2014-05-25T06:58:43Z</time>
      </trkpt>
      <trkpt lat="45.850368803367019" lon="9.351991787552834">
        <ele>314.49000000000001</ele>
        <time>2014-05-25T06:58:44Z</time>
      </trkpt>
      <trkpt lat="45.850353967398405" lon="9.351800261065364">
        <ele>316.41000000000003</ele>
        <time>2014-05-25T06:59:00Z</time>
      </trkpt>
      <trkpt lat="45.850342148914933" lon="9.351542601361871">
        <ele>319.30000000000001</ele>
        <time>2014-05-25T06:59:20Z</time>
      </trkpt>
      <trkpt lat="45.85036595351994" lon="9.351375969126821">
        <ele>321.22000000000003</ele>
        <time>2014-05-25T06:59:35Z</time>
      </trkpt>
      <trkpt lat="45.850428650155663" lon="9.351216126233339">
        <ele>323.13999999999999</ele>
        <time>2014-05-25T06:59:52Z</time>
      </trkpt>
      <trkpt lat="45.850499728694558" lon="9.351036502048373">
        <ele>326.01999999999998</ele>
        <time>2014-05-25T07:00:09Z</time>
      </trkpt>
      <trkpt lat="45.850601820275187" lon="9.350955365225673">
        <ele>328.43000000000001</ele>
        <time>2014-05-25T07:00:24Z</time>
      </trkpt>
      <trkpt lat="45.850613303482533" lon="9.350940193980932">
        <ele>329.38999999999999</ele>
        <time>2014-05-25T07:00:26Z</time>
      </trkpt>
      <trkpt lat="45.85069284774363" lon="9.350829888135195">
        <ele>331.79000000000002</ele>
        <time>2014-05-25T07:00:41Z</time>
      </trkpt>
      <trkpt lat="45.850697290152311" lon="9.350655963644385">
        <ele>334.19999999999999</ele>
        <time>2014-05-25T07:00:56Z</time>
      </trkpt>
      <trkpt lat="45.850701648741961" lon="9.350481452420354">
        <ele>337.07999999999998</ele>
        <time>2014-05-25T07:01:11Z</time>
      </trkpt>
      <trkpt lat="45.850716819986701" lon="9.350334936752915">
        <ele>339</ele>
        <time>2014-05-25T07:01:25Z</time>
      </trkpt>
      <trkpt lat="45.850753784179688" lon="9.350188337266445">
        <ele>341.88999999999999</ele>
        <time>2014-05-25T07:01:41Z</time>
      </trkpt>
      <trkpt lat="45.850831149145961" lon="9.35020862147212">
        <ele>343.32999999999998</ele>
        <time>2014-05-25T07:01:53Z</time>
      </trkpt>
      <trkpt lat="45.850917315110564" lon="9.350311551243067">
        <ele>344.29000000000002</ele>
        <time>2014-05-25T07:02:07Z</time>
      </trkpt>
      <trkpt lat="45.851005157455802" lon="9.350399142131209">
        <ele>347.17000000000002</ele>
        <time>2014-05-25T07:02:23Z</time>
      </trkpt>
      <trkpt lat="45.851124012842774" lon="9.350532665848732">
        <ele>350.06</ele>
        <time>2014-05-25T07:02:42Z</time>
      </trkpt>
      <trkpt lat="45.85121126845479" lon="9.350659064948559">
        <ele>352.45999999999998</ele>
        <time>2014-05-25T07:02:58Z</time>
      </trkpt>
      <trkpt lat="45.851315204054117" lon="9.350771801546216">
        <ele>354.86000000000001</ele>
        <time>2014-05-25T07:03:15Z</time>
      </trkpt>
      <trkpt lat="45.851399358361959" lon="9.350872049108148">
        <ele>358.70999999999998</ele>
        <time>2014-05-25T07:03:30Z</time>
      </trkpt>
      <trkpt lat="45.851481836289167" lon="9.350982774049044">
        <ele>359.19</ele>
        <time>2014-05-25T07:03:45Z</time>
      </trkpt>
      <trkpt lat="45.851579904556274" lon="9.351121326908469">
        <ele>361.58999999999997</ele>
        <time>2014-05-25T07:04:02Z</time>
      </trkpt>
      <trkpt lat="45.851565152406693" lon="9.351130295544863">
        <ele>362.06999999999999</ele>
        <time>2014-05-25T07:04:12Z</time>
      </trkpt>
      <trkpt lat="45.851576635614038" lon="9.351150328293443">
        <ele>362.55000000000001</ele>
        <time>2014-05-25T07:04:22Z</time>
      </trkpt>
      <trkpt lat="45.851609325036407" lon="9.35119659639895">
        <ele>363.51999999999998</ele>
        <time>2014-05-25T07:04:33Z</time>
      </trkpt>
      <trkpt lat="45.851616533473134" lon="9.351204726845026">
        <ele>363.51999999999998</ele>
        <time>2014-05-25T07:04:34Z</time>
      </trkpt>
      <trkpt lat="45.851696413010359" lon="9.351203050464392">
        <ele>365.44</ele>
        <time>2014-05-25T07:04:47Z</time>
      </trkpt>
      <trkpt lat="45.851720469072461" lon="9.351109173148871">
        <ele>366.88</ele>
        <time>2014-05-25T07:04:57Z</time>
      </trkpt>
      <trkpt lat="45.851727174594998" lon="9.351050751283765">
        <ele>367.83999999999997</ele>
        <time>2014-05-25T07:05:01Z</time>
      </trkpt>
      <trkpt lat="45.851704459637403" lon="9.350878000259399">
        <ele>369.75999999999999</ele>
        <time>2014-05-25T07:05:15Z</time>
      </trkpt>
      <trkpt lat="45.85172675549984" lon="9.35075830668211">
        <ele>372.17000000000002</ele>
        <time>2014-05-25T07:05:26Z</time>
      </trkpt>
      <trkpt lat="45.851759109646082" lon="9.350727796554565">
        <ele>373.13</ele>
        <time>2014-05-25T07:05:31Z</time>
      </trkpt>
      <trkpt lat="45.851855836808681" lon="9.350703153759241">
        <ele>375.05000000000001</ele>
        <time>2014-05-25T07:05:44Z</time>
      </trkpt>
      <trkpt lat="45.851991036906838" lon="9.350688569247723">
        <ele>377.94</ele>
        <time>2014-05-25T07:05:59Z</time>
      </trkpt>
      <trkpt lat="45.852109054103494" lon="9.350689155980945">
        <ele>380.33999999999997</ele>
        <time>2014-05-25T07:06:14Z</time>
      </trkpt>
      <trkpt lat="45.852218940854073" lon="9.350638864561915">
        <ele>382.25999999999999</ele>
        <time>2014-05-25T07:06:29Z</time>
      </trkpt>
      <trkpt lat="45.852353218942881" lon="9.350567115470767">
        <ele>385.14999999999998</ele>
        <time>2014-05-25T07:06:46Z</time>
      </trkpt>
      <trkpt lat="45.852402085438371" lon="9.350552363321185">
        <ele>385.63</ele>
        <time>2014-05-25T07:07:00Z</time>
      </trkpt>
      <trkpt lat="45.852429075166583" lon="9.350532162934542">
        <ele>386.11000000000001</ele>
        <time>2014-05-25T07:07:14Z</time>
      </trkpt>
      <trkpt lat="45.85242697969079" lon="9.350567534565926">
        <ele>385.63</ele>
        <time>2014-05-25T07:07:32Z</time>
      </trkpt>
      <trkpt lat="45.852402588352561" lon="9.350552698597312">
        <ele>385.63</ele>
        <time>2014-05-25T07:07:46Z</time>
      </trkpt>
      <trkpt lat="45.852398900315166" lon="9.350587232038379">
        <ele>385.63</ele>
        <time>2014-05-25T07:07:59Z</time>
      </trkpt>
      <trkpt lat="45.852392949163914" lon="9.350579688325524">
        <ele>385.63</ele>
        <time>2014-05-25T07:08:16Z</time>
      </trkpt>
      <trkpt lat="45.852394877001643" lon="9.350579772144556">
        <ele>385.14999999999998</ele>
        <time>2014-05-25T07:08:41Z</time>
      </trkpt>
      <trkpt lat="45.852441228926182" lon="9.350577173754573">
        <ele>385.14999999999998</ele>
        <time>2014-05-25T07:08:56Z</time>
      </trkpt>
      <trkpt lat="45.852440139278769" lon="9.350531073287129">
        <ele>385.63</ele>
        <time>2014-05-25T07:09:15Z</time>
      </trkpt>
      <trkpt lat="45.852407282218337" lon="9.350528726354241">
        <ele>385.63</ele>
        <time>2014-05-25T07:09:39Z</time>
      </trkpt>
      <trkpt lat="45.852410215884447" lon="9.350548088550568">
        <ele>386.11000000000001</ele>
        <time>2014-05-25T07:10:03Z</time>
      </trkpt>
      <trkpt lat="45.852419855073094" lon="9.350551357492805">
        <ele>386.11000000000001</ele>
        <time>2014-05-25T07:10:19Z</time>
      </trkpt>
      <trkpt lat="45.852413820102811" lon="9.350551944226027">
        <ele>386.11000000000001</ele>
        <time>2014-05-25T07:10:34Z</time>
      </trkpt>
      <trkpt lat="45.852417927235365" lon="9.35059754177928">
        <ele>385.63</ele>
        <time>2014-05-25T07:10:45Z</time>
      </trkpt>
      <trkpt lat="45.852384064346552" lon="9.350600894540548">
        <ele>385.63</ele>
        <time>2014-05-25T07:10:58Z</time>
      </trkpt>
      <trkpt lat="45.852362858131528" lon="9.350590668618679">
        <ele>385.63</ele>
        <time>2014-05-25T07:11:13Z</time>
      </trkpt>
      <trkpt lat="45.852350201457739" lon="9.350511711090803">
        <ele>386.11000000000001</ele>
        <time>2014-05-25T07:11:26Z</time>
      </trkpt>
      <trkpt lat="45.852307872846723" lon="9.350409703329206">
        <ele>387.06999999999999</ele>
        <time>2014-05-25T07:11:38Z</time>
      </trkpt>
      <trkpt lat="45.852295635268092" lon="9.350357232615352">
        <ele>387.55000000000001</ele>
        <time>2014-05-25T07:11:57Z</time>
      </trkpt>
      <trkpt lat="45.852296389639378" lon="9.350219769403338">
        <ele>388.99000000000001</ele>
        <time>2014-05-25T07:12:10Z</time>
      </trkpt>
      <trkpt lat="45.852295383810997" lon="9.350092196837068">
        <ele>389.94999999999999</ele>
        <time>2014-05-25T07:12:20Z</time>
      </trkpt>
      <trkpt lat="45.852350201457739" lon="9.349915841594338">
        <ele>391.87</ele>
        <time>2014-05-25T07:12:34Z</time>
      </trkpt>
      <trkpt lat="45.852405102923512" lon="9.349714005365968">
        <ele>394.27999999999997</ele>
        <time>2014-05-25T07:12:50Z</time>
      </trkpt>
      <trkpt lat="45.852411976084113" lon="9.349462799727917">
        <ele>396.68000000000001</ele>
        <time>2014-05-25T07:13:08Z</time>
      </trkpt>
      <trkpt lat="45.852375095710158" lon="9.34920396655798">
        <ele>397.63999999999999</ele>
        <time>2014-05-25T07:13:25Z</time>
      </trkpt>
      <trkpt lat="45.852202260866761" lon="9.349134732037783">
        <ele>398.60000000000002</ele>
        <time>2014-05-25T07:13:41Z</time>
      </trkpt>
      <trkpt lat="45.85204191505909" lon="9.349127439782023">
        <ele>399.07999999999998</ele>
        <time>2014-05-25T07:13:56Z</time>
      </trkpt>
      <trkpt lat="45.851882407441735" lon="9.349095420911908">
        <ele>400.05000000000001</ele>
        <time>2014-05-25T07:14:12Z</time>
      </trkpt>
      <trkpt lat="45.851749554276466" lon="9.349012104794383">
        <ele>402.44999999999999</ele>
        <time>2014-05-25T07:14:26Z</time>
      </trkpt>
      <trkpt lat="45.85169792175293" lon="9.34892350807786">
        <ele>403.88999999999999</ele>
        <time>2014-05-25T07:14:36Z</time>
      </trkpt>
      <trkpt lat="45.851670512929559" lon="9.348737429827452">
        <ele>405.81</ele>
        <time>2014-05-25T07:14:53Z</time>
      </trkpt>
      <trkpt lat="45.851659029722214" lon="9.348564008250833">
        <ele>408.22000000000003</ele>
        <time>2014-05-25T07:15:08Z</time>
      </trkpt>
      <trkpt lat="45.851663891226053" lon="9.348405925557017">
        <ele>410.13999999999999</ele>
        <time>2014-05-25T07:15:22Z</time>
      </trkpt>
      <trkpt lat="45.851646037772298" lon="9.34826779179275">
        <ele>412.06</ele>
        <time>2014-05-25T07:15:35Z</time>
      </trkpt>
      <trkpt lat="45.851620556786656" lon="9.348101411014795">
        <ele>413.98000000000002</ele>
        <time>2014-05-25T07:15:50Z</time>
      </trkpt>
      <trkpt lat="45.851561045274138" lon="9.347940059378743">
        <ele>415.91000000000003</ele>
        <time>2014-05-25T07:16:06Z</time>
      </trkpt>
      <trkpt lat="45.851462054997683" lon="9.347810810431838">
        <ele>417.82999999999998</ele>
        <time>2014-05-25T07:16:22Z</time>
      </trkpt>
      <trkpt lat="45.851349905133247" lon="9.347671167925">
        <ele>419.75</ele>
        <time>2014-05-25T07:16:38Z</time>
      </trkpt>
      <trkpt lat="45.851259045302868" lon="9.347536554560065">
        <ele>421.19</ele>
        <time>2014-05-25T07:16:53Z</time>
      </trkpt>
      <trkpt lat="45.851202551275492" lon="9.347394816577435">
        <ele>422.63999999999999</ele>
        <time>2014-05-25T07:17:07Z</time>
      </trkpt>
      <trkpt lat="45.851201880723238" lon="9.347378052771092">
        <ele>422.63999999999999</ele>
        <time>2014-05-25T07:17:08Z</time>
      </trkpt>
      <trkpt lat="45.8511917386204" lon="9.347240421921015">
        <ele>423.60000000000002</ele>
        <time>2014-05-25T07:17:19Z</time>
      </trkpt>
      <trkpt lat="45.85122300311923" lon="9.347069514915347">
        <ele>424.56</ele>
        <time>2014-05-25T07:17:33Z</time>
      </trkpt>
      <trkpt lat="45.851248987019062" lon="9.346909839659929">
        <ele>426</ele>
        <time>2014-05-25T07:17:48Z</time>
      </trkpt>
      <trkpt lat="45.851291483268142" lon="9.346783440560103">
        <ele>427.44</ele>
        <time>2014-05-25T07:18:05Z</time>
      </trkpt>
      <trkpt lat="45.851372452452779" lon="9.346616808325052">
        <ele>429.85000000000002</ele>
        <time>2014-05-25T07:18:20Z</time>
      </trkpt>
      <trkpt lat="45.851436406373978" lon="9.346451936289668">
        <ele>431.76999999999998</ele>
        <time>2014-05-25T07:18:34Z</time>
      </trkpt>
      <trkpt lat="45.851464821025729" lon="9.346263846382499">
        <ele>433.69</ele>
        <time>2014-05-25T07:18:49Z</time>
      </trkpt>
      <trkpt lat="45.851519554853439" lon="9.346139039844275">
        <ele>436.10000000000002</ele>
        <time>2014-05-25T07:19:02Z</time>
      </trkpt>
      <trkpt lat="45.851599937304854" lon="9.346277173608542">
        <ele>437.54000000000002</ele>
        <time>2014-05-25T07:19:15Z</time>
      </trkpt>
      <trkpt lat="45.851610833778977" lon="9.346421007066965">
        <ele>439.45999999999998</ele>
        <time>2014-05-25T07:19:27Z</time>
      </trkpt>
      <trkpt lat="45.851601781323552" lon="9.346625693142414">
        <ele>440.89999999999998</ele>
        <time>2014-05-25T07:19:43Z</time>
      </trkpt>
      <trkpt lat="45.851617371663451" lon="9.346794169396162">
        <ele>442.33999999999997</ele>
        <time>2014-05-25T07:19:57Z</time>
      </trkpt>
      <trkpt lat="45.851662214845419" lon="9.34698510915041">
        <ele>444.26999999999998</ele>
        <time>2014-05-25T07:20:13Z</time>
      </trkpt>
      <trkpt lat="45.851734131574631" lon="9.347047889605165">
        <ele>445.70999999999998</ele>
        <time>2014-05-25T07:20:26Z</time>
      </trkpt>
      <trkpt lat="45.851755170151591" lon="9.347047470510006">
        <ele>446.19</ele>
        <time>2014-05-25T07:20:30Z</time>
      </trkpt>
      <trkpt lat="45.851881569251418" lon="9.347036741673946">
        <ele>447.63</ele>
        <time>2014-05-25T07:20:44Z</time>
      </trkpt>
      <trkpt lat="45.852039400488138" lon="9.347018050029874">
        <ele>449.55000000000001</ele>
        <time>2014-05-25T07:21:00Z</time>
      </trkpt>
      <trkpt lat="45.852195220068097" lon="9.347039172425866">
        <ele>451.95999999999998</ele>
        <time>2014-05-25T07:21:17Z</time>
      </trkpt>
      <trkpt lat="45.852331258356571" lon="9.347066078335047">
        <ele>453.88</ele>
        <time>2014-05-25T07:21:31Z</time>
      </trkpt>
      <trkpt lat="45.852370401844382" lon="9.347048560157418">
        <ele>455.31999999999999</ele>
        <time>2014-05-25T07:21:37Z</time>
      </trkpt>
      <trkpt lat="45.85242354311049" lon="9.346953677013516">
        <ele>458.20999999999998</ele>
        <time>2014-05-25T07:21:52Z</time>
      </trkpt>
      <trkpt lat="45.852502919733524" lon="9.346867678686976">
        <ele>460.61000000000001</ele>
        <time>2014-05-25T07:22:06Z</time>
      </trkpt>
      <trkpt lat="45.852585984393954" lon="9.346776735037565">
        <ele>463.49000000000001</ele>
        <time>2014-05-25T07:22:21Z</time>
      </trkpt>
      <trkpt lat="45.852680196985602" lon="9.346683863550425">
        <ele>465.89999999999998</ele>
        <time>2014-05-25T07:22:36Z</time>
      </trkpt>
      <trkpt lat="45.85274993441999" lon="9.346578000113368">
        <ele>468.77999999999997</ele>
        <time>2014-05-25T07:22:51Z</time>
      </trkpt>
      <trkpt lat="45.852751694619656" lon="9.346422851085663">
        <ele>471.66000000000003</ele>
        <time>2014-05-25T07:23:06Z</time>
      </trkpt>
      <trkpt lat="45.852736858651042" lon="9.346385970711708">
        <ele>472.13999999999999</ele>
        <time>2014-05-25T07:23:10Z</time>
      </trkpt>
      <trkpt lat="45.852706516161561" lon="9.346201820299029">
        <ele>474.55000000000001</ele>
        <time>2014-05-25T07:23:26Z</time>
      </trkpt>
      <trkpt lat="45.852677682414651" lon="9.346025297418237">
        <ele>476.47000000000003</ele>
        <time>2014-05-25T07:23:41Z</time>
      </trkpt>
      <trkpt lat="45.852663014084101" lon="9.345831926912069">
        <ele>478.38999999999999</ele>
        <time>2014-05-25T07:23:57Z</time>
      </trkpt>
      <trkpt lat="45.852658906951547" lon="9.345665713772178">
        <ele>480.80000000000001</ele>
        <time>2014-05-25T07:24:11Z</time>
      </trkpt>
      <trkpt lat="45.852626301348209" lon="9.345563286915422">
        <ele>482.24000000000001</ele>
        <time>2014-05-25T07:24:21Z</time>
      </trkpt>
      <trkpt lat="45.852543907240033" lon="9.345408221706748">
        <ele>484.16000000000003</ele>
        <time>2014-05-25T07:24:37Z</time>
      </trkpt>
      <trkpt lat="45.852463524788618" lon="9.345264388248324">
        <ele>486.56</ele>
        <time>2014-05-25T07:24:53Z</time>
      </trkpt>
      <trkpt lat="45.852380292490125" lon="9.345124997198582">
        <ele>488.49000000000001</ele>
        <time>2014-05-25T07:25:08Z</time>
      </trkpt>
      <trkpt lat="45.852277530357242" lon="9.345018127933145">
        <ele>490.88999999999999</ele>
        <time>2014-05-25T07:25:23Z</time>
      </trkpt>
      <trkpt lat="45.852202512323856" lon="9.34487228281796">
        <ele>493.29000000000002</ele>
        <time>2014-05-25T07:25:38Z</time>
      </trkpt>
      <trkpt lat="45.852165883406997" lon="9.344720151275396">
        <ele>495.69999999999999</ele>
        <time>2014-05-25T07:25:52Z</time>
      </trkpt>
      <trkpt lat="45.852161860093474" lon="9.344574641436338">
        <ele>498.10000000000002</ele>
        <time>2014-05-25T07:26:05Z</time>
      </trkpt>
      <trkpt lat="45.852168314158916" lon="9.34445109218359">
        <ele>500.5</ele>
        <time>2014-05-25T07:26:19Z</time>
      </trkpt>
      <trkpt lat="45.852177450433373" lon="9.344271216541529">
        <ele>503.38999999999999</ele>
        <time>2014-05-25T07:26:35Z</time>
      </trkpt>
      <trkpt lat="45.85218315012753" lon="9.34411933645606">
        <ele>506.26999999999998</ele>
        <time>2014-05-25T07:26:50Z</time>
      </trkpt>
      <trkpt lat="45.852187424898148" lon="9.343939544633031">
        <ele>508.67000000000002</ele>
        <time>2014-05-25T07:27:04Z</time>
      </trkpt>
      <trkpt lat="45.852201422676444" lon="9.343803338706493">
        <ele>511.07999999999998</ele>
        <time>2014-05-25T07:27:18Z</time>
      </trkpt>
      <trkpt lat="45.852177618071437" lon="9.343631761148572">
        <ele>513.48000000000002</ele>
        <time>2014-05-25T07:27:32Z</time>
      </trkpt>
      <trkpt lat="45.85216068662703" lon="9.34348457492888">
        <ele>515.39999999999998</ele>
        <time>2014-05-25T07:27:45Z</time>
      </trkpt>
      <trkpt lat="45.852148113772273" lon="9.343314673751593">
        <ele>518.28999999999996</ele>
        <time>2014-05-25T07:28:00Z</time>
      </trkpt>
      <trkpt lat="45.852132691070437" lon="9.343180563300848">
        <ele>520.21000000000004</ele>
        <time>2014-05-25T07:28:13Z</time>
      </trkpt>
      <trkpt lat="45.852126320824027" lon="9.343088865280151">
        <ele>521.64999999999998</ele>
        <time>2014-05-25T07:28:21Z</time>
      </trkpt>
      <trkpt lat="45.85207611322403" lon="9.342926843091846">
        <ele>524.05999999999995</ele>
        <time>2014-05-25T07:28:35Z</time>
      </trkpt>
      <trkpt lat="45.852066474035382" lon="9.34291142039001">
        <ele>524.05999999999995</ele>
        <time>2014-05-25T07:28:37Z</time>
      </trkpt>
      <trkpt lat="45.852051386609674" lon="9.342881664633751">
        <ele>524.53999999999996</ele>
        <time>2014-05-25T07:28:40Z</time>
      </trkpt>
      <trkpt lat="45.851988103240728" lon="9.342754008248448">
        <ele>526.46000000000004</ele>
        <time>2014-05-25T07:28:53Z</time>
      </trkpt>
      <trkpt lat="45.851903865113854" lon="9.342604475095868">
        <ele>528.38</ele>
        <time>2014-05-25T07:29:07Z</time>
      </trkpt>
      <trkpt lat="45.851826583966613" lon="9.34247899800539">
        <ele>528.86000000000001</ele>
        <time>2014-05-25T07:29:19Z</time>
      </trkpt>
      <trkpt lat="45.851725414395332" lon="9.342257464304566">
        <ele>529.34000000000003</ele>
        <time>2014-05-25T07:29:37Z</time>
      </trkpt>
      <trkpt lat="45.851693730801344" lon="9.342239191755652">
        <ele>530.29999999999995</ele>
        <time>2014-05-25T07:29:41Z</time>
      </trkpt>
      <trkpt lat="45.851648971438408" lon="9.342254446819425">
        <ele>531.26999999999998</ele>
        <time>2014-05-25T07:29:49Z</time>
      </trkpt>
      <trkpt lat="45.851517375558615" lon="9.342350419610739">
        <ele>531.75</ele>
        <time>2014-05-25T07:30:05Z</time>
      </trkpt>
      <trkpt lat="45.851376224309206" lon="9.342383360490203">
        <ele>532.71000000000004</ele>
        <time>2014-05-25T07:30:23Z</time>
      </trkpt>
      <trkpt lat="45.851262733340263" lon="9.342397106811404">
        <ele>533.66999999999996</ele>
        <time>2014-05-25T07:30:36Z</time>
      </trkpt>
      <trkpt lat="45.85114186629653" lon="9.342426778748632">
        <ele>535.59000000000003</ele>
        <time>2014-05-25T07:30:50Z</time>
      </trkpt>
      <trkpt lat="45.851095179095864" lon="9.342414122074843">
        <ele>536.07000000000005</ele>
        <time>2014-05-25T07:30:56Z</time>
      </trkpt>
      <trkpt lat="45.850937599316239" lon="9.342431137338281">
        <ele>537.50999999999999</ele>
        <time>2014-05-25T07:31:12Z</time>
      </trkpt>
      <trkpt lat="45.850808853283525" lon="9.342452678829432">
        <ele>539.44000000000005</ele>
        <time>2014-05-25T07:31:27Z</time>
      </trkpt>
      <trkpt lat="45.850671138614416" lon="9.342476986348629">
        <ele>541.36000000000001</ele>
        <time>2014-05-25T07:31:43Z</time>
      </trkpt>
      <trkpt lat="45.850563598796725" lon="9.342431053519249">
        <ele>543.75999999999999</ele>
        <time>2014-05-25T07:31:58Z</time>
      </trkpt>
      <trkpt lat="45.85057164542377" lon="9.342329967767">
        <ele>546.64999999999998</ele>
        <time>2014-05-25T07:32:13Z</time>
      </trkpt>
      <trkpt lat="45.850699553266168" lon="9.342265510931611">
        <ele>548.09000000000003</ele>
        <time>2014-05-25T07:32:28Z</time>
      </trkpt>
      <trkpt lat="45.850702235475183" lon="9.342264253646135">
        <ele>548.57000000000005</ele>
        <time>2014-05-25T07:32:29Z</time>
      </trkpt>
      <trkpt lat="45.850649764761329" lon="9.342197701334953">
        <ele>550.49000000000001</ele>
        <time>2014-05-25T07:32:43Z</time>
      </trkpt>
      <trkpt lat="45.850547002628446" lon="9.342210274189711">
        <ele>552.89999999999998</ele>
        <time>2014-05-25T07:32:58Z</time>
      </trkpt>
      <trkpt lat="45.850438876077533" lon="9.342205580323935">
        <ele>554.34000000000003</ele>
        <time>2014-05-25T07:33:11Z</time>
      </trkpt>
      <trkpt lat="45.850392356514931" lon="9.342202730476856">
        <ele>555.29999999999995</ele>
        <time>2014-05-25T07:33:17Z</time>
      </trkpt>
      <trkpt lat="45.850324714556336" lon="9.34215260669589">
        <ele>556.74000000000001</ele>
        <time>2014-05-25T07:33:26Z</time>
      </trkpt>
      <trkpt lat="45.850228741765022" lon="9.342137603089213">
        <ele>559.13999999999999</ele>
        <time>2014-05-25T07:33:40Z</time>
      </trkpt>
      <trkpt lat="45.850138887763023" lon="9.342101560905576">
        <ele>561.07000000000005</ele>
        <time>2014-05-25T07:33:51Z</time>
      </trkpt>
      <trkpt lat="45.850028330460191" lon="9.342129221186042">
        <ele>562.99000000000001</ele>
        <time>2014-05-25T07:34:04Z</time>
      </trkpt>
      <trkpt lat="45.85004735738039" lon="9.342190157622099">
        <ele>563.47000000000003</ele>
        <time>2014-05-25T07:34:18Z</time>
      </trkpt>
      <trkpt lat="45.849948031827807" lon="9.342207340523601">
        <ele>564.90999999999997</ele>
        <time>2014-05-25T07:34:34Z</time>
      </trkpt>
      <trkpt lat="45.84987192414701" lon="9.342225110158324">
        <ele>566.35000000000002</ele>
        <time>2014-05-25T07:34:44Z</time>
      </trkpt>
      <trkpt lat="45.849721636623144" lon="9.342280430719256">
        <ele>569.72000000000003</ele>
        <time>2014-05-25T07:35:01Z</time>
      </trkpt>
      <trkpt lat="45.849698334932327" lon="9.34230163693428">
        <ele>570.20000000000005</ele>
        <time>2014-05-25T07:35:04Z</time>
      </trkpt>
      <trkpt lat="45.849664052948356" lon="9.34235779568553">
        <ele>571.15999999999997</ele>
        <time>2014-05-25T07:35:10Z</time>
      </trkpt>
      <trkpt lat="45.84965106099844" lon="9.342373888939619">
        <ele>571.15999999999997</ele>
        <time>2014-05-25T07:35:12Z</time>
      </trkpt>
      <trkpt lat="45.849643182009459" lon="9.342414038255811">
        <ele>571.63999999999999</ele>
        <time>2014-05-25T07:35:26Z</time>
      </trkpt>
      <trkpt lat="45.849647121503949" lon="9.342363746836782">
        <ele>572.12</ele>
        <time>2014-05-25T07:35:44Z</time>
      </trkpt>
      <trkpt lat="45.849607056006789" lon="9.342373805120587">
        <ele>571.63999999999999</ele>
        <time>2014-05-25T07:36:05Z</time>
      </trkpt>
      <trkpt lat="45.849580401554704" lon="9.342360980808735">
        <ele>572.12</ele>
        <time>2014-05-25T07:36:08Z</time>
      </trkpt>
      <trkpt lat="45.849512089043856" lon="9.342208094894886">
        <ele>575.49000000000001</ele>
        <time>2014-05-25T07:36:24Z</time>
      </trkpt>
      <trkpt lat="45.849416870623827" lon="9.342173729091883">
        <ele>576.45000000000005</ele>
        <time>2014-05-25T07:36:36Z</time>
      </trkpt>
      <trkpt lat="45.849386276677251" lon="9.34214380569756">
        <ele>577.40999999999997</ele>
        <time>2014-05-25T07:36:53Z</time>
      </trkpt>
      <trkpt lat="45.84938133135438" lon="9.342140201479197">
        <ele>577.88999999999999</ele>
        <time>2014-05-25T07:37:17Z</time>
      </trkpt>
      <trkpt lat="45.849357862025499" lon="9.34212670661509">
        <ele>577.40999999999997</ele>
        <time>2014-05-25T07:37:31Z</time>
      </trkpt>
      <trkpt lat="45.849359706044197" lon="9.342108853161335">
        <ele>577.40999999999997</ele>
        <time>2014-05-25T07:37:47Z</time>
      </trkpt>
      <trkpt lat="45.849385689944029" lon="9.342101477086544">
        <ele>578.37</ele>
        <time>2014-05-25T07:37:57Z</time>
      </trkpt>
      <trkpt lat="45.849398011341691" lon="9.342114552855492">
        <ele>578.37</ele>
        <time>2014-05-25T07:38:21Z</time>
      </trkpt>
      <trkpt lat="45.849379487335682" lon="9.342121258378029">
        <ele>578.37</ele>
        <time>2014-05-25T07:38:44Z</time>
      </trkpt>
      <trkpt lat="45.849382253363729" lon="9.342112960293889">
        <ele>578.85000000000002</ele>
        <time>2014-05-25T07:39:16Z</time>
      </trkpt>
      <trkpt lat="45.849389377981424" lon="9.342135423794389">
        <ele>578.85000000000002</ele>
        <time>2014-05-25T07:39:45Z</time>
      </trkpt>
      <trkpt lat="45.849377140402794" lon="9.342146320268512">
        <ele>578.85000000000002</ele>
        <time>2014-05-25T07:40:02Z</time>
      </trkpt>
      <trkpt lat="45.849373703822494" lon="9.342138357460499">
        <ele>578.37</ele>
        <time>2014-05-25T07:40:15Z</time>
      </trkpt>
      <trkpt lat="45.84933590143919" lon="9.342130897566676">
        <ele>578.85000000000002</ele>
        <time>2014-05-25T07:40:29Z</time>
      </trkpt>
      <trkpt lat="45.849301535636187" lon="9.342125616967678">
        <ele>578.85000000000002</ele>
        <time>2014-05-25T07:40:37Z</time>
      </trkpt>
      <trkpt lat="45.849268175661564" lon="9.34213106520474">
        <ele>578.37</ele>
        <time>2014-05-25T07:40:40Z</time>
      </trkpt>
      <trkpt lat="45.849151164293289" lon="9.34211740270257">
        <ele>577.40999999999997</ele>
        <time>2014-05-25T07:40:54Z</time>
      </trkpt>
      <trkpt lat="45.849150661379099" lon="9.342094184830785">
        <ele>577.40999999999997</ele>
        <time>2014-05-25T07:41:14Z</time>
      </trkpt>
      <trkpt lat="45.849182931706309" lon="9.342108853161335">
        <ele>577.40999999999997</ele>
        <time>2014-05-25T07:41:44Z</time>
      </trkpt>
      <trkpt lat="45.84920153953135" lon="9.342085719108582">
        <ele>577.40999999999997</ele>
        <time>2014-05-25T07:41:55Z</time>
      </trkpt>
      <trkpt lat="45.849303128197789" lon="9.342087479308248">
        <ele>578.37</ele>
        <time>2014-05-25T07:42:10Z</time>
      </trkpt>
      <trkpt lat="45.849360208958387" lon="9.34209493920207">
        <ele>578.85000000000002</ele>
        <time>2014-05-25T07:42:27Z</time>
      </trkpt>
      <trkpt lat="45.84932173602283" lon="9.34212813153863">
        <ele>579.33000000000004</ele>
        <time>2014-05-25T07:42:59Z</time>
      </trkpt>
      <trkpt lat="45.849362052977085" lon="9.342118157073855">
        <ele>579.33000000000004</ele>
        <time>2014-05-25T07:43:18Z</time>
      </trkpt>
      <trkpt lat="45.849347887560725" lon="9.342113044112921">
        <ele>579.33000000000004</ele>
        <time>2014-05-25T07:43:39Z</time>
      </trkpt>
      <trkpt lat="45.849344870075583" lon="9.342111619189382">
        <ele>579.33000000000004</ele>
        <time>2014-05-25T07:44:08Z</time>
      </trkpt>
      <trkpt lat="45.849366243928671" lon="9.342090245336294">
        <ele>579.33000000000004</ele>
        <time>2014-05-25T07:44:31Z</time>
      </trkpt>
      <trkpt lat="45.849335482344031" lon="9.342092843726277">
        <ele>579.33000000000004</ele>
        <time>2014-05-25T07:44:53Z</time>
      </trkpt>
      <trkpt lat="45.849327184259892" lon="9.342108685523272">
        <ele>579.33000000000004</ele>
        <time>2014-05-25T07:45:10Z</time>
      </trkpt>
      <trkpt lat="45.849346378818154" lon="9.342088233679533">
        <ele>579.33000000000004</ele>
        <time>2014-05-25T07:45:28Z</time>
      </trkpt>
      <trkpt lat="45.849389377981424" lon="9.342086389660835">
        <ele>579.80999999999995</ele>
        <time>2014-05-25T07:45:41Z</time>
      </trkpt>
      <trkpt lat="45.849476717412472" lon="9.342094603925943">
        <ele>579.33000000000004</ele>
        <time>2014-05-25T07:45:56Z</time>
      </trkpt>
      <trkpt lat="45.849492140114307" lon="9.342098375782371">
        <ele>579.80999999999995</ele>
        <time>2014-05-25T07:45:58Z</time>
      </trkpt>
      <trkpt lat="45.84964519366622" lon="9.342011036351323">
        <ele>581.25</ele>
        <time>2014-05-25T07:46:15Z</time>
      </trkpt>
      <trkpt lat="45.849676206707954" lon="9.341945322230458">
        <ele>582.22000000000003</ele>
        <time>2014-05-25T07:46:23Z</time>
      </trkpt>
      <trkpt lat="45.849840911105275" lon="9.341734852641821">
        <ele>582.70000000000005</ele>
        <time>2014-05-25T07:46:43Z</time>
      </trkpt>
      <trkpt lat="45.850030006840825" lon="9.341626642271876">
        <ele>583.17999999999995</ele>
        <time>2014-05-25T07:46:59Z</time>
      </trkpt>
      <trkpt lat="45.850208625197411" lon="9.341588001698256">
        <ele>582.22000000000003</ele>
        <time>2014-05-25T07:47:14Z</time>
      </trkpt>
      <trkpt lat="45.85025698877871" lon="9.341607112437487">
        <ele>582.22000000000003</ele>
        <time>2014-05-25T07:47:19Z</time>
      </trkpt>
      <trkpt lat="45.850340137258172" lon="9.341604011133313">
        <ele>582.22000000000003</ele>
        <time>2014-05-25T07:47:27Z</time>
      </trkpt>
      <trkpt lat="45.850380202755332" lon="9.341550534591079">
        <ele>582.22000000000003</ele>
        <time>2014-05-25T07:47:32Z</time>
      </trkpt>
      <trkpt lat="45.850412473082542" lon="9.341474091634154">
        <ele>583.65999999999997</ele>
        <time>2014-05-25T07:47:38Z</time>
      </trkpt>
      <trkpt lat="45.850564772263169" lon="9.34148607775569">
        <ele>582.22000000000003</ele>
        <time>2014-05-25T07:47:51Z</time>
      </trkpt>
      <trkpt lat="45.85065278224647" lon="9.341479288414121">
        <ele>581.73000000000002</ele>
        <time>2014-05-25T07:47:58Z</time>
      </trkpt>
      <trkpt lat="45.850776918232441" lon="9.341517426073551">
        <ele>581.73000000000002</ele>
        <time>2014-05-25T07:48:09Z</time>
      </trkpt>
      <trkpt lat="45.850904490798712" lon="9.341549528762698">
        <ele>581.25</ele>
        <time>2014-05-25T07:48:22Z</time>
      </trkpt>
      <trkpt lat="45.850952602922916" lon="9.341525556519628">
        <ele>581.25</ele>
        <time>2014-05-25T07:48:26Z</time>
      </trkpt>
      <trkpt lat="45.851006163284183" lon="9.341496471315622">
        <ele>581.25</ele>
        <time>2014-05-25T07:48:31Z</time>
      </trkpt>
      <trkpt lat="45.85107346996665" lon="9.341471577063203">
        <ele>581.25</ele>
        <time>2014-05-25T07:48:37Z</time>
      </trkpt>
      <trkpt lat="45.851189894601703" lon="9.341458920389414">
        <ele>583.17999999999995</ele>
        <time>2014-05-25T07:48:52Z</time>
      </trkpt>
      <trkpt lat="45.851200288161635" lon="9.34145531617105">
        <ele>583.17999999999995</ele>
        <time>2014-05-25T07:48:53Z</time>
      </trkpt>
      <trkpt lat="45.851263236254454" lon="9.341446682810783">
        <ele>584.13999999999999</ele>
        <time>2014-05-25T07:48:59Z</time>
      </trkpt>
      <trkpt lat="45.85130020044744" lon="9.34144115075469">
        <ele>584.13999999999999</ele>
        <time>2014-05-25T07:49:02Z</time>
      </trkpt>
      <trkpt lat="45.851415786892176" lon="9.34137174859643">
        <ele>585.58000000000004</ele>
        <time>2014-05-25T07:49:19Z</time>
      </trkpt>
      <trkpt lat="45.851413272321224" lon="9.341292036697269">
        <ele>588.46000000000004</ele>
        <time>2014-05-25T07:49:35Z</time>
      </trkpt>
      <trkpt lat="45.851460713893175" lon="9.341251635923982">
        <ele>590.87</ele>
        <time>2014-05-25T07:49:48Z</time>
      </trkpt>
      <trkpt lat="45.851513100787997" lon="9.341166811063886">
        <ele>592.78999999999996</ele>
        <time>2014-05-25T07:50:00Z</time>
      </trkpt>
      <trkpt lat="45.851668836548924" lon="9.34109129011631">
        <ele>592.78999999999996</ele>
        <time>2014-05-25T07:50:15Z</time>
      </trkpt>
      <trkpt lat="45.851755421608686" lon="9.341032365337014">
        <ele>590.38999999999999</ele>
        <time>2014-05-25T07:50:30Z</time>
      </trkpt>
      <trkpt lat="45.851790541782975" lon="9.341031946241856">
        <ele>588.95000000000005</ele>
        <time>2014-05-25T07:50:33Z</time>
      </trkpt>
      <trkpt lat="45.851900428533554" lon="9.341025408357382">
        <ele>587.98000000000002</ele>
        <time>2014-05-25T07:50:46Z</time>
      </trkpt>
      <trkpt lat="45.851979721337557" lon="9.341140575706959">
        <ele>589.42999999999995</ele>
        <time>2014-05-25T07:50:59Z</time>
      </trkpt>
      <trkpt lat="45.85206052288413" lon="9.341165134683251">
        <ele>592.78999999999996</ele>
        <time>2014-05-25T07:51:13Z</time>
      </trkpt>
      <trkpt lat="45.852156076580286" lon="9.341210816055536">
        <ele>595.19000000000005</ele>
        <time>2014-05-25T07:51:26Z</time>
      </trkpt>
      <trkpt lat="45.852222377434373" lon="9.341302933171392">
        <ele>598.08000000000004</ele>
        <time>2014-05-25T07:51:40Z</time>
      </trkpt>
      <trkpt lat="45.852276440709829" lon="9.341342328116298">
        <ele>597.12</ele>
        <time>2014-05-25T07:51:58Z</time>
      </trkpt>
      <trkpt lat="45.85235171020031" lon="9.341463111341">
        <ele>599.51999999999998</ele>
        <time>2014-05-25T07:52:13Z</time>
      </trkpt>
      <trkpt lat="45.852409461513162" lon="9.341548103839159">
        <ele>602.39999999999998</ele>
        <time>2014-05-25T07:52:27Z</time>
      </trkpt>
      <trkpt lat="45.852511804550886" lon="9.341629659757018">
        <ele>604.80999999999995</ele>
        <time>2014-05-25T07:52:44Z</time>
      </trkpt>
      <trkpt lat="45.852503506466746" lon="9.341705264523625">
        <ele>606.25</ele>
        <time>2014-05-25T07:52:59Z</time>
      </trkpt>
      <trkpt lat="45.852590091526508" lon="9.341792268678546">
        <ele>607.69000000000005</ele>
        <time>2014-05-25T07:53:12Z</time>
      </trkpt>
      <trkpt lat="45.852695452049375" lon="9.341790759935975">
        <ele>610.09000000000003</ele>
        <time>2014-05-25T07:53:26Z</time>
      </trkpt>
      <trkpt lat="45.852746833115816" lon="9.341743234544992">
        <ele>612.5</ele>
        <time>2014-05-25T07:53:38Z</time>
      </trkpt>
      <trkpt lat="45.85281003266573" lon="9.341761590912938">
        <ele>614.89999999999998</ele>
        <time>2014-05-25T07:53:51Z</time>
      </trkpt>
      <trkpt lat="45.852901563048363" lon="9.341845493763685">
        <ele>616.34000000000003</ele>
        <time>2014-05-25T07:54:04Z</time>
      </trkpt>
      <trkpt lat="45.852947495877743" lon="9.34191950596869">
        <ele>617.77999999999997</ele>
        <time>2014-05-25T07:54:18Z</time>
      </trkpt>
      <trkpt lat="45.853024441748857" lon="9.341889163479209">
        <ele>619.23000000000002</ele>
        <time>2014-05-25T07:54:31Z</time>
      </trkpt>
      <trkpt lat="45.853128042072058" lon="9.341935766860843">
        <ele>621.63</ele>
        <time>2014-05-25T07:54:44Z</time>
      </trkpt>
      <trkpt lat="45.853273300454021" lon="9.341990668326616">
        <ele>623.07000000000005</ele>
        <time>2014-05-25T07:54:58Z</time>
      </trkpt>
      <trkpt lat="45.853355526924133" lon="9.342031488195062">
        <ele>625.47000000000003</ele>
        <time>2014-05-25T07:55:12Z</time>
      </trkpt>
      <trkpt lat="45.853471281006932" lon="9.341980945318937">
        <ele>627.39999999999998</ele>
        <time>2014-05-25T07:55:27Z</time>
      </trkpt>
      <trkpt lat="45.853536492213607" lon="9.3418999761343">
        <ele>631.72000000000003</ele>
        <time>2014-05-25T07:55:42Z</time>
      </trkpt>
      <trkpt lat="45.853635482490063" lon="9.34185010381043">
        <ele>632.67999999999995</ele>
        <time>2014-05-25T07:55:58Z</time>
      </trkpt>
      <trkpt lat="45.853749141097069" lon="9.341835435479879">
        <ele>635.09000000000003</ele>
        <time>2014-05-25T07:56:12Z</time>
      </trkpt>
      <trkpt lat="45.853804377838969" lon="9.341805260628462">
        <ele>637.49000000000001</ele>
        <time>2014-05-25T07:56:26Z</time>
      </trkpt>
      <trkpt lat="45.853911498561502" lon="9.341766955330968">
        <ele>639.40999999999997</ele>
        <time>2014-05-25T07:56:43Z</time>
      </trkpt>
      <trkpt lat="45.854011997580528" lon="9.341705096885562">
        <ele>641.82000000000005</ele>
        <time>2014-05-25T07:56:58Z</time>
      </trkpt>
      <trkpt lat="45.854073856025934" lon="9.341649943962693">
        <ele>644.22000000000003</ele>
        <time>2014-05-25T07:57:12Z</time>
      </trkpt>
      <trkpt lat="45.85416354238987" lon="9.341636281460524">
        <ele>645.65999999999997</ele>
        <time>2014-05-25T07:57:26Z</time>
      </trkpt>
      <trkpt lat="45.854299832135439" lon="9.341624714434147">
        <ele>649.02999999999997</ele>
        <time>2014-05-25T07:57:43Z</time>
      </trkpt>
      <trkpt lat="45.854427320882678" lon="9.341574087738991">
        <ele>650.47000000000003</ele>
        <time>2014-05-25T07:57:59Z</time>
      </trkpt>
      <trkpt lat="45.854552797973156" lon="9.341610381379724">
        <ele>651.90999999999997</ele>
        <time>2014-05-25T07:58:13Z</time>
      </trkpt>
      <trkpt lat="45.85462337359786" lon="9.341621110215783">
        <ele>653.83000000000004</ele>
        <time>2014-05-25T07:58:27Z</time>
      </trkpt>
      <trkpt lat="45.854718675836921" lon="9.341631084680557">
        <ele>656.24000000000001</ele>
        <time>2014-05-25T07:58:43Z</time>
      </trkpt>
      <trkpt lat="45.854802913963795" lon="9.341655559837818">
        <ele>659.60000000000002</ele>
        <time>2014-05-25T07:58:59Z</time>
      </trkpt>
      <trkpt lat="45.854842392727733" lon="9.341634437441826">
        <ele>662.00999999999999</ele>
        <time>2014-05-25T07:59:13Z</time>
      </trkpt>
      <trkpt lat="45.854943478479981" lon="9.341627983376384">
        <ele>664.40999999999997</ele>
        <time>2014-05-25T07:59:28Z</time>
      </trkpt>
      <trkpt lat="45.855051353573799" lon="9.341619769111276">
        <ele>666.33000000000004</ele>
        <time>2014-05-25T07:59:43Z</time>
      </trkpt>
      <trkpt lat="45.855065686628222" lon="9.341616248711944">
        <ele>667.76999999999998</ele>
        <time>2014-05-25T07:59:45Z</time>
      </trkpt>
      <trkpt lat="45.855135172605515" lon="9.341674167662859">
        <ele>669.70000000000005</ele>
        <time>2014-05-25T08:00:00Z</time>
      </trkpt>
      <trkpt lat="45.855255955830216" lon="9.34171088039875">
        <ele>672.10000000000002</ele>
        <time>2014-05-25T08:00:16Z</time>
      </trkpt>
      <trkpt lat="45.855368440970778" lon="9.341740468516946">
        <ele>674.5</ele>
        <time>2014-05-25T08:00:32Z</time>
      </trkpt>
      <trkpt lat="45.855419905856252" lon="9.341735690832138">
        <ele>676.90999999999997</ele>
        <time>2014-05-25T08:00:46Z</time>
      </trkpt>
      <trkpt lat="45.855483943596482" lon="9.3417445756495">
        <ele>678.83000000000004</ele>
        <time>2014-05-25T08:01:00Z</time>
      </trkpt>
      <trkpt lat="45.855611935257912" lon="9.341795705258846">
        <ele>680.26999999999998</ele>
        <time>2014-05-25T08:01:17Z</time>
      </trkpt>
      <trkpt lat="45.855688797309995" lon="9.341814564540982">
        <ele>682.66999999999996</ele>
        <time>2014-05-25T08:01:31Z</time>
      </trkpt>
      <trkpt lat="45.855819722637534" lon="9.341882206499577">
        <ele>684.60000000000002</ele>
        <time>2014-05-25T08:01:45Z</time>
      </trkpt>
      <trkpt lat="45.855933129787445" lon="9.341946830973029">
        <ele>685.55999999999995</ele>
        <time>2014-05-25T08:01:59Z</time>
      </trkpt>
      <trkpt lat="45.856020217761397" lon="9.341925540938973">
        <ele>688.44000000000005</ele>
        <time>2014-05-25T08:02:15Z</time>
      </trkpt>
      <trkpt lat="45.856072604656219" lon="9.341925289481878">
        <ele>690.36000000000001</ele>
        <time>2014-05-25T08:02:28Z</time>
      </trkpt>
      <trkpt lat="45.856139240786433" lon="9.341834597289562">
        <ele>692.76999999999998</ele>
        <time>2014-05-25T08:02:42Z</time>
      </trkpt>
      <trkpt lat="45.856259437277913" lon="9.341844320297241">
        <ele>693.73000000000002</ele>
        <time>2014-05-25T08:02:56Z</time>
      </trkpt>
      <trkpt lat="45.856408216059208" lon="9.341898383572698">
        <ele>693.73000000000002</ele>
        <time>2014-05-25T08:03:11Z</time>
      </trkpt>
      <trkpt lat="45.856515169143677" lon="9.341894192621112">
        <ele>695.64999999999998</ele>
        <time>2014-05-25T08:03:26Z</time>
      </trkpt>
      <trkpt lat="45.856615081429482" lon="9.341911626979709">
        <ele>698.04999999999995</ele>
        <time>2014-05-25T08:03:41Z</time>
      </trkpt>
      <trkpt lat="45.856706444174051" lon="9.341940796002746">
        <ele>699.5</ele>
        <time>2014-05-25T08:03:57Z</time>
      </trkpt>
      <trkpt lat="45.856786491349339" lon="9.341946160420775">
        <ele>702.38</ele>
        <time>2014-05-25T08:04:14Z</time>
      </trkpt>
      <trkpt lat="45.856776600703597" lon="9.341951441019774">
        <ele>704.77999999999997</ele>
        <time>2014-05-25T08:04:30Z</time>
      </trkpt>
      <trkpt lat="45.85683980025351" lon="9.342014053836465">
        <ele>707.19000000000005</ele>
        <time>2014-05-25T08:04:45Z</time>
      </trkpt>
      <trkpt lat="45.856888750568032" lon="9.3420450668782">
        <ele>710.07000000000005</ele>
        <time>2014-05-25T08:05:03Z</time>
      </trkpt>
      <trkpt lat="45.856965696439147" lon="9.342086724936962">
        <ele>713.44000000000005</ele>
        <time>2014-05-25T08:05:20Z</time>
      </trkpt>
      <trkpt lat="45.85707189515233" lon="9.342017658054829">
        <ele>713.91999999999996</ele>
        <time>2014-05-25T08:05:36Z</time>
      </trkpt>
      <trkpt lat="45.857143811881542" lon="9.341949261724949">
        <ele>715.36000000000001</ele>
        <time>2014-05-25T08:05:53Z</time>
      </trkpt>
      <trkpt lat="45.857283705845475" lon="9.341880446299911">
        <ele>716.79999999999995</ele>
        <time>2014-05-25T08:06:08Z</time>
      </trkpt>
      <trkpt lat="45.857374398037791" lon="9.341793106868863">
        <ele>719.20000000000005</ele>
        <time>2014-05-25T08:06:26Z</time>
      </trkpt>
      <trkpt lat="45.857454109936953" lon="9.341752622276545">
        <ele>720.64999999999998</ele>
        <time>2014-05-25T08:06:40Z</time>
      </trkpt>
      <trkpt lat="45.857455283403397" lon="9.341741222888231">
        <ele>721.13</ele>
        <time>2014-05-25T08:07:10Z</time>
      </trkpt>
      <trkpt lat="45.8574188221246" lon="9.341771565377712">
        <ele>721.13</ele>
        <time>2014-05-25T08:07:37Z</time>
      </trkpt>
      <trkpt lat="45.8575380127877" lon="9.341737283393741">
        <ele>721.13</ele>
        <time>2014-05-25T08:07:58Z</time>
      </trkpt>
      <trkpt lat="45.857587130740285" lon="9.341680454090238">
        <ele>722.09000000000003</ele>
        <time>2014-05-25T08:08:14Z</time>
      </trkpt>
      <trkpt lat="45.857692323625088" lon="9.341664025560021">
        <ele>724.00999999999999</ele>
        <time>2014-05-25T08:08:28Z</time>
      </trkpt>
      <trkpt lat="45.85778527893126" lon="9.341596886515617">
        <ele>726.40999999999997</ele>
        <time>2014-05-25T08:08:45Z</time>
      </trkpt>
      <trkpt lat="45.857844958081841" lon="9.341523880138993">
        <ele>728.82000000000005</ele>
        <time>2014-05-25T08:09:01Z</time>
      </trkpt>
      <trkpt lat="45.857939757406712" lon="9.3415149115026">
        <ele>731.22000000000003</ele>
        <time>2014-05-25T08:09:16Z</time>
      </trkpt>
      <trkpt lat="45.858023324981332" lon="9.341485155746341">
        <ele>733.62</ele>
        <time>2014-05-25T08:09:32Z</time>
      </trkpt>
      <trkpt lat="45.85811560973525" lon="9.341441905125976">
        <ele>736.99000000000001</ele>
        <time>2014-05-25T08:09:48Z</time>
      </trkpt>
      <trkpt lat="45.858223149552941" lon="9.341455902904272">
        <ele>738.90999999999997</ele>
        <time>2014-05-25T08:10:04Z</time>
      </trkpt>
      <trkpt lat="45.858351476490498" lon="9.341448023915291">
        <ele>739.87</ele>
        <time>2014-05-25T08:10:18Z</time>
      </trkpt>
      <trkpt lat="45.858424650505185" lon="9.341421872377396">
        <ele>741.78999999999996</ele>
        <time>2014-05-25T08:10:36Z</time>
      </trkpt>
      <trkpt lat="45.85843856446445" lon="9.341407036408782">
        <ele>741.30999999999995</ele>
        <time>2014-05-25T08:11:05Z</time>
      </trkpt>
      <trkpt lat="45.858419202268124" lon="9.341445760801435">
        <ele>742.27999999999997</ele>
        <time>2014-05-25T08:11:37Z</time>
      </trkpt>
      <trkpt lat="45.858412748202682" lon="9.341433187946677">
        <ele>742.27999999999997</ele>
        <time>2014-05-25T08:12:00Z</time>
      </trkpt>
      <trkpt lat="45.858397493138909" lon="9.34145187959075">
        <ele>742.27999999999997</ele>
        <time>2014-05-25T08:12:18Z</time>
      </trkpt>
      <trkpt lat="45.858429931104183" lon="9.341479539871216">
        <ele>742.27999999999997</ele>
        <time>2014-05-25T08:12:29Z</time>
      </trkpt>
      <trkpt lat="45.858460022136569" lon="9.341467553749681">
        <ele>742.75999999999999</ele>
        <time>2014-05-25T08:12:43Z</time>
      </trkpt>
      <trkpt lat="45.858426745980978" lon="9.341491442173719">
        <ele>742.75999999999999</ele>
        <time>2014-05-25T08:13:04Z</time>
      </trkpt>
      <trkpt lat="45.858520874753594" lon="9.341535782441497">
        <ele>743.72000000000003</ele>
        <time>2014-05-25T08:13:17Z</time>
      </trkpt>
      <trkpt lat="45.8586310967803" lon="9.341558748856187">
        <ele>744.67999999999995</ele>
        <time>2014-05-25T08:13:32Z</time>
      </trkpt>
      <trkpt lat="45.858802674338222" lon="9.34168154373765">
        <ele>744.20000000000005</ele>
        <time>2014-05-25T08:13:50Z</time>
      </trkpt>
      <trkpt lat="45.858918931335211" lon="9.341716077178717">
        <ele>742.27999999999997</ele>
        <time>2014-05-25T08:14:05Z</time>
      </trkpt>
      <trkpt lat="45.859032338485122" lon="9.341818755492568">
        <ele>739.38999999999999</ele>
        <time>2014-05-25T08:14:20Z</time>
      </trkpt>
      <trkpt lat="45.859078438952565" lon="9.341809367761016">
        <ele>739.38999999999999</ele>
        <time>2014-05-25T08:14:26Z</time>
      </trkpt>
      <trkpt lat="45.859233755618334" lon="9.341773996129632">
        <ele>741.78999999999996</ele>
        <time>2014-05-25T08:14:44Z</time>
      </trkpt>
      <trkpt lat="45.859339199960232" lon="9.341720687225461">
        <ele>743.72000000000003</ele>
        <time>2014-05-25T08:15:02Z</time>
      </trkpt>
      <trkpt lat="45.859492169693112" lon="9.341715909540653">
        <ele>743.72000000000003</ele>
        <time>2014-05-25T08:15:19Z</time>
      </trkpt>
      <trkpt lat="45.859586214646697" lon="9.341675341129303">
        <ele>740.83000000000004</ele>
        <time>2014-05-25T08:15:34Z</time>
      </trkpt>
      <trkpt lat="45.859685875475407" lon="9.341610884293914">
        <ele>737.47000000000003</ele>
        <time>2014-05-25T08:15:48Z</time>
      </trkpt>
      <trkpt lat="45.85980087518692" lon="9.341555312275887">
        <ele>734.58000000000004</ele>
        <time>2014-05-25T08:16:02Z</time>
      </trkpt>
      <trkpt lat="45.859902128577232" lon="9.341448191553354">
        <ele>731.22000000000003</ele>
        <time>2014-05-25T08:16:17Z</time>
      </trkpt>
      <trkpt lat="45.859995502978563" lon="9.34131408110261">
        <ele>728.34000000000003</ele>
        <time>2014-05-25T08:16:32Z</time>
      </trkpt>
      <trkpt lat="45.860134642571211" lon="9.341264460235834">
        <ele>725.92999999999995</ele>
        <time>2014-05-25T08:16:45Z</time>
      </trkpt>
      <trkpt lat="45.860215947031975" lon="9.341365545988083">
        <ele>727.37</ele>
        <time>2014-05-25T08:17:00Z</time>
      </trkpt>
      <trkpt lat="45.860254084691405" lon="9.341396139934659">
        <ele>726.88999999999999</ele>
        <time>2014-05-25T08:17:17Z</time>
      </trkpt>
      <trkpt lat="45.86024503223598" lon="9.341445341706276">
        <ele>726.40999999999997</ele>
        <time>2014-05-25T08:17:33Z</time>
      </trkpt>
      <trkpt lat="45.860233465209603" lon="9.341470655053854">
        <ele>726.40999999999997</ele>
        <time>2014-05-25T08:17:59Z</time>
      </trkpt>
      <trkpt lat="45.860289037227631" lon="9.341418435797095">
        <ele>724.49000000000001</ele>
        <time>2014-05-25T08:18:21Z</time>
      </trkpt>
      <trkpt lat="45.860345363616943" lon="9.341472499072552">
        <ele>723.04999999999995</ele>
        <time>2014-05-25T08:18:34Z</time>
      </trkpt>
      <trkpt lat="45.860373442992568" lon="9.341555228456855">
        <ele>722.57000000000005</ele>
        <time>2014-05-25T08:18:47Z</time>
      </trkpt>
      <trkpt lat="45.860384171828628" lon="9.341554306447506">
        <ele>722.57000000000005</ele>
        <time>2014-05-25T08:19:12Z</time>
      </trkpt>
      <trkpt lat="45.86038232780993" lon="9.341523041948676">
        <ele>722.57000000000005</ele>
        <time>2014-05-25T08:19:27Z</time>
      </trkpt>
      <trkpt lat="45.860334299504757" lon="9.341502757743001">
        <ele>722.09000000000003</ele>
        <time>2014-05-25T08:19:44Z</time>
      </trkpt>
      <trkpt lat="45.860313763841987" lon="9.34140938334167">
        <ele>724.49000000000001</ele>
        <time>2014-05-25T08:20:00Z</time>
      </trkpt>
      <trkpt lat="45.86033589206636" lon="9.341468811035156">
        <ele>724.00999999999999</ele>
        <time>2014-05-25T08:20:16Z</time>
      </trkpt>
      <trkpt lat="45.860376544296741" lon="9.341427488252521">
        <ele>724.00999999999999</ele>
        <time>2014-05-25T08:20:47Z</time>
      </trkpt>
      <trkpt lat="45.860425997525454" lon="9.341440312564373">
        <ele>724.00999999999999</ele>
        <time>2014-05-25T08:21:21Z</time>
      </trkpt>
      <trkpt lat="45.860352907329798" lon="9.341509463265538">
        <ele>724.97000000000003</ele>
        <time>2014-05-25T08:21:54Z</time>
      </trkpt>
      <trkpt lat="45.860261712223291" lon="9.341516839340329">
        <ele>724.97000000000003</ele>
        <time>2014-05-25T08:22:13Z</time>
      </trkpt>
      <trkpt lat="45.860281158238649" lon="9.341560425236821">
        <ele>724.97000000000003</ele>
        <time>2014-05-25T08:22:30Z</time>
      </trkpt>
      <trkpt lat="45.860374700278044" lon="9.341597892343998">
        <ele>724.49000000000001</ele>
        <time>2014-05-25T08:22:49Z</time>
      </trkpt>
      <trkpt lat="45.860426081344485" lon="9.341705851256847">
        <ele>726.88999999999999</ele>
        <time>2014-05-25T08:23:06Z</time>
      </trkpt>
      <trkpt lat="45.86047469638288" lon="9.341816995292902">
        <ele>729.29999999999995</ele>
        <time>2014-05-25T08:23:20Z</time>
      </trkpt>
      <trkpt lat="45.860509146004915" lon="9.341834345832467">
        <ele>731.70000000000005</ele>
        <time>2014-05-25T08:23:35Z</time>
      </trkpt>
      <trkpt lat="45.860547954216599" lon="9.341769218444824">
        <ele>735.07000000000005</ele>
        <time>2014-05-25T08:23:48Z</time>
      </trkpt>
      <trkpt lat="45.860590115189552" lon="9.341716496273875">
        <ele>737.95000000000005</ele>
        <time>2014-05-25T08:24:03Z</time>
      </trkpt>
      <trkpt lat="45.860662199556828" lon="9.34171968139708">
        <ele>740.83000000000004</ele>
        <time>2014-05-25T08:24:16Z</time>
      </trkpt>
      <trkpt lat="45.8607067912817" lon="9.341812636703253">
        <ele>743.72000000000003</ele>
        <time>2014-05-25T08:24:29Z</time>
      </trkpt>
      <trkpt lat="45.860721962526441" lon="9.341918583959341">
        <ele>746.12</ele>
        <time>2014-05-25T08:24:42Z</time>
      </trkpt>
      <trkpt lat="45.860754484310746" lon="9.341984549537301">
        <ele>748.03999999999996</ele>
        <time>2014-05-25T08:24:58Z</time>
      </trkpt>
      <trkpt lat="45.860775271430612" lon="9.341965103521943">
        <ele>749.49000000000001</ele>
        <time>2014-05-25T08:25:14Z</time>
      </trkpt>
      <trkpt lat="45.860812067985535" lon="9.341946411877871">
        <ele>752.85000000000002</ele>
        <time>2014-05-25T08:25:27Z</time>
      </trkpt>
      <trkpt lat="45.860832100734115" lon="9.341897461563349">
        <ele>754.76999999999998</ele>
        <time>2014-05-25T08:25:41Z</time>
      </trkpt>
      <trkpt lat="45.860869903117418" lon="9.341934928670526">
        <ele>756.21000000000004</ele>
        <time>2014-05-25T08:25:52Z</time>
      </trkpt>
      <trkpt lat="45.86088222451508" lon="9.341865442693234">
        <ele>758.13999999999999</ele>
        <time>2014-05-25T08:26:05Z</time>
      </trkpt>
      <trkpt lat="45.860914159566164" lon="9.341848092153668">
        <ele>761.01999999999998</ele>
        <time>2014-05-25T08:26:19Z</time>
      </trkpt>
      <trkpt lat="45.860974844545126" lon="9.341949094086886">
        <ele>762.94000000000005</ele>
        <time>2014-05-25T08:26:34Z</time>
      </trkpt>
      <trkpt lat="45.861032344400883" lon="9.341987734660506">
        <ele>765.35000000000002</ele>
        <time>2014-05-25T08:26:50Z</time>
      </trkpt>
      <trkpt lat="45.861068721860647" lon="9.342036182060838">
        <ele>767.26999999999998</ele>
        <time>2014-05-25T08:27:02Z</time>
      </trkpt>
      <trkpt lat="45.861098812893033" lon="9.342027213424444">
        <ele>768.71000000000004</ele>
        <time>2014-05-25T08:27:15Z</time>
      </trkpt>
      <trkpt lat="45.861153127625585" lon="9.342067362740636">
        <ele>771.11000000000001</ele>
        <time>2014-05-25T08:27:31Z</time>
      </trkpt>
      <trkpt lat="45.861221440136433" lon="9.342080522328615">
        <ele>773.51999999999998</ele>
        <time>2014-05-25T08:27:50Z</time>
      </trkpt>
      <trkpt lat="45.861283969134092" lon="9.342153696343303">
        <ele>776.39999999999998</ele>
        <time>2014-05-25T08:28:06Z</time>
      </trkpt>
      <trkpt lat="45.861311294138432" lon="9.342177165672183">
        <ele>778.80999999999995</ele>
        <time>2014-05-25T08:28:23Z</time>
      </trkpt>
      <trkpt lat="45.861353958025575" lon="9.342220081016421">
        <ele>781.21000000000004</ele>
        <time>2014-05-25T08:28:36Z</time>
      </trkpt>
      <trkpt lat="45.861375834792852" lon="9.3422747310251">
        <ele>783.61000000000001</ele>
        <time>2014-05-25T08:28:51Z</time>
      </trkpt>
      <trkpt lat="45.861405003815889" lon="9.342351509258151">
        <ele>785.52999999999997</ele>
        <time>2014-05-25T08:29:06Z</time>
      </trkpt>
      <trkpt lat="45.861438615247607" lon="9.342419989407063">
        <ele>787.46000000000004</ele>
        <time>2014-05-25T08:29:21Z</time>
      </trkpt>
      <trkpt lat="45.861435011029243" lon="9.342403896152973">
        <ele>787.46000000000004</ele>
        <time>2014-05-25T08:29:45Z</time>
      </trkpt>
      <trkpt lat="45.861460994929075" lon="9.342452008277178">
        <ele>789.38</ele>
        <time>2014-05-25T08:30:02Z</time>
      </trkpt>
      <trkpt lat="45.861488152295351" lon="9.342512106522918">
        <ele>792.74000000000001</ele>
        <time>2014-05-25T08:30:14Z</time>
      </trkpt>
      <trkpt lat="45.861489661037922" lon="9.342529624700546">
        <ele>791.29999999999995</ele>
        <time>2014-05-25T08:30:33Z</time>
      </trkpt>
      <trkpt lat="45.861535174772143" lon="9.342607827857137">
        <ele>794.19000000000005</ele>
        <time>2014-05-25T08:30:46Z</time>
      </trkpt>
      <trkpt lat="45.861578844487667" lon="9.34268812648952">
        <ele>797.54999999999995</ele>
        <time>2014-05-25T08:31:00Z</time>
      </trkpt>
      <trkpt lat="45.861629052087665" lon="9.342746464535594">
        <ele>799.95000000000005</ele>
        <time>2014-05-25T08:31:15Z</time>
      </trkpt>
      <trkpt lat="45.861663334071636" lon="9.342730455100536">
        <ele>802.84000000000003</ele>
        <time>2014-05-25T08:31:31Z</time>
      </trkpt>
      <trkpt lat="45.861697113141418" lon="9.342725677415729">
        <ele>805.24000000000001</ele>
        <time>2014-05-25T08:31:44Z</time>
      </trkpt>
      <trkpt lat="45.861724857240915" lon="9.342710506170988">
        <ele>807.63999999999999</ele>
        <time>2014-05-25T08:31:57Z</time>
      </trkpt>
      <trkpt lat="45.861775651574135" lon="9.342826511710882">
        <ele>810.52999999999997</ele>
        <time>2014-05-25T08:32:11Z</time>
      </trkpt>
      <trkpt lat="45.86183650419116" lon="9.342907145619392">
        <ele>813.40999999999997</ele>
        <time>2014-05-25T08:32:27Z</time>
      </trkpt>
      <trkpt lat="45.861851256340742" lon="9.34295148588717">
        <ele>814.85000000000002</ele>
        <time>2014-05-25T08:32:40Z</time>
      </trkpt>
      <trkpt lat="45.861876402050257" lon="9.342987695708871">
        <ele>816.77999999999997</ele>
        <time>2014-05-25T08:32:53Z</time>
      </trkpt>
      <trkpt lat="45.861893249675632" lon="9.34303211979568">
        <ele>819.17999999999995</ele>
        <time>2014-05-25T08:33:06Z</time>
      </trkpt>
      <trkpt lat="45.861889226362109" lon="9.343025246635079">
        <ele>821.10000000000002</ele>
        <time>2014-05-25T08:33:20Z</time>
      </trkpt>
      <trkpt lat="45.861920490860939" lon="9.343065731227398">
        <ele>821.58000000000004</ele>
        <time>2014-05-25T08:33:39Z</time>
      </trkpt>
      <trkpt lat="45.861947732046247" lon="9.343077465891838">
        <ele>824.95000000000005</ele>
        <time>2014-05-25T08:34:00Z</time>
      </trkpt>
      <trkpt lat="45.86198310367763" lon="9.343044944107533">
        <ele>827.83000000000004</ele>
        <time>2014-05-25T08:34:10Z</time>
      </trkpt>
      <trkpt lat="45.861992910504341" lon="9.343065647408366">
        <ele>830.24000000000001</ele>
        <time>2014-05-25T08:34:24Z</time>
      </trkpt>
      <trkpt lat="45.862039178609848" lon="9.34310588054359">
        <ele>831.67999999999995</ele>
        <time>2014-05-25T08:34:40Z</time>
      </trkpt>
      <trkpt lat="45.8620485663414" lon="9.343113088980317">
        <ele>832.15999999999997</ele>
        <time>2014-05-25T08:34:42Z</time>
      </trkpt>
      <trkpt lat="45.862069269642234" lon="9.343120213598013">
        <ele>834.55999999999995</ele>
        <time>2014-05-25T08:34:58Z</time>
      </trkpt>
      <trkpt lat="45.862086620181799" lon="9.343165643513203">
        <ele>837.45000000000005</ele>
        <time>2014-05-25T08:35:11Z</time>
      </trkpt>
      <trkpt lat="45.862077819183469" lon="9.343271423131228">
        <ele>839.37</ele>
        <time>2014-05-25T08:35:26Z</time>
      </trkpt>
      <trkpt lat="45.862129535526037" lon="9.343265723437071">
        <ele>842.25</ele>
        <time>2014-05-25T08:35:41Z</time>
      </trkpt>
      <trkpt lat="45.862164236605167" lon="9.343307130038738">
        <ele>845.13999999999999</ele>
        <time>2014-05-25T08:35:51Z</time>
      </trkpt>
      <trkpt lat="45.862168176099658" lon="9.343437971547246">
        <ele>847.53999999999996</ele>
        <time>2014-05-25T08:36:06Z</time>
      </trkpt>
      <trkpt lat="45.862189969047904" lon="9.343402935191989">
        <ele>851.38</ele>
        <time>2014-05-25T08:36:18Z</time>
      </trkpt>
      <trkpt lat="45.862196255475283" lon="9.343393128365278">
        <ele>850.41999999999996</ele>
        <time>2014-05-25T08:36:19Z</time>
      </trkpt>
      <trkpt lat="45.862222407013178" lon="9.343383237719536">
        <ele>851.87</ele>
        <time>2014-05-25T08:36:23Z</time>
      </trkpt>
      <trkpt lat="45.862267250195146" lon="9.343423303216696">
        <ele>854.26999999999998</ele>
        <time>2014-05-25T08:36:36Z</time>
      </trkpt>
      <trkpt lat="45.862278314307332" lon="9.343488262966275">
        <ele>857.63</ele>
        <time>2014-05-25T08:36:50Z</time>
      </trkpt>
      <trkpt lat="45.862310249358416" lon="9.343490861356258">
        <ele>859.55999999999995</ele>
        <time>2014-05-25T08:37:04Z</time>
      </trkpt>
      <trkpt lat="45.862316954880953" lon="9.343490777537227">
        <ele>861.48000000000002</ele>
        <time>2014-05-25T08:37:20Z</time>
      </trkpt>
      <trkpt lat="45.86236028932035" lon="9.343500835821033">
        <ele>863.88</ele>
        <time>2014-05-25T08:37:31Z</time>
      </trkpt>
      <trkpt lat="45.86239255964756" lon="9.343506535515189">
        <ele>866.28999999999996</ele>
        <time>2014-05-25T08:37:45Z</time>
      </trkpt>
      <trkpt lat="45.862406305968761" lon="9.343492956832051">
        <ele>868.21000000000004</ele>
        <time>2014-05-25T08:38:02Z</time>
      </trkpt>
      <trkpt lat="45.862458860501647" lon="9.343470325693488">
        <ele>870.61000000000001</ele>
        <time>2014-05-25T08:38:16Z</time>
      </trkpt>
      <trkpt lat="45.862497920170426" lon="9.343521622940898">
        <ele>872.52999999999997</ele>
        <time>2014-05-25T08:38:30Z</time>
      </trkpt>
      <trkpt lat="45.862506553530693" lon="9.343571998178959">
        <ele>875.89999999999998</ele>
        <time>2014-05-25T08:38:42Z</time>
      </trkpt>
      <trkpt lat="45.862529687583447" lon="9.343646429479122">
        <ele>877.82000000000005</ele>
        <time>2014-05-25T08:38:57Z</time>
      </trkpt>
      <trkpt lat="45.862554581835866" lon="9.343635784462094">
        <ele>879.25999999999999</ele>
        <time>2014-05-25T08:39:15Z</time>
      </trkpt>
      <trkpt lat="45.862516527995467" lon="9.343660846352577">
        <ele>881.19000000000005</ele>
        <time>2014-05-25T08:39:34Z</time>
      </trkpt>
      <trkpt lat="45.862539913505316" lon="9.343681801110506">
        <ele>882.63</ele>
        <time>2014-05-25T08:39:49Z</time>
      </trkpt>
      <trkpt lat="45.862576123327017" lon="9.343739300966263">
        <ele>885.02999999999997</ele>
        <time>2014-05-25T08:40:02Z</time>
      </trkpt>
      <trkpt lat="45.862615015357733" lon="9.343766625970602">
        <ele>886.95000000000005</ele>
        <time>2014-05-25T08:40:18Z</time>
      </trkpt>
      <trkpt lat="45.862624403089285" lon="9.343833429738879">
        <ele>889.36000000000001</ele>
        <time>2014-05-25T08:40:31Z</time>
      </trkpt>
      <trkpt lat="45.862643262371421" lon="9.343886822462082">
        <ele>891.27999999999997</ele>
        <time>2014-05-25T08:40:44Z</time>
      </trkpt>
      <trkpt lat="45.862670503556728" lon="9.343930575996637">
        <ele>892.72000000000003</ele>
        <time>2014-05-25T08:40:57Z</time>
      </trkpt>
      <trkpt lat="45.862688524648547" lon="9.343902496621013">
        <ele>894.63999999999999</ele>
        <time>2014-05-25T08:41:10Z</time>
      </trkpt>
      <trkpt lat="45.862711407244205" lon="9.343921104446054">
        <ele>897.04999999999995</ele>
        <time>2014-05-25T08:41:26Z</time>
      </trkpt>
      <trkpt lat="45.862741330638528" lon="9.343981454148889">
        <ele>898.97000000000003</ele>
        <time>2014-05-25T08:41:40Z</time>
      </trkpt>
      <trkpt lat="45.862754909321666" lon="9.343998720869422">
        <ele>901.37</ele>
        <time>2014-05-25T08:41:56Z</time>
      </trkpt>
      <trkpt lat="45.862759100273252" lon="9.344062171876431">
        <ele>903.77999999999997</ele>
        <time>2014-05-25T08:42:11Z</time>
      </trkpt>
      <trkpt lat="45.862812995910645" lon="9.344035349786282">
        <ele>906.65999999999997</ele>
        <time>2014-05-25T08:42:30Z</time>
      </trkpt>
      <trkpt lat="45.862837638705969" lon="9.344096789136529">
        <ele>909.05999999999995</ele>
        <time>2014-05-25T08:42:46Z</time>
      </trkpt>
      <trkpt lat="45.862860018387437" lon="9.344089580699801">
        <ele>910.50999999999999</ele>
        <time>2014-05-25T08:42:58Z</time>
      </trkpt>
      <trkpt lat="45.862856917083263" lon="9.344154624268413">
        <ele>912.42999999999995</ele>
        <time>2014-05-25T08:43:13Z</time>
      </trkpt>
      <trkpt lat="45.862841075286269" lon="9.344189073890448">
        <ele>914.35000000000002</ele>
        <time>2014-05-25T08:43:30Z</time>
      </trkpt>
      <trkpt lat="45.862846942618489" lon="9.344192845746875">
        <ele>916.26999999999998</ele>
        <time>2014-05-25T08:43:45Z</time>
      </trkpt>
      <trkpt lat="45.86289195343852" lon="9.344186810776591">
        <ele>918.67999999999995</ele>
        <time>2014-05-25T08:44:00Z</time>
      </trkpt>
      <trkpt lat="45.862913662567735" lon="9.344227211549878">
        <ele>921.08000000000004</ele>
        <time>2014-05-25T08:44:17Z</time>
      </trkpt>
      <trkpt lat="45.862927995622158" lon="9.344235928729177">
        <ele>922.51999999999998</ele>
        <time>2014-05-25T08:44:39Z</time>
      </trkpt>
      <trkpt lat="45.863001924008131" lon="9.344267277047038">
        <ele>925.88999999999999</ele>
        <time>2014-05-25T08:44:54Z</time>
      </trkpt>
      <trkpt lat="45.863017430528998" lon="9.344300050288439">
        <ele>927.33000000000004</ele>
        <time>2014-05-25T08:45:07Z</time>
      </trkpt>
      <trkpt lat="45.863052634522319" lon="9.34435143135488">
        <ele>928.76999999999998</ele>
        <time>2014-05-25T08:45:17Z</time>
      </trkpt>
      <trkpt lat="45.863080210983753" lon="9.344408847391605">
        <ele>928.76999999999998</ele>
        <time>2014-05-25T08:45:30Z</time>
      </trkpt>
      <trkpt lat="45.863075349479914" lon="9.344367440789938">
        <ele>928.28999999999996</ele>
        <time>2014-05-25T08:45:48Z</time>
      </trkpt>
      <trkpt lat="45.863079959526658" lon="9.344356879591942">
        <ele>928.28999999999996</ele>
        <time>2014-05-25T08:46:06Z</time>
      </trkpt>
      <trkpt lat="45.863047605380416" lon="9.344366099685431">
        <ele>928.28999999999996</ele>
        <time>2014-05-25T08:46:22Z</time>
      </trkpt>
      <trkpt lat="45.863081468269229" lon="9.344417229294777">
        <ele>927.33000000000004</ele>
        <time>2014-05-25T08:46:40Z</time>
      </trkpt>
      <trkpt lat="45.863158497959375" lon="9.344395771622658">
        <ele>926.37</ele>
        <time>2014-05-25T08:46:56Z</time>
      </trkpt>
      <trkpt lat="45.86316947825253" lon="9.344412954524159">
        <ele>925.88999999999999</ele>
        <time>2014-05-25T08:47:11Z</time>
      </trkpt>
      <trkpt lat="45.86318900808692" lon="9.344438100233674">
        <ele>925.40999999999997</ele>
        <time>2014-05-25T08:47:28Z</time>
      </trkpt>
      <trkpt lat="45.863190516829491" lon="9.344448074698448">
        <ele>925.40999999999997</ele>
        <time>2014-05-25T08:47:52Z</time>
      </trkpt>
      <trkpt lat="45.863188169896603" lon="9.344462575390935">
        <ele>925.40999999999997</ele>
        <time>2014-05-25T08:48:12Z</time>
      </trkpt>
      <trkpt lat="45.863185236230493" lon="9.344449080526829">
        <ele>925.88999999999999</ele>
        <time>2014-05-25T08:48:38Z</time>
      </trkpt>
      <trkpt lat="45.863185487687588" lon="9.344412451609969">
        <ele>925.88999999999999</ele>
        <time>2014-05-25T08:49:05Z</time>
      </trkpt>
      <trkpt lat="45.863154893741012" lon="9.344439525157213">
        <ele>925.88999999999999</ele>
        <time>2014-05-25T08:49:29Z</time>
      </trkpt>
      <trkpt lat="45.863143829628825" lon="9.344427958130837">
        <ele>925.88999999999999</ele>
        <time>2014-05-25T08:49:55Z</time>
      </trkpt>
      <trkpt lat="45.863147769123316" lon="9.344396023079753">
        <ele>925.88999999999999</ele>
        <time>2014-05-25T08:50:19Z</time>
      </trkpt>
      <trkpt lat="45.863173333927989" lon="9.344391748309135">
        <ele>925.88999999999999</ele>
        <time>2014-05-25T08:50:39Z</time>
      </trkpt>
      <trkpt lat="45.863193618133664" lon="9.344362076371908">
        <ele>925.88999999999999</ele>
        <time>2014-05-25T08:50:59Z</time>
      </trkpt>
      <trkpt lat="45.863199988380075" lon="9.344422342255712">
        <ele>925.88999999999999</ele>
        <time>2014-05-25T08:51:16Z</time>
      </trkpt>
      <trkpt lat="45.863202502951026" lon="9.344445476308465">
        <ele>926.37</ele>
        <time>2014-05-25T08:51:39Z</time>
      </trkpt>
      <trkpt lat="45.863199736922979" lon="9.344440782442689">
        <ele>925.88999999999999</ele>
        <time>2014-05-25T08:51:54Z</time>
      </trkpt>
      <trkpt lat="45.86320367641747" lon="9.344436004757881">
        <ele>925.88999999999999</ele>
        <time>2014-05-25T08:52:13Z</time>
      </trkpt>
      <trkpt lat="45.863175094127655" lon="9.344443716108799">
        <ele>926.37</ele>
        <time>2014-05-25T08:52:31Z</time>
      </trkpt>
      <trkpt lat="45.863193366676569" lon="9.344450170174241">
        <ele>925.88999999999999</ele>
        <time>2014-05-25T08:52:53Z</time>
      </trkpt>
      <trkpt lat="45.86319730617106" lon="9.344460731372237">
        <ele>925.88999999999999</ele>
        <time>2014-05-25T08:53:15Z</time>
      </trkpt>
      <trkpt lat="45.863180458545685" lon="9.344459054991603">
        <ele>925.88999999999999</ele>
        <time>2014-05-25T08:53:34Z</time>
      </trkpt>
      <trkpt lat="45.863202922046185" lon="9.344442039728165">
        <ele>925.88999999999999</ele>
        <time>2014-05-25T08:53:51Z</time>
      </trkpt>
      <trkpt lat="45.863230414688587" lon="9.344411781057715">
        <ele>925.88999999999999</ele>
        <time>2014-05-25T08:53:59Z</time>
      </trkpt>
      <trkpt lat="45.863337200134993" lon="9.344449583441019">
        <ele>925.88999999999999</ele>
        <time>2014-05-25T08:54:15Z</time>
      </trkpt>
      <trkpt lat="45.863345498219132" lon="9.344448409974575">
        <ele>925.88999999999999</ele>
        <time>2014-05-25T08:54:17Z</time>
      </trkpt>
      <trkpt lat="45.863418504595757" lon="9.344477076083422">
        <ele>928.76999999999998</ele>
        <time>2014-05-25T08:54:28Z</time>
      </trkpt>
      <trkpt lat="45.863467203453183" lon="9.344512028619647">
        <ele>929.73000000000002</ele>
        <time>2014-05-25T08:54:39Z</time>
      </trkpt>
      <trkpt lat="45.863579772412777" lon="9.34456299059093">
        <ele>928.76999999999998</ele>
        <time>2014-05-25T08:54:52Z</time>
      </trkpt>
      <trkpt lat="45.8636131323874" lon="9.344561146572232">
        <ele>928.28999999999996</ele>
        <time>2014-05-25T08:54:56Z</time>
      </trkpt>
      <trkpt lat="45.863708015531301" lon="9.344560308381915">
        <ele>927.33000000000004</ele>
        <time>2014-05-25T08:55:10Z</time>
      </trkpt>
      <trkpt lat="45.863710194826126" lon="9.344565086066723">
        <ele>927.80999999999995</ele>
        <time>2014-05-25T08:55:15Z</time>
      </trkpt>
      <trkpt lat="45.86379149928689" lon="9.344567349180579">
        <ele>927.80999999999995</ele>
        <time>2014-05-25T08:55:22Z</time>
      </trkpt>
      <trkpt lat="45.863932985812426" lon="9.344593416899443">
        <ele>928.28999999999996</ele>
        <time>2014-05-25T08:55:36Z</time>
      </trkpt>
      <trkpt lat="45.864010769873857" lon="9.344581011682749">
        <ele>930.69000000000005</ele>
        <time>2014-05-25T08:55:50Z</time>
      </trkpt>
      <trkpt lat="45.864041112363338" lon="9.34460062533617">
        <ele>932.13999999999999</ele>
        <time>2014-05-25T08:56:03Z</time>
      </trkpt>
      <trkpt lat="45.864068688824773" lon="9.344645971432328">
        <ele>933.58000000000004</ele>
        <time>2014-05-25T08:56:09Z</time>
      </trkpt>
      <trkpt lat="45.864153597503901" lon="9.344739932566881">
        <ele>934.53999999999996</ele>
        <time>2014-05-25T08:56:24Z</time>
      </trkpt>
      <trkpt lat="45.864205397665501" lon="9.344793157652021">
        <ele>936.94000000000005</ele>
        <time>2014-05-25T08:56:40Z</time>
      </trkpt>
      <trkpt lat="45.864260885864496" lon="9.344834815710783">
        <ele>938.86000000000001</ele>
        <time>2014-05-25T08:56:52Z</time>
      </trkpt>
      <trkpt lat="45.864381417632103" lon="9.344824003055692">
        <ele>939.83000000000004</ele>
        <time>2014-05-25T08:57:06Z</time>
      </trkpt>
      <trkpt lat="45.864441683515906" lon="9.34484688565135">
        <ele>941.26999999999998</ele>
        <time>2014-05-25T08:57:19Z</time>
      </trkpt>
      <trkpt lat="45.864480156451464" lon="9.344848645851016">
        <ele>943.66999999999996</ele>
        <time>2014-05-25T08:57:32Z</time>
      </trkpt>
      <trkpt lat="45.864504715427756" lon="9.34491578489542">
        <ele>945.59000000000003</ele>
        <time>2014-05-25T08:57:45Z</time>
      </trkpt>
      <trkpt lat="45.864542098715901" lon="9.344922574236989">
        <ele>947.51999999999998</ele>
        <time>2014-05-25T08:57:57Z</time>
      </trkpt>
      <trkpt lat="45.864613931626081" lon="9.344906397163868">
        <ele>949.44000000000005</ele>
        <time>2014-05-25T08:58:09Z</time>
      </trkpt>
      <trkpt lat="45.864671263843775" lon="9.344934057444334">
        <ele>950.88</ele>
        <time>2014-05-25T08:58:22Z</time>
      </trkpt>
      <trkpt lat="45.864724069833755" lon="9.344944786280394">
        <ele>952.32000000000005</ele>
        <time>2014-05-25T08:58:36Z</time>
      </trkpt>
      <trkpt lat="45.864788442850113" lon="9.344954844564199">
        <ele>955.69000000000005</ele>
        <time>2014-05-25T08:58:49Z</time>
      </trkpt>
      <trkpt lat="45.864861784502864" lon="9.344972195103765">
        <ele>958.57000000000005</ele>
        <time>2014-05-25T08:59:03Z</time>
      </trkpt>
      <trkpt lat="45.864930432289839" lon="9.345019217580557">
        <ele>961.46000000000004</ele>
        <time>2014-05-25T08:59:16Z</time>
      </trkpt>
      <trkpt lat="45.864941580221057" lon="9.344964483752847">
        <ele>964.34000000000003</ele>
        <time>2014-05-25T08:59:27Z</time>
      </trkpt>
      <trkpt lat="45.864949794486165" lon="9.344986863434315">
        <ele>965.77999999999997</ele>
        <time>2014-05-25T08:59:39Z</time>
      </trkpt>
      <trkpt lat="45.864925906062126" lon="9.344962136819959">
        <ele>967.22000000000003</ele>
        <time>2014-05-25T08:59:57Z</time>
      </trkpt>
      <trkpt lat="45.864964127540588" lon="9.344914946705103">
        <ele>970.11000000000001</ele>
        <time>2014-05-25T09:00:08Z</time>
      </trkpt>
      <trkpt lat="45.865011317655444" lon="9.344936069101095">
        <ele>973.47000000000003</ele>
        <time>2014-05-25T09:00:19Z</time>
      </trkpt>
      <trkpt lat="45.865045180544257" lon="9.344924837350845">
        <ele>977.79999999999995</ele>
        <time>2014-05-25T09:00:32Z</time>
      </trkpt>
      <trkpt lat="45.865045767277479" lon="9.344921484589577">
        <ele>976.84000000000003</ele>
        <time>2014-05-25T09:00:33Z</time>
      </trkpt>
      <trkpt lat="45.865120282396674" lon="9.344885945320129">
        <ele>979.72000000000003</ele>
        <time>2014-05-25T09:00:48Z</time>
      </trkpt>
      <trkpt lat="45.865176524966955" lon="9.344893153756857">
        <ele>982.60000000000002</ele>
        <time>2014-05-25T09:01:01Z</time>
      </trkpt>
      <trkpt lat="45.865230672061443" lon="9.344888459891081">
        <ele>985.49000000000001</ele>
        <time>2014-05-25T09:01:15Z</time>
      </trkpt>
      <trkpt lat="45.865273168310523" lon="9.344930620864034">
        <ele>987.88999999999999</ele>
        <time>2014-05-25T09:01:28Z</time>
      </trkpt>
      <trkpt lat="45.865289764478803" lon="9.344897931441665">
        <ele>990.29999999999995</ele>
        <time>2014-05-25T09:01:42Z</time>
      </trkpt>
      <trkpt lat="45.865324297919869" lon="9.344868594780564">
        <ele>992.22000000000003</ele>
        <time>2014-05-25T09:01:53Z</time>
      </trkpt>
      <trkpt lat="45.865353550761938" lon="9.344831882044673">
        <ele>995.58000000000004</ele>
        <time>2014-05-25T09:02:06Z</time>
      </trkpt>
      <trkpt lat="45.865417756140232" lon="9.344852920621634">
        <ele>998.95000000000005</ele>
        <time>2014-05-25T09:02:21Z</time>
      </trkpt>
      <trkpt lat="45.865447176620364" lon="9.344901368021965">
        <ele>1000.39</ele>
        <time>2014-05-25T09:02:32Z</time>
      </trkpt>
      <trkpt lat="45.865450026467443" lon="9.344963058829308">
        <ele>1002.79</ele>
        <time>2014-05-25T09:02:44Z</time>
      </trkpt>
      <trkpt lat="45.865454720333219" lon="9.345029443502426">
        <ele>1004.72</ele>
        <time>2014-05-25T09:02:56Z</time>
      </trkpt>
      <trkpt lat="45.865468131378293" lon="9.345048889517784">
        <ele>1006.64</ele>
        <time>2014-05-25T09:03:15Z</time>
      </trkpt>
      <trkpt lat="45.865485733374953" lon="9.345058863982558">
        <ele>1007.12</ele>
        <time>2014-05-25T09:03:32Z</time>
      </trkpt>
      <trkpt lat="45.865478105843067" lon="9.345016619190574">
        <ele>1010</ele>
        <time>2014-05-25T09:03:45Z</time>
      </trkpt>
      <trkpt lat="45.865487661212683" lon="9.344982421025634">
        <ele>1010.48</ele>
        <time>2014-05-25T09:03:59Z</time>
      </trkpt>
      <trkpt lat="45.865509621798992" lon="9.344951994717121">
        <ele>1010.48</ele>
        <time>2014-05-25T09:04:13Z</time>
      </trkpt>
      <trkpt lat="45.865518255159259" lon="9.344959622249007">
        <ele>1010</ele>
        <time>2014-05-25T09:04:32Z</time>
      </trkpt>
      <trkpt lat="45.865545831620693" lon="9.344964483752847">
        <ele>1011.4400000000001</ele>
        <time>2014-05-25T09:04:49Z</time>
      </trkpt>
      <trkpt lat="45.865578101947904" lon="9.344959370791912">
        <ele>1014.33</ele>
        <time>2014-05-25T09:05:00Z</time>
      </trkpt>
      <trkpt lat="45.865605594590306" lon="9.345005555078387">
        <ele>1017.21</ele>
        <time>2014-05-25T09:05:12Z</time>
      </trkpt>
      <trkpt lat="45.865620682016015" lon="9.345032041892409">
        <ele>1020.1</ele>
        <time>2014-05-25T09:05:23Z</time>
      </trkpt>
      <trkpt lat="45.865646414458752" lon="9.345074035227299">
        <ele>1022.5</ele>
        <time>2014-05-25T09:05:35Z</time>
      </trkpt>
      <trkpt lat="45.865695113316178" lon="9.345047967508435">
        <ele>1025.8599999999999</ele>
        <time>2014-05-25T09:05:50Z</time>
      </trkpt>
      <trkpt lat="45.865723695605993" lon="9.345003962516785">
        <ele>1028.27</ele>
        <time>2014-05-25T09:06:03Z</time>
      </trkpt>
      <trkpt lat="45.865761833265424" lon="9.345055595040321">
        <ele>1031.1500000000001</ele>
        <time>2014-05-25T09:06:16Z</time>
      </trkpt>
      <trkpt lat="45.865799635648727" lon="9.345041429623961">
        <ele>1033.0699999999999</ele>
        <time>2014-05-25T09:06:28Z</time>
      </trkpt>
      <trkpt lat="45.865841209888458" lon="9.345007985830307">
        <ele>1035.48</ele>
        <time>2014-05-25T09:06:40Z</time>
      </trkpt>
      <trkpt lat="45.865903655067086" lon="9.344985522329807">
        <ele>1037.8800000000001</ele>
        <time>2014-05-25T09:06:54Z</time>
      </trkpt>
      <trkpt lat="45.8659478276968" lon="9.344950821250677">
        <ele>1040.28</ele>
        <time>2014-05-25T09:07:06Z</time>
      </trkpt>
      <trkpt lat="45.865962328389287" lon="9.344997927546501">
        <ele>1042.6900000000001</ele>
        <time>2014-05-25T09:07:18Z</time>
      </trkpt>
      <trkpt lat="45.865971129387617" lon="9.344939505681396">
        <ele>1045.0899999999999</ele>
        <time>2014-05-25T09:07:32Z</time>
      </trkpt>
      <trkpt lat="45.866016978397965" lon="9.344868510961533">
        <ele>1047.49</ele>
        <time>2014-05-25T09:07:44Z</time>
      </trkpt>
      <trkpt lat="45.866072047501802" lon="9.344891393557191">
        <ele>1050.3800000000001</ele>
        <time>2014-05-25T09:07:56Z</time>
      </trkpt>
      <trkpt lat="45.866061402484775" lon="9.344944870099425">
        <ele>1051.3399999999999</ele>
        <time>2014-05-25T09:08:07Z</time>
      </trkpt>
      <trkpt lat="45.86604849435389" lon="9.344988791272044">
        <ele>1052.3</ele>
        <time>2014-05-25T09:08:28Z</time>
      </trkpt>
      <trkpt lat="45.866066431626678" lon="9.345057439059019">
        <ele>1053.26</ele>
        <time>2014-05-25T09:08:45Z</time>
      </trkpt>
      <trkpt lat="45.866119991987944" lon="9.345040339976549">
        <ele>1056.6300000000001</ele>
        <time>2014-05-25T09:08:57Z</time>
      </trkpt>
      <trkpt lat="45.866165505722165" lon="9.345020391047001">
        <ele>1059.51</ele>
        <time>2014-05-25T09:09:07Z</time>
      </trkpt>
      <trkpt lat="45.86616282351315" lon="9.345144694671035">
        <ele>1062.3900000000001</ele>
        <time>2014-05-25T09:09:21Z</time>
      </trkpt>
      <trkpt lat="45.866214456036687" lon="9.345106054097414">
        <ele>1064.8</ele>
        <time>2014-05-25T09:09:35Z</time>
      </trkpt>
      <trkpt lat="45.866272207349539" lon="9.345122817903757">
        <ele>1067.6800000000001</ele>
        <time>2014-05-25T09:09:51Z</time>
      </trkpt>
      <trkpt lat="45.866303220391273" lon="9.344982001930475">
        <ele>1068.1600000000001</ele>
        <time>2014-05-25T09:10:14Z</time>
      </trkpt>
      <trkpt lat="45.866277907043695" lon="9.345035729929805">
        <ele>1068.1600000000001</ele>
        <time>2014-05-25T09:10:39Z</time>
      </trkpt>
      <trkpt lat="45.866278242319822" lon="9.34505014680326">
        <ele>1068.1600000000001</ele>
        <time>2014-05-25T09:11:08Z</time>
      </trkpt>
      <trkpt lat="45.866313446313143" lon="9.345003878697753">
        <ele>1071.05</ele>
        <time>2014-05-25T09:11:20Z</time>
      </trkpt>
      <trkpt lat="45.866338256746531" lon="9.345019636675715">
        <ele>1073.45</ele>
        <time>2014-05-25T09:11:31Z</time>
      </trkpt>
      <trkpt lat="45.866419980302453" lon="9.344948893412948">
        <ele>1076.8099999999999</ele>
        <time>2014-05-25T09:11:48Z</time>
      </trkpt>
      <trkpt lat="45.866458034142852" lon="9.344833809882402">
        <ele>1079.22</ele>
        <time>2014-05-25T09:12:03Z</time>
      </trkpt>
      <trkpt lat="45.866460716351867" lon="9.344709757715464">
        <ele>1081.6199999999999</ele>
        <time>2014-05-25T09:12:18Z</time>
      </trkpt>
      <trkpt lat="45.86646281182766" lon="9.34462551958859">
        <ele>1083.54</ele>
        <time>2014-05-25T09:12:31Z</time>
      </trkpt>
      <trkpt lat="45.866476390510798" lon="9.344610264524818">
        <ele>1086.4300000000001</ele>
        <time>2014-05-25T09:12:39Z</time>
      </trkpt>
      <trkpt lat="45.86648577824235" lon="9.344591489061713">
        <ele>1085.95</ele>
        <time>2014-05-25T09:12:43Z</time>
      </trkpt>
      <trkpt lat="45.866523580625653" lon="9.344568774104118">
        <ele>1087.3900000000001</ele>
        <time>2014-05-25T09:12:55Z</time>
      </trkpt>
      <trkpt lat="45.866562472656369" lon="9.34464018791914">
        <ele>1090.75</ele>
        <time>2014-05-25T09:13:07Z</time>
      </trkpt>
      <trkpt lat="45.866593820974231" lon="9.344652257859707">
        <ele>1091.71</ele>
        <time>2014-05-25T09:13:20Z</time>
      </trkpt>
      <trkpt lat="45.866605052724481" lon="9.344683103263378">
        <ele>1094.5999999999999</ele>
        <time>2014-05-25T09:13:33Z</time>
      </trkpt>
      <trkpt lat="45.866667330265045" lon="9.344759294763207">
        <ele>1097</ele>
        <time>2014-05-25T09:13:46Z</time>
      </trkpt>
      <trkpt lat="45.866650063544512" lon="9.344688719138503">
        <ele>1098.9200000000001</ele>
        <time>2014-05-25T09:14:01Z</time>
      </trkpt>
      <trkpt lat="45.866632461547852" lon="9.344635242596269">
        <ele>1101.3299999999999</ele>
        <time>2014-05-25T09:14:12Z</time>
      </trkpt>
      <trkpt lat="45.866681411862373" lon="9.344635494053364">
        <ele>1103.73</ele>
        <time>2014-05-25T09:14:25Z</time>
      </trkpt>
      <trkpt lat="45.866698091849685" lon="9.344587130472064">
        <ele>1106.1300000000001</ele>
        <time>2014-05-25T09:14:37Z</time>
      </trkpt>
      <trkpt lat="45.866693062707782" lon="9.344552848488092">
        <ele>1107.5799999999999</ele>
        <time>2014-05-25T09:14:40Z</time>
      </trkpt>
      <trkpt lat="45.866711921989918" lon="9.344520578160882">
        <ele>1107.0999999999999</ele>
        <time>2014-05-25T09:14:45Z</time>
      </trkpt>
      <trkpt lat="45.866787694394588" lon="9.344593416899443">
        <ele>1109.98</ele>
        <time>2014-05-25T09:14:58Z</time>
      </trkpt>
      <trkpt lat="45.866791130974889" lon="9.344527367502451">
        <ele>1112.8599999999999</ele>
        <time>2014-05-25T09:15:11Z</time>
      </trkpt>
      <trkpt lat="45.866806302219629" lon="9.344426700845361">
        <ele>1114.3099999999999</ele>
        <time>2014-05-25T09:15:23Z</time>
      </trkpt>
      <trkpt lat="45.866844104602933" lon="9.344458468258381">
        <ele>1117.1900000000001</ele>
        <time>2014-05-25T09:15:38Z</time>
      </trkpt>
      <trkpt lat="45.866872519254684" lon="9.344504484906793">
        <ele>1119.1099999999999</ele>
        <time>2014-05-25T09:15:51Z</time>
      </trkpt>
      <trkpt lat="45.866933036595583" lon="9.3445766530931">
        <ele>1121.52</ele>
        <time>2014-05-25T09:16:05Z</time>
      </trkpt>
      <trkpt lat="45.866987854242325" lon="9.344563409686089">
        <ele>1123.9200000000001</ele>
        <time>2014-05-25T09:16:18Z</time>
      </trkpt>
      <trkpt lat="45.866977209225297" lon="9.344631303101778">
        <ele>1125.8399999999999</ele>
        <time>2014-05-25T09:16:31Z</time>
      </trkpt>
      <trkpt lat="45.867012077942491" lon="9.344668015837669">
        <ele>1129.6900000000001</ele>
        <time>2014-05-25T09:16:41Z</time>
      </trkpt>
      <trkpt lat="45.867016604170203" lon="9.344667848199606">
        <ele>1130.1700000000001</ele>
        <time>2014-05-25T09:16:42Z</time>
      </trkpt>
      <trkpt lat="45.867071086540818" lon="9.344759043306112">
        <ele>1133.05</ele>
        <time>2014-05-25T09:16:57Z</time>
      </trkpt>
      <trkpt lat="45.867099165916443" lon="9.344762396067381">
        <ele>1135.45</ele>
        <time>2014-05-25T09:17:03Z</time>
      </trkpt>
      <trkpt lat="45.867166221141815" lon="9.344761138781905">
        <ele>1136.9000000000001</ele>
        <time>2014-05-25T09:17:14Z</time>
      </trkpt>
      <trkpt lat="45.867219781503081" lon="9.344805479049683">
        <ele>1138.8199999999999</ele>
        <time>2014-05-25T09:17:27Z</time>
      </trkpt>
      <trkpt lat="45.867263283580542" lon="9.34483858756721">
        <ele>1140.26</ele>
        <time>2014-05-25T09:17:42Z</time>
      </trkpt>
      <trkpt lat="45.867274012416601" lon="9.344884436577559">
        <ele>1140.26</ele>
        <time>2014-05-25T09:17:52Z</time>
      </trkpt>
      <trkpt lat="45.867257919162512" lon="9.344916706904769">
        <ele>1140.26</ele>
        <time>2014-05-25T09:18:16Z</time>
      </trkpt>
      <trkpt lat="45.867255991324782" lon="9.34493338689208">
        <ele>1140.26</ele>
        <time>2014-05-25T09:18:51Z</time>
      </trkpt>
      <trkpt lat="45.867266384884715" lon="9.344934895634651">
        <ele>1140.26</ele>
        <time>2014-05-25T09:19:22Z</time>
      </trkpt>
      <trkpt lat="45.867250123992562" lon="9.344939924776554">
        <ele>1140.26</ele>
        <time>2014-05-25T09:19:59Z</time>
      </trkpt>
      <trkpt lat="45.867259679362178" lon="9.344935482367873">
        <ele>1140.26</ele>
        <time>2014-05-25T09:20:34Z</time>
      </trkpt>
      <trkpt lat="45.867257416248322" lon="9.344901787117124">
        <ele>1140.26</ele>
        <time>2014-05-25T09:20:58Z</time>
      </trkpt>
      <trkpt lat="45.86726127192378" lon="9.344885526224971">
        <ele>1140.26</ele>
        <time>2014-05-25T09:21:31Z</time>
      </trkpt>
      <trkpt lat="45.867253392934799" lon="9.344904972240329">
        <ele>1140.74</ele>
        <time>2014-05-25T09:22:04Z</time>
      </trkpt>
      <trkpt lat="45.867252135649323" lon="9.34492165222764">
        <ele>1141.22</ele>
        <time>2014-05-25T09:22:34Z</time>
      </trkpt>
      <trkpt lat="45.867249704897404" lon="9.34491771273315">
        <ele>1141.7</ele>
        <time>2014-05-25T09:23:18Z</time>
      </trkpt>
      <trkpt lat="45.867234785109758" lon="9.344913857057691">
        <ele>1141.22</ele>
        <time>2014-05-25T09:24:06Z</time>
      </trkpt>
      <trkpt lat="45.86725490167737" lon="9.344918550923467">
        <ele>1141.7</ele>
        <time>2014-05-25T09:24:32Z</time>
      </trkpt>
      <trkpt lat="45.867253141477704" lon="9.344910252839327">
        <ele>1142.1800000000001</ele>
        <time>2014-05-25T09:24:55Z</time>
      </trkpt>
      <trkpt lat="45.867252973839641" lon="9.34492995031178">
        <ele>1142.1800000000001</ele>
        <time>2014-05-25T09:25:16Z</time>
      </trkpt>
      <trkpt lat="45.867257164791226" lon="9.344905558973551">
        <ele>1142.1800000000001</ele>
        <time>2014-05-25T09:25:49Z</time>
      </trkpt>
      <trkpt lat="45.867247777059674" lon="9.344911174848676">
        <ele>1142.1800000000001</ele>
        <time>2014-05-25T09:26:22Z</time>
      </trkpt>
      <trkpt lat="45.86723830550909" lon="9.344906564801931">
        <ele>1142.1800000000001</ele>
        <time>2014-05-25T09:26:53Z</time>
      </trkpt>
      <trkpt lat="45.867266803979874" lon="9.344935733824968">
        <ele>1142.1800000000001</ele>
        <time>2014-05-25T09:27:16Z</time>
      </trkpt>
      <trkpt lat="45.867267977446318" lon="9.344932632520795">
        <ele>1142.1800000000001</ele>
        <time>2014-05-25T09:27:50Z</time>
      </trkpt>
      <trkpt lat="45.867273258045316" lon="9.344929531216621">
        <ele>1142.1800000000001</ele>
        <time>2014-05-25T09:28:19Z</time>
      </trkpt>
      <trkpt lat="45.867272587493062" lon="9.344946043565869">
        <ele>1142.6600000000001</ele>
        <time>2014-05-25T09:28:51Z</time>
      </trkpt>
      <trkpt lat="45.867261607199907" lon="9.344939170405269">
        <ele>1142.1800000000001</ele>
        <time>2014-05-25T09:29:39Z</time>
      </trkpt>
      <trkpt lat="45.867263786494732" lon="9.344928022474051">
        <ele>1142.6600000000001</ele>
        <time>2014-05-25T09:30:27Z</time>
      </trkpt>
      <trkpt lat="45.86726420558989" lon="9.344949899241328">
        <ele>1142.1800000000001</ele>
        <time>2014-05-25T09:31:13Z</time>
      </trkpt>
      <trkpt lat="45.867265714332461" lon="9.344933470711112">
        <ele>1142.6600000000001</ele>
        <time>2014-05-25T09:32:04Z</time>
      </trkpt>
      <trkpt lat="45.867266468703747" lon="9.344935985282064">
        <ele>1142.6600000000001</ele>
        <time>2014-05-25T09:32:55Z</time>
      </trkpt>
      <trkpt lat="45.867265881970525" lon="9.344933889806271">
        <ele>1142.6600000000001</ele>
        <time>2014-05-25T09:33:34Z</time>
      </trkpt>
      <trkpt lat="45.867264959961176" lon="9.344950234517455">
        <ele>1142.6600000000001</ele>
        <time>2014-05-25T09:34:10Z</time>
      </trkpt>
      <trkpt lat="45.867267139256001" lon="9.344932045787573">
        <ele>1143.1400000000001</ele>
        <time>2014-05-25T09:34:49Z</time>
      </trkpt>
      <trkpt lat="45.86726319976151" lon="9.344935985282064">
        <ele>1143.1400000000001</ele>
        <time>2014-05-25T09:35:18Z</time>
      </trkpt>
      <trkpt lat="45.867243502289057" lon="9.344899607822299">
        <ele>1143.1400000000001</ele>
        <time>2014-05-25T09:35:47Z</time>
      </trkpt>
      <trkpt lat="45.8672378025949" lon="9.344911426305771">
        <ele>1143.1400000000001</ele>
        <time>2014-05-25T09:36:14Z</time>
      </trkpt>
      <trkpt lat="45.867223050445318" lon="9.344880664721131">
        <ele>1143.6300000000001</ele>
        <time>2014-05-25T09:36:40Z</time>
      </trkpt>
      <trkpt lat="45.867245346307755" lon="9.344913689419627">
        <ele>1143.6300000000001</ele>
        <time>2014-05-25T09:37:06Z</time>
      </trkpt>
      <trkpt lat="45.867259092628956" lon="9.344918970018625">
        <ele>1143.6300000000001</ele>
        <time>2014-05-25T09:37:33Z</time>
      </trkpt>
      <trkpt lat="45.867253476753831" lon="9.344930872321129">
        <ele>1143.6300000000001</ele>
        <time>2014-05-25T09:38:02Z</time>
      </trkpt>
      <trkpt lat="45.867240820080042" lon="9.344917293637991">
        <ele>1144.1099999999999</ele>
        <time>2014-05-25T09:38:35Z</time>
      </trkpt>
      <trkpt lat="45.867235288023949" lon="9.344885945320129">
        <ele>1144.1099999999999</ele>
        <time>2014-05-25T09:39:01Z</time>
      </trkpt>
      <trkpt lat="45.867245681583881" lon="9.344895500689745">
        <ele>1144.1099999999999</ele>
        <time>2014-05-25T09:39:25Z</time>
      </trkpt>
      <trkpt lat="45.867240065708756" lon="9.344899859279394">
        <ele>1144.1099999999999</ele>
        <time>2014-05-25T09:39:46Z</time>
      </trkpt>
      <trkpt lat="45.867250626906753" lon="9.344912599772215">
        <ele>1145.0699999999999</ele>
        <time>2014-05-25T09:39:55Z</time>
      </trkpt>
      <trkpt lat="45.867257416248322" lon="9.344851328060031">
        <ele>1144.5899999999999</ele>
        <time>2014-05-25T09:40:07Z</time>
      </trkpt>
      <trkpt lat="45.867257248610258" lon="9.344892567023635">
        <ele>1144.5899999999999</ele>
        <time>2014-05-25T09:40:20Z</time>
      </trkpt>
      <trkpt lat="45.867256410419941" lon="9.344898769631982">
        <ele>1144.5899999999999</ele>
        <time>2014-05-25T09:40:36Z</time>
      </trkpt>
      <trkpt lat="45.867252722382545" lon="9.344890220090747">
        <ele>1144.1099999999999</ele>
        <time>2014-05-25T09:40:55Z</time>
      </trkpt>
      <trkpt lat="45.867260433733463" lon="9.344856608659029">
        <ele>1145.0699999999999</ele>
        <time>2014-05-25T09:41:16Z</time>
      </trkpt>
      <trkpt lat="45.867232689633965" lon="9.344849903136492">
        <ele>1144.5899999999999</ele>
        <time>2014-05-25T09:41:43Z</time>
      </trkpt>
      <trkpt lat="45.867242747917771" lon="9.344750074669719">
        <ele>1145.55</ele>
        <time>2014-05-25T09:41:58Z</time>
      </trkpt>
      <trkpt lat="45.867256745696068" lon="9.344711015000939">
        <ele>1146.99</ele>
        <time>2014-05-25T09:42:13Z</time>
      </trkpt>
      <trkpt lat="45.86727736517787" lon="9.344630213454366">
        <ele>1149.8699999999999</ele>
        <time>2014-05-25T09:42:28Z</time>
      </trkpt>
      <trkpt lat="45.867279376834631" lon="9.34453122317791">
        <ele>1152.76</ele>
        <time>2014-05-25T09:42:43Z</time>
      </trkpt>
      <trkpt lat="45.867277616634965" lon="9.344483949244022">
        <ele>1154.6800000000001</ele>
        <time>2014-05-25T09:42:54Z</time>
      </trkpt>
      <trkpt lat="45.867258841171861" lon="9.344411864876747">
        <ele>1157.5599999999999</ele>
        <time>2014-05-25T09:43:09Z</time>
      </trkpt>
      <trkpt lat="45.867205029353499" lon="9.344351263716817">
        <ele>1160.45</ele>
        <time>2014-05-25T09:43:24Z</time>
      </trkpt>
      <trkpt lat="45.867205113172531" lon="9.34431673027575">
        <ele>1163.3299999999999</ele>
        <time>2014-05-25T09:43:37Z</time>
      </trkpt>
      <trkpt lat="45.867203772068024" lon="9.344249926507473">
        <ele>1165.74</ele>
        <time>2014-05-25T09:43:49Z</time>
      </trkpt>
      <trkpt lat="45.867189606651664" lon="9.34424833394587">
        <ele>1166.22</ele>
        <time>2014-05-25T09:43:52Z</time>
      </trkpt>
      <trkpt lat="45.867156079038978" lon="9.344214890152216">
        <ele>1169.0999999999999</ele>
        <time>2014-05-25T09:44:07Z</time>
      </trkpt>
      <trkpt lat="45.867151888087392" lon="9.344135010614991">
        <ele>1171.02</ele>
        <time>2014-05-25T09:44:19Z</time>
      </trkpt>
      <trkpt lat="45.867137974128127" lon="9.34411539696157">
        <ele>1171.98</ele>
        <time>2014-05-25T09:44:23Z</time>
      </trkpt>
      <trkpt lat="45.867090867832303" lon="9.344042977318168">
        <ele>1174.8699999999999</ele>
        <time>2014-05-25T09:44:37Z</time>
      </trkpt>
      <trkpt lat="45.867078378796577" lon="9.343962678685784">
        <ele>1177.27</ele>
        <time>2014-05-25T09:44:52Z</time>
      </trkpt>
      <trkpt lat="45.867092041298747" lon="9.343919763341546">
        <ele>1180.1600000000001</ele>
        <time>2014-05-25T09:45:04Z</time>
      </trkpt>
      <trkpt lat="45.867053903639317" lon="9.343889504671097">
        <ele>1182.5599999999999</ele>
        <time>2014-05-25T09:45:15Z</time>
      </trkpt>
      <trkpt lat="45.867044599726796" lon="9.343875087797642">
        <ele>1183.04</ele>
        <time>2014-05-25T09:45:17Z</time>
      </trkpt>
      <trkpt lat="45.867078965529799" lon="9.343777690082789">
        <ele>1185.4400000000001</ele>
        <time>2014-05-25T09:45:29Z</time>
      </trkpt>
      <trkpt lat="45.867035882547498" lon="9.343712395057082">
        <ele>1187.3699999999999</ele>
        <time>2014-05-25T09:45:40Z</time>
      </trkpt>
      <trkpt lat="45.866983495652676" lon="9.343635784462094">
        <ele>1189.77</ele>
        <time>2014-05-25T09:45:52Z</time>
      </trkpt>
      <trkpt lat="45.866932617500424" lon="9.343551713973284">
        <ele>1192.1700000000001</ele>
        <time>2014-05-25T09:46:06Z</time>
      </trkpt>
      <trkpt lat="45.866900514811277" lon="9.343501254916191">
        <ele>1194.0899999999999</ele>
        <time>2014-05-25T09:46:21Z</time>
      </trkpt>
      <trkpt lat="45.866945525631309" lon="9.343373514711857">
        <ele>1195.54</ele>
        <time>2014-05-25T09:46:34Z</time>
      </trkpt>
      <trkpt lat="45.866942759603262" lon="9.343253066763282">
        <ele>1198.4200000000001</ele>
        <time>2014-05-25T09:46:49Z</time>
      </trkpt>
      <trkpt lat="45.866938149556518" lon="9.343144269660115">
        <ele>1202.27</ele>
        <time>2014-05-25T09:47:00Z</time>
      </trkpt>
      <trkpt lat="45.866932449862361" lon="9.34313764795661">
        <ele>1201.3</ele>
        <time>2014-05-25T09:47:01Z</time>
      </trkpt>
      <trkpt lat="45.866931276395917" lon="9.343021893873811">
        <ele>1204.6700000000001</ele>
        <time>2014-05-25T09:47:18Z</time>
      </trkpt>
      <trkpt lat="45.866905963048339" lon="9.34296271763742">
        <ele>1205.6300000000001</ele>
        <time>2014-05-25T09:47:34Z</time>
      </trkpt>
      <trkpt lat="45.866894731298089" lon="9.342947211116552">
        <ele>1205.6300000000001</ele>
        <time>2014-05-25T09:47:54Z</time>
      </trkpt>
      <trkpt lat="45.866933707147837" lon="9.342848975211382">
        <ele>1206.5899999999999</ele>
        <time>2014-05-25T09:48:07Z</time>
      </trkpt>
      <trkpt lat="45.866900766268373" lon="9.342699022963643">
        <ele>1209.48</ele>
        <time>2014-05-25T09:48:23Z</time>
      </trkpt>
      <trkpt lat="45.866900514811277" lon="9.342564577236772">
        <ele>1212.3599999999999</ele>
        <time>2014-05-25T09:48:38Z</time>
      </trkpt>
      <trkpt lat="45.866923984140158" lon="9.342462066560984">
        <ele>1215.24</ele>
        <time>2014-05-25T09:48:53Z</time>
      </trkpt>
      <trkpt lat="45.866918787360191" lon="9.342491738498211">
        <ele>1214.76</ele>
        <time>2014-05-25T09:49:06Z</time>
      </trkpt>
      <trkpt lat="45.866889702156186" lon="9.342455780133605">
        <ele>1216.21</ele>
        <time>2014-05-25T09:49:25Z</time>
      </trkpt>
      <trkpt lat="45.866848211735487" lon="9.342431472614408">
        <ele>1219.0899999999999</ele>
        <time>2014-05-25T09:49:43Z</time>
      </trkpt>
      <trkpt lat="45.866792555898428" lon="9.342375062406063">
        <ele>1221.97</ele>
        <time>2014-05-25T09:49:56Z</time>
      </trkpt>
      <trkpt lat="45.866775624454021" lon="9.342261906713247">
        <ele>1225.3399999999999</ele>
        <time>2014-05-25T09:50:10Z</time>
      </trkpt>
      <trkpt lat="45.866726087406278" lon="9.342207340523601">
        <ele>1228.22</ele>
        <time>2014-05-25T09:50:27Z</time>
      </trkpt>
      <trkpt lat="45.866705048829317" lon="9.342114888131619">
        <ele>1231.1099999999999</ele>
        <time>2014-05-25T09:50:43Z</time>
      </trkpt>
      <trkpt lat="45.866659451276064" lon="9.342041965574026">
        <ele>1234.47</ele>
        <time>2014-05-25T09:50:57Z</time>
      </trkpt>
      <trkpt lat="45.866631288081408" lon="9.341978933662176">
        <ele>1236.8699999999999</ele>
        <time>2014-05-25T09:51:08Z</time>
      </trkpt>
      <trkpt lat="45.86663631722331" lon="9.341901652514935">
        <ele>1238.8</ele>
        <time>2014-05-25T09:51:18Z</time>
      </trkpt>
      <trkpt lat="45.866582840681076" lon="9.341887487098575">
        <ele>1240.24</ele>
        <time>2014-05-25T09:51:29Z</time>
      </trkpt>
      <trkpt lat="45.866537829861045" lon="9.341815067455173">
        <ele>1243.1199999999999</ele>
        <time>2014-05-25T09:51:43Z</time>
      </trkpt>
      <trkpt lat="45.866526681929827" lon="9.341756142675877">
        <ele>1244.5599999999999</ele>
        <time>2014-05-25T09:51:55Z</time>
      </trkpt>
      <trkpt lat="45.866513019427657" lon="9.341752370819449">
        <ele>1244.5599999999999</ele>
        <time>2014-05-25T09:51:59Z</time>
      </trkpt>
      <trkpt lat="45.866474965587258" lon="9.341633515432477">
        <ele>1247.45</ele>
        <time>2014-05-25T09:52:12Z</time>
      </trkpt>
      <trkpt lat="45.866404725238681" lon="9.341495800763369">
        <ele>1249.8499999999999</ele>
        <time>2014-05-25T09:52:27Z</time>
      </trkpt>
      <trkpt lat="45.866373963654041" lon="9.341392619535327">
        <ele>1251.77</ele>
        <time>2014-05-25T09:52:37Z</time>
      </trkpt>
      <trkpt lat="45.866324342787266" lon="9.341154070571065">
        <ele>1253.22</ele>
        <time>2014-05-25T09:52:54Z</time>
      </trkpt>
      <trkpt lat="45.866307830438018" lon="9.341040747240186">
        <ele>1257.0599999999999</ele>
        <time>2014-05-25T09:53:03Z</time>
      </trkpt>
      <trkpt lat="45.866306154057384" lon="9.341032532975078">
        <ele>1256.0999999999999</ele>
        <time>2014-05-25T09:53:04Z</time>
      </trkpt>
      <trkpt lat="45.866249073296785" lon="9.340918371453881">
        <ele>1259.46</ele>
        <time>2014-05-25T09:53:17Z</time>
      </trkpt>
      <trkpt lat="45.866205152124166" lon="9.340794319286943">
        <ele>1261.8699999999999</ele>
        <time>2014-05-25T09:53:31Z</time>
      </trkpt>
      <trkpt lat="45.866134827956557" lon="9.340764647349715">
        <ele>1264.75</ele>
        <time>2014-05-25T09:53:46Z</time>
      </trkpt>
      <trkpt lat="45.866118650883436" lon="9.340694826096296">
        <ele>1265.71</ele>
        <time>2014-05-25T09:53:59Z</time>
      </trkpt>
      <trkpt lat="45.866104485467076" lon="9.34069013223052">
        <ele>1265.71</ele>
        <time>2014-05-25T09:54:18Z</time>
      </trkpt>
      <trkpt lat="45.866086883470416" lon="9.340703459456563">
        <ele>1266.1900000000001</ele>
        <time>2014-05-25T09:54:22Z</time>
      </trkpt>
      <trkpt lat="45.866077579557896" lon="9.34065300039947">
        <ele>1265.23</ele>
        <time>2014-05-25T09:54:37Z</time>
      </trkpt>
      <trkpt lat="45.86608512327075" lon="9.340682504698634">
        <ele>1265.71</ele>
        <time>2014-05-25T09:54:51Z</time>
      </trkpt>
      <trkpt lat="45.866126529872417" lon="9.340725336223841">
        <ele>1265.23</ele>
        <time>2014-05-25T09:55:02Z</time>
      </trkpt>
      <trkpt lat="45.86614865809679" lon="9.340729024261236">
        <ele>1265.23</ele>
        <time>2014-05-25T09:55:21Z</time>
      </trkpt>
      <trkpt lat="45.866117812693119" lon="9.340728269889951">
        <ele>1266.1900000000001</ele>
        <time>2014-05-25T09:55:40Z</time>
      </trkpt>
      <trkpt lat="45.866134325042367" lon="9.340734891593456">
        <ele>1265.71</ele>
        <time>2014-05-25T09:55:55Z</time>
      </trkpt>
      <trkpt lat="45.866127284243703" lon="9.340753583237529">
        <ele>1265.23</ele>
        <time>2014-05-25T09:56:14Z</time>
      </trkpt>
      <trkpt lat="45.866145556792617" lon="9.340733550488949">
        <ele>1265.71</ele>
        <time>2014-05-25T09:56:39Z</time>
      </trkpt>
      <trkpt lat="45.866153100505471" lon="9.340750146657229">
        <ele>1265.71</ele>
        <time>2014-05-25T09:57:00Z</time>
      </trkpt>
      <trkpt lat="45.866134911775589" lon="9.340770095586777">
        <ele>1265.23</ele>
        <time>2014-05-25T09:57:23Z</time>
      </trkpt>
      <trkpt lat="45.866141365841031" lon="9.340753918513656">
        <ele>1265.23</ele>
        <time>2014-05-25T09:57:34Z</time>
      </trkpt>
      <trkpt lat="45.86615645326674" lon="9.340738914906979">
        <ele>1265.23</ele>
        <time>2014-05-25T09:57:48Z</time>
      </trkpt>
      <trkpt lat="45.866158632561564" lon="9.340785685926676">
        <ele>1264.27</ele>
        <time>2014-05-25T09:57:59Z</time>
      </trkpt>
      <trkpt lat="45.866156620904803" lon="9.340784344822168">
        <ele>1264.27</ele>
        <time>2014-05-25T09:58:13Z</time>
      </trkpt>
      <trkpt lat="45.866154609248042" lon="9.340788451954722">
        <ele>1264.27</ele>
        <time>2014-05-25T09:58:32Z</time>
      </trkpt>
      <trkpt lat="45.866163661703467" lon="9.3407809920609">
        <ele>1264.27</ele>
        <time>2014-05-25T09:58:49Z</time>
      </trkpt>
      <trkpt lat="45.866152429953218" lon="9.340763306245208">
        <ele>1264.75</ele>
        <time>2014-05-25T09:59:03Z</time>
      </trkpt>
      <trkpt lat="45.866153351962566" lon="9.34076146222651">
        <ele>1265.71</ele>
        <time>2014-05-25T09:59:26Z</time>
      </trkpt>
      <trkpt lat="45.866158213466406" lon="9.3407809920609">
        <ele>1264.75</ele>
        <time>2014-05-25T09:59:50Z</time>
      </trkpt>
      <trkpt lat="45.866144383326173" lon="9.340777136385441">
        <ele>1264.27</ele>
        <time>2014-05-25T10:00:06Z</time>
      </trkpt>
      <trkpt lat="45.866165338084102" lon="9.340781159698963">
        <ele>1264.75</ele>
        <time>2014-05-25T10:00:21Z</time>
      </trkpt>
      <trkpt lat="45.866162069141865" lon="9.340789625421166">
        <ele>1264.75</ele>
        <time>2014-05-25T10:00:29Z</time>
      </trkpt>
      <trkpt lat="45.866070622578263" lon="9.340920047834516">
        <ele>1262.8299999999999</ele>
        <time>2014-05-25T10:00:44Z</time>
      </trkpt>
      <trkpt lat="45.866079926490784" lon="9.340809406712651">
        <ele>1263.3099999999999</ele>
        <time>2014-05-25T10:01:05Z</time>
      </trkpt>
      <trkpt lat="45.866072801873088" lon="9.340808484703302">
        <ele>1263.3099999999999</ele>
        <time>2014-05-25T10:01:07Z</time>
      </trkpt>
      <trkpt lat="45.86602502502501" lon="9.340751823037863">
        <ele>1263.79</ele>
        <time>2014-05-25T10:01:22Z</time>
      </trkpt>
      <trkpt lat="45.866025360301137" lon="9.34071796014905">
        <ele>1263.3099999999999</ele>
        <time>2014-05-25T10:01:35Z</time>
      </trkpt>
      <trkpt lat="45.866027623414993" lon="9.340688958764076">
        <ele>1263.79</ele>
        <time>2014-05-25T10:01:59Z</time>
      </trkpt>
      <trkpt lat="45.86602502502501" lon="9.340690802782774">
        <ele>1263.79</ele>
        <time>2014-05-25T10:02:21Z</time>
      </trkpt>
      <trkpt lat="45.866013877093792" lon="9.340710500255227">
        <ele>1264.75</ele>
        <time>2014-05-25T10:02:48Z</time>
      </trkpt>
      <trkpt lat="45.866063581779599" lon="9.340723576024175">
        <ele>1265.71</ele>
        <time>2014-05-25T10:03:06Z</time>
      </trkpt>
      <trkpt lat="45.866091577336192" lon="9.340743776410818">
        <ele>1265.71</ele>
        <time>2014-05-25T10:03:32Z</time>
      </trkpt>
      <trkpt lat="45.866142958402634" lon="9.340819632634521">
        <ele>1264.27</ele>
        <time>2014-05-25T10:03:48Z</time>
      </trkpt>
      <trkpt lat="45.866125272586942" lon="9.340805634856224">
        <ele>1264.75</ele>
        <time>2014-05-25T10:04:16Z</time>
      </trkpt>
      <trkpt lat="45.866130888462067" lon="9.340810328722">
        <ele>1265.23</ele>
        <time>2014-05-25T10:04:41Z</time>
      </trkpt>
      <trkpt lat="45.866119069978595" lon="9.340698597952724">
        <ele>1266.6700000000001</ele>
        <time>2014-05-25T10:04:52Z</time>
      </trkpt>
      <trkpt lat="45.866099456325173" lon="9.340781746432185">
        <ele>1267.1600000000001</ele>
        <time>2014-05-25T10:05:08Z</time>
      </trkpt>
      <trkpt lat="45.866141030564904" lon="9.340719971805811">
        <ele>1266.1900000000001</ele>
        <time>2014-05-25T10:05:20Z</time>
      </trkpt>
      <trkpt lat="45.866158967837691" lon="9.340706057846546">
        <ele>1268.1199999999999</ele>
        <time>2014-05-25T10:05:23Z</time>
      </trkpt>
      <trkpt lat="45.866166008636355" lon="9.340702788904309">
        <ele>1267.1600000000001</ele>
        <time>2014-05-25T10:05:37Z</time>
      </trkpt>
      <trkpt lat="45.866154860705137" lon="9.340696334838867">
        <ele>1266.1900000000001</ele>
        <time>2014-05-25T10:05:58Z</time>
      </trkpt>
      <trkpt lat="45.866168607026339" lon="9.340707734227181">
        <ele>1266.1900000000001</ele>
        <time>2014-05-25T10:06:20Z</time>
      </trkpt>
      <trkpt lat="45.866173803806305" lon="9.340690802782774">
        <ele>1266.6700000000001</ele>
        <time>2014-05-25T10:06:35Z</time>
      </trkpt>
      <trkpt lat="45.866238428279757" lon="9.340541018173099">
        <ele>1267.6400000000001</ele>
        <time>2014-05-25T10:06:48Z</time>
      </trkpt>
      <trkpt lat="45.866180509328842" lon="9.340443285182118">
        <ele>1270.52</ele>
        <time>2014-05-25T10:07:04Z</time>
      </trkpt>
      <trkpt lat="45.866198111325502" lon="9.340405818074942">
        <ele>1271</ele>
        <time>2014-05-25T10:07:22Z</time>
      </trkpt>
      <trkpt lat="45.866253515705466" lon="9.34031143784523">
        <ele>1271</ele>
        <time>2014-05-25T10:07:35Z</time>
      </trkpt>
      <trkpt lat="45.866274554282427" lon="9.340198701247573">
        <ele>1271.48</ele>
        <time>2014-05-25T10:07:45Z</time>
      </trkpt>
      <trkpt lat="45.866275476291776" lon="9.340153271332383">
        <ele>1271</ele>
        <time>2014-05-25T10:07:48Z</time>
      </trkpt>
      <trkpt lat="45.866356864571571" lon="9.33998504653573">
        <ele>1268.1199999999999</ele>
        <time>2014-05-25T10:08:04Z</time>
      </trkpt>
      <trkpt lat="45.866358457133174" lon="9.33986334130168">
        <ele>1265.23</ele>
        <time>2014-05-25T10:08:17Z</time>
      </trkpt>
      <trkpt lat="45.866341693326831" lon="9.339724536985159">
        <ele>1262.3499999999999</ele>
        <time>2014-05-25T10:08:32Z</time>
      </trkpt>
      <trkpt lat="45.866349907591939" lon="9.339641807600856">
        <ele>1261.8699999999999</ele>
        <time>2014-05-25T10:08:45Z</time>
      </trkpt>
      <trkpt lat="45.866315877065063" lon="9.33964348398149">
        <ele>1259.9400000000001</ele>
        <time>2014-05-25T10:08:57Z</time>
      </trkpt>
      <trkpt lat="45.866317050531507" lon="9.339623032137752">
        <ele>1259.46</ele>
        <time>2014-05-25T10:09:13Z</time>
      </trkpt>
      <trkpt lat="45.866301376372576" lon="9.339619008824229">
        <ele>1259.9400000000001</ele>
        <time>2014-05-25T10:09:30Z</time>
      </trkpt>
      <trkpt lat="45.866301795467734" lon="9.339618338271976">
        <ele>1260.4300000000001</ele>
        <time>2014-05-25T10:09:49Z</time>
      </trkpt>
      <trkpt lat="45.866305734962225" lon="9.339607609435916">
        <ele>1259.46</ele>
        <time>2014-05-25T10:10:08Z</time>
      </trkpt>
      <trkpt lat="45.866286121308804" lon="9.339642729610205">
        <ele>1259.9400000000001</ele>
        <time>2014-05-25T10:10:24Z</time>
      </trkpt>
      <trkpt lat="45.866276230663061" lon="9.339665528386831">
        <ele>1259.46</ele>
        <time>2014-05-25T10:10:43Z</time>
      </trkpt>
      <trkpt lat="45.866286540403962" lon="9.33965521864593">
        <ele>1259.9400000000001</ele>
        <time>2014-05-25T10:11:08Z</time>
      </trkpt>
      <trkpt lat="45.866282097995281" lon="9.339641472324729">
        <ele>1259.9400000000001</ele>
        <time>2014-05-25T10:11:24Z</time>
      </trkpt>
      <trkpt lat="45.866279164329171" lon="9.339647004380822">
        <ele>1260.4300000000001</ele>
        <time>2014-05-25T10:11:43Z</time>
      </trkpt>
      <trkpt lat="45.866270614787936" lon="9.339666701853275">
        <ele>1260.4300000000001</ele>
        <time>2014-05-25T10:12:06Z</time>
      </trkpt>
      <trkpt lat="45.866280421614647" lon="9.339667456224561">
        <ele>1259.46</ele>
        <time>2014-05-25T10:12:19Z</time>
      </trkpt>
      <trkpt lat="45.866278242319822" lon="9.33968841098249">
        <ele>1258.5</ele>
        <time>2014-05-25T10:12:43Z</time>
      </trkpt>
      <trkpt lat="45.866276146844029" lon="9.339693775400519">
        <ele>1257.54</ele>
        <time>2014-05-25T10:13:01Z</time>
      </trkpt>
      <trkpt lat="45.866281259804964" lon="9.339677933603525">
        <ele>1257.54</ele>
        <time>2014-05-25T10:13:28Z</time>
      </trkpt>
      <trkpt lat="45.866269692778587" lon="9.339657481759787">
        <ele>1256.0999999999999</ele>
        <time>2014-05-25T10:13:45Z</time>
      </trkpt>
      <trkpt lat="45.866271369159222" lon="9.339636778458953">
        <ele>1257.0599999999999</ele>
        <time>2014-05-25T10:14:08Z</time>
      </trkpt>
      <trkpt lat="45.866279499605298" lon="9.33965815231204">
        <ele>1256.0999999999999</ele>
        <time>2014-05-25T10:14:29Z</time>
      </trkpt>
      <trkpt lat="45.866247229278088" lon="9.339630827307701">
        <ele>1257.0599999999999</ele>
        <time>2014-05-25T10:14:53Z</time>
      </trkpt>
      <trkpt lat="45.866252090781927" lon="9.33959361165762">
        <ele>1256.5799999999999</ele>
        <time>2014-05-25T10:15:10Z</time>
      </trkpt>
      <trkpt lat="45.866232644766569" lon="9.339614398777485">
        <ele>1256.0999999999999</ele>
        <time>2014-05-25T10:15:35Z</time>
      </trkpt>
      <trkpt lat="45.866225687786937" lon="9.339596126228571">
        <ele>1256.0999999999999</ele>
        <time>2014-05-25T10:15:54Z</time>
      </trkpt>
      <trkpt lat="45.866234237328172" lon="9.339564107358456">
        <ele>1256.0999999999999</ele>
        <time>2014-05-25T10:16:18Z</time>
      </trkpt>
      <trkpt lat="45.866232477128506" lon="9.339583637192845">
        <ele>1257.54</ele>
        <time>2014-05-25T10:16:38Z</time>
      </trkpt>
      <trkpt lat="45.866274973377585" lon="9.339635018259287">
        <ele>1257.0599999999999</ele>
        <time>2014-05-25T10:17:02Z</time>
      </trkpt>
      <trkpt lat="45.86627371609211" lon="9.339667204767466">
        <ele>1256.5799999999999</ele>
        <time>2014-05-25T10:17:23Z</time>
      </trkpt>
      <trkpt lat="45.866286037489772" lon="9.339639544487">
        <ele>1255.6199999999999</ele>
        <time>2014-05-25T10:17:42Z</time>
      </trkpt>
      <trkpt lat="45.866272123530507" lon="9.339606603607535">
        <ele>1256.0999999999999</ele>
        <time>2014-05-25T10:18:04Z</time>
      </trkpt>
      <trkpt lat="45.866277990862727" lon="9.339620936661959">
        <ele>1256.5799999999999</ele>
        <time>2014-05-25T10:18:28Z</time>
      </trkpt>
      <trkpt lat="45.866238428279757" lon="9.339634263888001">
        <ele>1256.0999999999999</ele>
        <time>2014-05-25T10:18:41Z</time>
      </trkpt>
      <trkpt lat="45.866242619231343" lon="9.33960827998817">
        <ele>1256.0999999999999</ele>
        <time>2014-05-25T10:18:56Z</time>
      </trkpt>
      <trkpt lat="45.86621998809278" lon="9.339605094864965">
        <ele>1257.54</ele>
        <time>2014-05-25T10:19:21Z</time>
      </trkpt>
      <trkpt lat="45.866271201521158" lon="9.339633677154779">
        <ele>1258.02</ele>
        <time>2014-05-25T10:19:38Z</time>
      </trkpt>
      <trkpt lat="45.866271369159222" lon="9.339657481759787">
        <ele>1258.02</ele>
        <time>2014-05-25T10:20:04Z</time>
      </trkpt>
      <trkpt lat="45.866292072460055" lon="9.339654464274645">
        <ele>1257.54</ele>
        <time>2014-05-25T10:20:25Z</time>
      </trkpt>
      <trkpt lat="45.86631235666573" lon="9.339663432911038">
        <ele>1257.54</ele>
        <time>2014-05-25T10:20:50Z</time>
      </trkpt>
      <trkpt lat="45.866321073845029" lon="9.339690087363124">
        <ele>1257.0599999999999</ele>
        <time>2014-05-25T10:21:18Z</time>
      </trkpt>
      <trkpt lat="45.866296514868736" lon="9.339654548093677">
        <ele>1257.0599999999999</ele>
        <time>2014-05-25T10:21:37Z</time>
      </trkpt>
      <trkpt lat="45.866280756890774" lon="9.339634012430906">
        <ele>1257.54</ele>
        <time>2014-05-25T10:22:00Z</time>
      </trkpt>
      <trkpt lat="45.8662517555058" lon="9.33961515314877">
        <ele>1257.54</ele>
        <time>2014-05-25T10:22:26Z</time>
      </trkpt>
      <trkpt lat="45.866268686950207" lon="9.339634766802192">
        <ele>1257.54</ele>
        <time>2014-05-25T10:22:52Z</time>
      </trkpt>
      <trkpt lat="45.866259047761559" lon="9.339611884206533">
        <ele>1257.54</ele>
        <time>2014-05-25T10:23:14Z</time>
      </trkpt>
      <trkpt lat="45.866242786869407" lon="9.339614817872644">
        <ele>1258.02</ele>
        <time>2014-05-25T10:23:35Z</time>
      </trkpt>
      <trkpt lat="45.866241613402963" lon="9.339650776237249">
        <ele>1258.02</ele>
        <time>2014-05-25T10:24:00Z</time>
      </trkpt>
      <trkpt lat="45.866243205964565" lon="9.339614985510707">
        <ele>1258.02</ele>
        <time>2014-05-25T10:24:21Z</time>
      </trkpt>
      <trkpt lat="45.866226609796286" lon="9.339586067944765">
        <ele>1258.02</ele>
        <time>2014-05-25T10:24:40Z</time>
      </trkpt>
      <trkpt lat="45.866204397752881" lon="9.339581793174148">
        <ele>1258.5</ele>
        <time>2014-05-25T10:25:04Z</time>
      </trkpt>
      <trkpt lat="45.866189310327172" lon="9.339580368250608">
        <ele>1258.02</ele>
        <time>2014-05-25T10:25:27Z</time>
      </trkpt>
      <trkpt lat="45.866211354732513" lon="9.339574500918388">
        <ele>1258.5</ele>
        <time>2014-05-25T10:25:45Z</time>
      </trkpt>
      <trkpt lat="45.866213450208306" lon="9.33957802131772">
        <ele>1258.98</ele>
        <time>2014-05-25T10:26:07Z</time>
      </trkpt>
      <trkpt lat="45.866192998364568" lon="9.339570142328739">
        <ele>1259.9400000000001</ele>
        <time>2014-05-25T10:26:30Z</time>
      </trkpt>
      <trkpt lat="45.866174893453717" lon="9.339618757367134">
        <ele>1257.54</ele>
        <time>2014-05-25T10:26:41Z</time>
      </trkpt>
      <trkpt lat="45.866193166002631" lon="9.339623702690005">
        <ele>1257.0599999999999</ele>
        <time>2014-05-25T10:27:04Z</time>
      </trkpt>
      <trkpt lat="45.866185957565904" lon="9.339628983289003">
        <ele>1256.5799999999999</ele>
        <time>2014-05-25T10:27:24Z</time>
      </trkpt>
      <trkpt lat="45.866158213466406" lon="9.339621439576149">
        <ele>1256.5799999999999</ele>
        <time>2014-05-25T10:27:45Z</time>
      </trkpt>
      <trkpt lat="45.86618335917592" lon="9.339644825085998">
        <ele>1257.0599999999999</ele>
        <time>2014-05-25T10:28:14Z</time>
      </trkpt>
      <trkpt lat="45.866241278126836" lon="9.339714143425226">
        <ele>1256.5799999999999</ele>
        <time>2014-05-25T10:28:38Z</time>
      </trkpt>
      <trkpt lat="45.866276314482093" lon="9.339753538370132">
        <ele>1257.54</ele>
        <time>2014-05-25T10:29:01Z</time>
      </trkpt>
      <trkpt lat="45.866297269240022" lon="9.339776169508696">
        <ele>1256.0999999999999</ele>
        <time>2014-05-25T10:29:18Z</time>
      </trkpt>
      <trkpt lat="45.866281678900123" lon="9.33974850922823">
        <ele>1256.5799999999999</ele>
        <time>2014-05-25T10:29:43Z</time>
      </trkpt>
      <trkpt lat="45.866250582039356" lon="9.339719256386161">
        <ele>1256.5799999999999</ele>
        <time>2014-05-25T10:30:08Z</time>
      </trkpt>
      <trkpt lat="45.866220993921161" lon="9.339691931381822">
        <ele>1257.54</ele>
        <time>2014-05-25T10:30:33Z</time>
      </trkpt>
      <trkpt lat="45.866206996142864" lon="9.339683298021555">
        <ele>1256.0999999999999</ele>
        <time>2014-05-25T10:31:01Z</time>
      </trkpt>
      <trkpt lat="45.866209343075752" lon="9.33967474848032">
        <ele>1255.6199999999999</ele>
        <time>2014-05-25T10:31:24Z</time>
      </trkpt>
      <trkpt lat="45.866173887625337" lon="9.339661505073309">
        <ele>1255.1400000000001</ele>
        <time>2014-05-25T10:31:44Z</time>
      </trkpt>
      <trkpt lat="45.866138432174921" lon="9.339638622477651">
        <ele>1255.1400000000001</ele>
        <time>2014-05-25T10:32:08Z</time>
      </trkpt>
      <trkpt lat="45.866120243445039" lon="9.339612722396851">
        <ele>1255.1400000000001</ele>
        <time>2014-05-25T10:32:26Z</time>
      </trkpt>
      <trkpt lat="45.86615695618093" lon="9.339590594172478">
        <ele>1255.1400000000001</ele>
        <time>2014-05-25T10:32:40Z</time>
      </trkpt>
      <trkpt lat="45.866186209022999" lon="9.339588498696685">
        <ele>1255.1400000000001</ele>
        <time>2014-05-25T10:33:07Z</time>
      </trkpt>
      <trkpt lat="45.866149747744203" lon="9.339582966640592">
        <ele>1255.6199999999999</ele>
        <time>2014-05-25T10:33:29Z</time>
      </trkpt>
      <trkpt lat="45.866117142140865" lon="9.339541057124734">
        <ele>1254.1800000000001</ele>
        <time>2014-05-25T10:33:49Z</time>
      </trkpt>
      <trkpt lat="45.866126026958227" lon="9.339550528675318">
        <ele>1253.22</ele>
        <time>2014-05-25T10:34:08Z</time>
      </trkpt>
      <trkpt lat="45.866102054715157" lon="9.339548097923398">
        <ele>1252.25</ele>
        <time>2014-05-25T10:34:25Z</time>
      </trkpt>
      <trkpt lat="45.866075316444039" lon="9.339538374915719">
        <ele>1251.77</ele>
        <time>2014-05-25T10:34:37Z</time>
      </trkpt>
      <trkpt lat="45.866048913449049" lon="9.339514067396522">
        <ele>1250.3299999999999</ele>
        <time>2014-05-25T10:34:52Z</time>
      </trkpt>
      <trkpt lat="45.865997113287449" lon="9.339474001899362">
        <ele>1248.4100000000001</ele>
        <time>2014-05-25T10:35:08Z</time>
      </trkpt>
      <trkpt lat="45.865978254005313" lon="9.33947148732841">
        <ele>1247.9300000000001</ele>
        <time>2014-05-25T10:35:26Z</time>
      </trkpt>
      <trkpt lat="45.865982444956899" lon="9.339519599452615">
        <ele>1247.45</ele>
        <time>2014-05-25T10:35:39Z</time>
      </trkpt>
      <trkpt lat="45.866116555407643" lon="9.339691009372473">
        <ele>1247.9300000000001</ele>
        <time>2014-05-25T10:35:54Z</time>
      </trkpt>
      <trkpt lat="45.866149161010981" lon="9.339708276093006">
        <ele>1247.45</ele>
        <time>2014-05-25T10:36:13Z</time>
      </trkpt>
      <trkpt lat="45.866153854876757" lon="9.339702911674976">
        <ele>1246.49</ele>
        <time>2014-05-25T10:36:34Z</time>
      </trkpt>
      <trkpt lat="45.866129128262401" lon="9.339707773178816">
        <ele>1246.01</ele>
        <time>2014-05-25T10:36:56Z</time>
      </trkpt>
      <trkpt lat="45.866154609248042" lon="9.339729398488998">
        <ele>1245.53</ele>
        <time>2014-05-25T10:37:20Z</time>
      </trkpt>
      <trkpt lat="45.86617112159729" lon="9.33968354947865">
        <ele>1244.5599999999999</ele>
        <time>2014-05-25T10:37:35Z</time>
      </trkpt>
      <trkpt lat="45.86617455817759" lon="9.339651949703693">
        <ele>1244.0799999999999</ele>
        <time>2014-05-25T10:37:53Z</time>
      </trkpt>
      <trkpt lat="45.866175144910812" lon="9.33965178206563">
        <ele>1244.0799999999999</ele>
        <time>2014-05-25T10:38:11Z</time>
      </trkpt>
      <trkpt lat="45.86614865809679" lon="9.33960584923625">
        <ele>1243.1199999999999</ele>
        <time>2014-05-25T10:38:28Z</time>
      </trkpt>
      <trkpt lat="45.866120327264071" lon="9.339541057124734">
        <ele>1242.1600000000001</ele>
        <time>2014-05-25T10:38:51Z</time>
      </trkpt>
      <trkpt lat="45.866116974502802" lon="9.33955798856914">
        <ele>1241.6800000000001</ele>
        <time>2014-05-25T10:39:09Z</time>
      </trkpt>
      <trkpt lat="45.866103144362569" lon="9.339543655514717">
        <ele>1240.72</ele>
        <time>2014-05-25T10:39:21Z</time>
      </trkpt>
      <trkpt lat="45.866094762459397" lon="9.339524209499359">
        <ele>1237.8299999999999</ele>
        <time>2014-05-25T10:39:29Z</time>
      </trkpt>
      <trkpt lat="45.866130469366908" lon="9.339529490098357">
        <ele>1237.8299999999999</ele>
        <time>2014-05-25T10:39:45Z</time>
      </trkpt>
      <trkpt lat="45.866104904562235" lon="9.33951205573976">
        <ele>1236.8699999999999</ele>
        <time>2014-05-25T10:39:59Z</time>
      </trkpt>
      <trkpt lat="45.86609736084938" lon="9.339479701593518">
        <ele>1233.99</ele>
        <time>2014-05-25T10:40:11Z</time>
      </trkpt>
      <trkpt lat="45.866088140755892" lon="9.339419016614556">
        <ele>1231.5899999999999</ele>
        <time>2014-05-25T10:40:22Z</time>
      </trkpt>
      <trkpt lat="45.86609342135489" lon="9.339371826499701">
        <ele>1229.1800000000001</ele>
        <time>2014-05-25T10:40:33Z</time>
      </trkpt>
      <trkpt lat="45.866075148805976" lon="9.339325642213225">
        <ele>1226.3</ele>
        <time>2014-05-25T10:40:49Z</time>
      </trkpt>
      <trkpt lat="45.866022761911154" lon="9.339285073801875">
        <ele>1225.3399999999999</ele>
        <time>2014-05-25T10:41:02Z</time>
      </trkpt>
      <trkpt lat="45.866046817973256" lon="9.339252887293696">
        <ele>1224.3800000000001</ele>
        <time>2014-05-25T10:41:17Z</time>
      </trkpt>
      <trkpt lat="45.866032904013991" lon="9.339236123487353">
        <ele>1224.8599999999999</ele>
        <time>2014-05-25T10:41:41Z</time>
      </trkpt>
      <trkpt lat="45.866058971732855" lon="9.339286498725414">
        <ele>1224.8599999999999</ele>
        <time>2014-05-25T10:42:04Z</time>
      </trkpt>
      <trkpt lat="45.866071544587612" lon="9.339259089902043">
        <ele>1224.8599999999999</ele>
        <time>2014-05-25T10:42:27Z</time>
      </trkpt>
      <trkpt lat="45.866073807701468" lon="9.339265208691359">
        <ele>1224.3800000000001</ele>
        <time>2014-05-25T10:42:48Z</time>
      </trkpt>
      <trkpt lat="45.866085793823004" lon="9.339282475411892">
        <ele>1224.3800000000001</ele>
        <time>2014-05-25T10:43:16Z</time>
      </trkpt>
      <trkpt lat="45.866043381392956" lon="9.339170241728425">
        <ele>1222.9300000000001</ele>
        <time>2014-05-25T10:43:34Z</time>
      </trkpt>
      <trkpt lat="45.86605872027576" lon="9.339200835675001">
        <ele>1222.9300000000001</ele>
        <time>2014-05-25T10:43:50Z</time>
      </trkpt>
      <trkpt lat="45.866090655326843" lon="9.339225729927421">
        <ele>1222.9300000000001</ele>
        <time>2014-05-25T10:44:17Z</time>
      </trkpt>
      <trkpt lat="45.866120997816324" lon="9.339102683588862">
        <ele>1224.3800000000001</ele>
        <time>2014-05-25T10:44:30Z</time>
      </trkpt>
      <trkpt lat="45.866121081635356" lon="9.339080387726426">
        <ele>1224.3800000000001</ele>
        <time>2014-05-25T10:44:32Z</time>
      </trkpt>
      <trkpt lat="45.8661256916821" lon="9.338980056345463">
        <ele>1226.3</ele>
        <time>2014-05-25T10:44:43Z</time>
      </trkpt>
      <trkpt lat="45.866178162395954" lon="9.338924987241626">
        <ele>1228.7</ele>
        <time>2014-05-25T10:44:55Z</time>
      </trkpt>
      <trkpt lat="45.866186209022999" lon="9.338883496820927">
        <ele>1232.0699999999999</ele>
        <time>2014-05-25T10:45:10Z</time>
      </trkpt>
      <trkpt lat="45.86620045825839" lon="9.338835719972849">
        <ele>1234.95</ele>
        <time>2014-05-25T10:45:21Z</time>
      </trkpt>
      <trkpt lat="45.866155698895454" lon="9.338820213451982">
        <ele>1235.9100000000001</ele>
        <time>2014-05-25T10:45:34Z</time>
      </trkpt>
      <trkpt lat="45.866119740530849" lon="9.338800935074687">
        <ele>1238.8</ele>
        <time>2014-05-25T10:45:50Z</time>
      </trkpt>
      <trkpt lat="45.866145640611649" lon="9.338778639212251">
        <ele>1241.6800000000001</ele>
        <time>2014-05-25T10:46:02Z</time>
      </trkpt>
      <trkpt lat="45.866151507943869" lon="9.338736981153488">
        <ele>1243.5999999999999</ele>
        <time>2014-05-25T10:46:19Z</time>
      </trkpt>
      <trkpt lat="45.866183191537857" lon="9.338711751624942">
        <ele>1245.53</ele>
        <time>2014-05-25T10:46:37Z</time>
      </trkpt>
      <trkpt lat="45.866207079961896" lon="9.33869163505733">
        <ele>1247.9300000000001</ele>
        <time>2014-05-25T10:46:51Z</time>
      </trkpt>
      <trkpt lat="45.866206157952547" lon="9.338688785210252">
        <ele>1247.9300000000001</ele>
        <time>2014-05-25T10:47:07Z</time>
      </trkpt>
      <trkpt lat="45.866175480186939" lon="9.338617119938135">
        <ele>1250.8099999999999</ele>
        <time>2014-05-25T10:47:20Z</time>
      </trkpt>
      <trkpt lat="45.86617162451148" lon="9.338574120774865">
        <ele>1254.1800000000001</ele>
        <time>2014-05-25T10:47:33Z</time>
      </trkpt>
      <trkpt lat="45.866192160174251" lon="9.338562218472362">
        <ele>1253.7</ele>
        <time>2014-05-25T10:47:50Z</time>
      </trkpt>
      <trkpt lat="45.866161063313484" lon="9.338543191552162">
        <ele>1254.1800000000001</ele>
        <time>2014-05-25T10:48:05Z</time>
      </trkpt>
      <trkpt lat="45.866117812693119" lon="9.338529529049993">
        <ele>1257.0599999999999</ele>
        <time>2014-05-25T10:48:16Z</time>
      </trkpt>
      <trkpt lat="45.866094594821334" lon="9.338527182117105">
        <ele>1258.5</ele>
        <time>2014-05-25T10:48:26Z</time>
      </trkpt>
      <trkpt lat="45.86605436168611" lon="9.338485691696405">
        <ele>1260.4300000000001</ele>
        <time>2014-05-25T10:48:37Z</time>
      </trkpt>
      <trkpt lat="45.865997197106481" lon="9.338431041687727">
        <ele>1259.46</ele>
        <time>2014-05-25T10:48:49Z</time>
      </trkpt>
      <trkpt lat="45.865972805768251" lon="9.338436322286725">
        <ele>1258.5</ele>
        <time>2014-05-25T10:48:59Z</time>
      </trkpt>
      <trkpt lat="45.865951767191291" lon="9.338442608714104">
        <ele>1257.0599999999999</ele>
        <time>2014-05-25T10:49:02Z</time>
      </trkpt>
      <trkpt lat="45.865952437743545" lon="9.338386030867696">
        <ele>1254.6600000000001</ele>
        <time>2014-05-25T10:49:14Z</time>
      </trkpt>
      <trkpt lat="45.865971464663744" lon="9.338311515748501">
        <ele>1251.77</ele>
        <time>2014-05-25T10:49:27Z</time>
      </trkpt>
      <trkpt lat="45.865949671715498" lon="9.33833247050643">
        <ele>1250.3299999999999</ele>
        <time>2014-05-25T10:49:38Z</time>
      </trkpt>
      <trkpt lat="45.865933829918504" lon="9.338298356160522">
        <ele>1249.3699999999999</ele>
        <time>2014-05-25T10:50:01Z</time>
      </trkpt>
      <trkpt lat="45.865919915959239" lon="9.338225601240993">
        <ele>1246.49</ele>
        <time>2014-05-25T10:50:13Z</time>
      </trkpt>
      <trkpt lat="45.865901475772262" lon="9.338213447481394">
        <ele>1245.04</ele>
        <time>2014-05-25T10:50:16Z</time>
      </trkpt>
      <trkpt lat="45.865839533507824" lon="9.338194252923131">
        <ele>1245.53</ele>
        <time>2014-05-25T10:50:31Z</time>
      </trkpt>
      <trkpt lat="45.865821931511164" lon="9.338142536580563">
        <ele>1246.97</ele>
        <time>2014-05-25T10:50:44Z</time>
      </trkpt>
      <trkpt lat="45.865815812721848" lon="9.338134741410613">
        <ele>1248.4100000000001</ele>
        <time>2014-05-25T10:50:46Z</time>
      </trkpt>
      <trkpt lat="45.865793768316507" lon="9.338111523538828">
        <ele>1248.8900000000001</ele>
        <time>2014-05-25T10:50:58Z</time>
      </trkpt>
      <trkpt lat="45.86578362621367" lon="9.338082019239664">
        <ele>1250.3299999999999</ele>
        <time>2014-05-25T10:51:08Z</time>
      </trkpt>
      <trkpt lat="45.865710619837046" lon="9.338049665093422">
        <ele>1249.3699999999999</ele>
        <time>2014-05-25T10:51:21Z</time>
      </trkpt>
      <trkpt lat="45.86563560180366" lon="9.3379489146173">
        <ele>1248.8900000000001</ele>
        <time>2014-05-25T10:51:36Z</time>
      </trkpt>
      <trkpt lat="45.865581370890141" lon="9.337953440845013">
        <ele>1250.3299999999999</ele>
        <time>2014-05-25T10:51:51Z</time>
      </trkpt>
      <trkpt lat="45.865527391433716" lon="9.337936257943511">
        <ele>1249.8499999999999</ele>
        <time>2014-05-25T10:52:03Z</time>
      </trkpt>
      <trkpt lat="45.865515153855085" lon="9.337927289307118">
        <ele>1249.8499999999999</ele>
        <time>2014-05-25T10:52:06Z</time>
      </trkpt>
      <trkpt lat="45.865456396713853" lon="9.337933659553528">
        <ele>1248.4100000000001</ele>
        <time>2014-05-25T10:52:18Z</time>
      </trkpt>
      <trkpt lat="45.865440890192986" lon="9.337937850505114">
        <ele>1248.8900000000001</ele>
        <time>2014-05-25T10:52:36Z</time>
      </trkpt>
      <trkpt lat="45.865437118336558" lon="9.337922763079405">
        <ele>1248.4100000000001</ele>
        <time>2014-05-25T10:52:55Z</time>
      </trkpt>
      <trkpt lat="45.865430999547243" lon="9.337907172739506">
        <ele>1248.4100000000001</ele>
        <time>2014-05-25T10:53:09Z</time>
      </trkpt>
      <trkpt lat="45.865429826080799" lon="9.337919829413295">
        <ele>1247.45</ele>
        <time>2014-05-25T10:53:22Z</time>
      </trkpt>
      <trkpt lat="45.865412726998329" lon="9.337932989001274">
        <ele>1246.01</ele>
        <time>2014-05-25T10:53:38Z</time>
      </trkpt>
      <trkpt lat="45.865405853837729" lon="9.33793231844902">
        <ele>1244.5599999999999</ele>
        <time>2014-05-25T10:53:51Z</time>
      </trkpt>
      <trkpt lat="45.865393783897161" lon="9.337967187166214">
        <ele>1242.6400000000001</ele>
        <time>2014-05-25T10:54:08Z</time>
      </trkpt>
      <trkpt lat="45.865356735885143" lon="9.337995685636997">
        <ele>1240.24</ele>
        <time>2014-05-25T10:54:19Z</time>
      </trkpt>
      <trkpt lat="45.865324465557933" lon="9.337989985942841">
        <ele>1238.3199999999999</ele>
        <time>2014-05-25T10:54:29Z</time>
      </trkpt>
      <trkpt lat="45.865297056734562" lon="9.338004654273391">
        <ele>1236.3900000000001</ele>
        <time>2014-05-25T10:54:40Z</time>
      </trkpt>
      <trkpt lat="45.86526813916862" lon="9.337998703122139">
        <ele>1234.47</ele>
        <time>2014-05-25T10:54:55Z</time>
      </trkpt>
      <trkpt lat="45.865250620990992" lon="9.338002391159535">
        <ele>1233.51</ele>
        <time>2014-05-25T10:55:00Z</time>
      </trkpt>
      <trkpt lat="45.86522270925343" lon="9.337958469986916">
        <ele>1230.6199999999999</ele>
        <time>2014-05-25T10:55:11Z</time>
      </trkpt>
      <trkpt lat="45.865180548280478" lon="9.337874734774232">
        <ele>1229.6600000000001</ele>
        <time>2014-05-25T10:55:23Z</time>
      </trkpt>
      <trkpt lat="45.865154648199677" lon="9.337859647348523">
        <ele>1228.22</ele>
        <time>2014-05-25T10:55:34Z</time>
      </trkpt>
      <trkpt lat="45.865153474733233" lon="9.337816815823317">
        <ele>1227.26</ele>
        <time>2014-05-25T10:55:44Z</time>
      </trkpt>
      <trkpt lat="45.865156659856439" lon="9.337813463062048">
        <ele>1227.26</ele>
        <time>2014-05-25T10:55:45Z</time>
      </trkpt>
      <trkpt lat="45.865122964605689" lon="9.337777337059379">
        <ele>1225.3399999999999</ele>
        <time>2014-05-25T10:55:50Z</time>
      </trkpt>
      <trkpt lat="45.865061022341251" lon="9.33771288022399">
        <ele>1222.45</ele>
        <time>2014-05-25T10:56:02Z</time>
      </trkpt>
      <trkpt lat="45.865020789206028" lon="9.337704414501786">
        <ele>1221.97</ele>
        <time>2014-05-25T10:56:15Z</time>
      </trkpt>
      <trkpt lat="45.864989692345262" lon="9.337661666795611">
        <ele>1220.53</ele>
        <time>2014-05-25T10:56:29Z</time>
      </trkpt>
      <trkpt lat="45.864955242723227" lon="9.337640879675746">
        <ele>1218.1300000000001</ele>
        <time>2014-05-25T10:56:39Z</time>
      </trkpt>
      <trkpt lat="45.864927247166634" lon="9.337611375376582">
        <ele>1219.0899999999999</ele>
        <time>2014-05-25T10:56:46Z</time>
      </trkpt>
      <trkpt lat="45.864859018474817" lon="9.337539374828339">
        <ele>1221.49</ele>
        <time>2014-05-25T10:56:59Z</time>
      </trkpt>
      <trkpt lat="45.864820377901196" lon="9.337491262704134">
        <ele>1221.97</ele>
        <time>2014-05-25T10:57:12Z</time>
      </trkpt>
      <trkpt lat="45.864827167242765" lon="9.337441055104137">
        <ele>1221.49</ele>
        <time>2014-05-25T10:57:16Z</time>
      </trkpt>
      <trkpt lat="45.864770673215389" lon="9.337291773408651">
        <ele>1219.5699999999999</ele>
        <time>2014-05-25T10:57:29Z</time>
      </trkpt>
      <trkpt lat="45.864712754264474" lon="9.337191190570593">
        <ele>1220.53</ele>
        <time>2014-05-25T10:57:41Z</time>
      </trkpt>
      <trkpt lat="45.864643016830087" lon="9.337094463407993">
        <ele>1219.5699999999999</ele>
        <time>2014-05-25T10:57:55Z</time>
      </trkpt>
      <trkpt lat="45.864613009616733" lon="9.337059846147895">
        <ele>1218.6099999999999</ele>
        <time>2014-05-25T10:58:11Z</time>
      </trkpt>
      <trkpt lat="45.864604208618402" lon="9.337011147290468">
        <ele>1216.6900000000001</ele>
        <time>2014-05-25T10:58:24Z</time>
      </trkpt>
      <trkpt lat="45.864581493660808" lon="9.336996395140886">
        <ele>1214.76</ele>
        <time>2014-05-25T10:58:30Z</time>
      </trkpt>
      <trkpt lat="45.864527262747288" lon="9.33697703294456">
        <ele>1212.3599999999999</ele>
        <time>2014-05-25T10:58:43Z</time>
      </trkpt>
      <trkpt lat="45.864500273019075" lon="9.336966807022691">
        <ele>1210.4400000000001</ele>
        <time>2014-05-25T10:58:53Z</time>
      </trkpt>
      <trkpt lat="45.864451071247458" lon="9.336944427341223">
        <ele>1208.03</ele>
        <time>2014-05-25T10:59:07Z</time>
      </trkpt>
      <trkpt lat="45.864427937194705" lon="9.336940823122859">
        <ele>1206.1099999999999</ele>
        <time>2014-05-25T10:59:11Z</time>
      </trkpt>
      <trkpt lat="45.864371526986361" lon="9.336959766224027">
        <ele>1204.1900000000001</ele>
        <time>2014-05-25T10:59:24Z</time>
      </trkpt>
      <trkpt lat="45.86439399048686" lon="9.336885083466768">
        <ele>1202.27</ele>
        <time>2014-05-25T10:59:35Z</time>
      </trkpt>
      <trkpt lat="45.864376556128263" lon="9.33683630079031">
        <ele>1201.3</ele>
        <time>2014-05-25T10:59:48Z</time>
      </trkpt>
      <trkpt lat="45.864358199760318" lon="9.336774945259094">
        <ele>1200.3399999999999</ele>
        <time>2014-05-25T11:00:06Z</time>
      </trkpt>
      <trkpt lat="45.864390218630433" lon="9.336746782064438">
        <ele>1199.3800000000001</ele>
        <time>2014-05-25T11:00:20Z</time>
      </trkpt>
      <trkpt lat="45.864416789263487" lon="9.336725240573287">
        <ele>1198.9000000000001</ele>
        <time>2014-05-25T11:00:32Z</time>
      </trkpt>
      <trkpt lat="45.864379489794374" lon="9.336717361584306">
        <ele>1197.46</ele>
        <time>2014-05-25T11:00:44Z</time>
      </trkpt>
      <trkpt lat="45.864363899454474" lon="9.336684755980969">
        <ele>1194.5799999999999</ele>
        <time>2014-05-25T11:00:48Z</time>
      </trkpt>
      <trkpt lat="45.86437881924212" lon="9.336637398228049">
        <ele>1193.1300000000001</ele>
        <time>2014-05-25T11:00:52Z</time>
      </trkpt>
      <trkpt lat="45.864382339641452" lon="9.336610157042742">
        <ele>1192.6500000000001</ele>
        <time>2014-05-25T11:00:54Z</time>
      </trkpt>
      <trkpt lat="45.864366414025426" lon="9.336512759327889">
        <ele>1189.77</ele>
        <time>2014-05-25T11:01:04Z</time>
      </trkpt>
      <trkpt lat="45.864331042394042" lon="9.336530528962612">
        <ele>1188.8099999999999</ele>
        <time>2014-05-25T11:01:17Z</time>
      </trkpt>
      <trkpt lat="45.864312602207065" lon="9.336557602509856">
        <ele>1187.3699999999999</ele>
        <time>2014-05-25T11:01:23Z</time>
      </trkpt>
      <trkpt lat="45.864296928048134" lon="9.336562380194664">
        <ele>1185.9200000000001</ele>
        <time>2014-05-25T11:01:38Z</time>
      </trkpt>
      <trkpt lat="45.864289384335279" lon="9.336598590016365">
        <ele>1184.96</ele>
        <time>2014-05-25T11:01:49Z</time>
      </trkpt>
      <trkpt lat="45.864274045452476" lon="9.336634883657098">
        <ele>1183.52</ele>
        <time>2014-05-25T11:02:04Z</time>
      </trkpt>
      <trkpt lat="45.864269016310573" lon="9.336651144549251">
        <ele>1182.5599999999999</ele>
        <time>2014-05-25T11:02:08Z</time>
      </trkpt>
      <trkpt lat="45.864213109016418" lon="9.336594650521874">
        <ele>1179.6700000000001</ele>
        <time>2014-05-25T11:02:18Z</time>
      </trkpt>
      <trkpt lat="45.86421076208353" lon="9.336567493155599">
        <ele>1178.71</ele>
        <time>2014-05-25T11:02:20Z</time>
      </trkpt>
      <trkpt lat="45.86420975625515" lon="9.33649817481637">
        <ele>1176.79</ele>
        <time>2014-05-25T11:02:29Z</time>
      </trkpt>
      <trkpt lat="45.864203218370676" lon="9.336442435160279">
        <ele>1176.3099999999999</ele>
        <time>2014-05-25T11:02:42Z</time>
      </trkpt>
      <trkpt lat="45.864194920286536" lon="9.336374877020717">
        <ele>1174.8699999999999</ele>
        <time>2014-05-25T11:02:54Z</time>
      </trkpt>
      <trkpt lat="45.864204140380025" lon="9.336308995261788">
        <ele>1173.4300000000001</ele>
        <time>2014-05-25T11:03:07Z</time>
      </trkpt>
      <trkpt lat="45.864212103188038" lon="9.336306815966964">
        <ele>1172.95</ele>
        <time>2014-05-25T11:03:09Z</time>
      </trkpt>
      <trkpt lat="45.864212773740292" lon="9.33628661558032">
        <ele>1171.98</ele>
        <time>2014-05-25T11:03:11Z</time>
      </trkpt>
      <trkpt lat="45.864223754033446" lon="9.336194833740592">
        <ele>1171.02</ele>
        <time>2014-05-25T11:03:16Z</time>
      </trkpt>
      <trkpt lat="45.864206906408072" lon="9.336030883714557">
        <ele>1173.4300000000001</ele>
        <time>2014-05-25T11:03:29Z</time>
      </trkpt>
      <trkpt lat="45.864182766526937" lon="9.335954859852791">
        <ele>1174.8699999999999</ele>
        <time>2014-05-25T11:03:42Z</time>
      </trkpt>
      <trkpt lat="45.864165332168341" lon="9.335941867902875">
        <ele>1175.3499999999999</ele>
        <time>2014-05-25T11:03:45Z</time>
      </trkpt>
      <trkpt lat="45.864109173417091" lon="9.335895264521241">
        <ele>1177.27</ele>
        <time>2014-05-25T11:03:58Z</time>
      </trkpt>
      <trkpt lat="45.864054271951318" lon="9.335839189589024">
        <ele>1178.23</ele>
        <time>2014-05-25T11:04:10Z</time>
      </trkpt>
      <trkpt lat="45.86401873268187" lon="9.335801973938942">
        <ele>1176.79</ele>
        <time>2014-05-25T11:04:23Z</time>
      </trkpt>
      <trkpt lat="45.864015547558665" lon="9.33579501695931">
        <ele>1176.79</ele>
        <time>2014-05-25T11:04:25Z</time>
      </trkpt>
      <trkpt lat="45.863993922248483" lon="9.335744641721249">
        <ele>1175.8299999999999</ele>
        <time>2014-05-25T11:04:39Z</time>
      </trkpt>
      <trkpt lat="45.863962238654494" lon="9.335696948692203">
        <ele>1173.9100000000001</ele>
        <time>2014-05-25T11:04:50Z</time>
      </trkpt>
      <trkpt lat="45.863984366878867" lon="9.335672557353973">
        <ele>1172.95</ele>
        <time>2014-05-25T11:05:05Z</time>
      </trkpt>
      <trkpt lat="45.86391219869256" lon="9.335637604817748">
        <ele>1171.98</ele>
        <time>2014-05-25T11:05:18Z</time>
      </trkpt>
      <trkpt lat="45.863887472078204" lon="9.335654117166996">
        <ele>1170.0599999999999</ele>
        <time>2014-05-25T11:05:30Z</time>
      </trkpt>
      <trkpt lat="45.863871211186051" lon="9.335623355582357">
        <ele>1168.6199999999999</ele>
        <time>2014-05-25T11:05:41Z</time>
      </trkpt>
      <trkpt lat="45.863850172609091" lon="9.335516067221761">
        <ele>1168.6199999999999</ele>
        <time>2014-05-25T11:05:53Z</time>
      </trkpt>
      <trkpt lat="45.863801809027791" lon="9.335467871278524">
        <ele>1165.74</ele>
        <time>2014-05-25T11:06:08Z</time>
      </trkpt>
      <trkpt lat="45.863795354962349" lon="9.335473235696554">
        <ele>1166.22</ele>
        <time>2014-05-25T11:06:22Z</time>
      </trkpt>
      <trkpt lat="45.86379393003881" lon="9.335475666448474">
        <ele>1165.26</ele>
        <time>2014-05-25T11:06:41Z</time>
      </trkpt>
      <trkpt lat="45.863782363012433" lon="9.33547742664814">
        <ele>1164.77</ele>
        <time>2014-05-25T11:06:58Z</time>
      </trkpt>
      <trkpt lat="45.863758809864521" lon="9.335388243198395">
        <ele>1162.3699999999999</ele>
        <time>2014-05-25T11:07:10Z</time>
      </trkpt>
      <trkpt lat="45.863768281415105" lon="9.335380280390382">
        <ele>1163.3299999999999</ele>
        <time>2014-05-25T11:07:12Z</time>
      </trkpt>
      <trkpt lat="45.863767946138978" lon="9.335374748334289">
        <ele>1161.4100000000001</ele>
        <time>2014-05-25T11:07:15Z</time>
      </trkpt>
      <trkpt lat="45.863687060773373" lon="9.33528489433229">
        <ele>1159.49</ele>
        <time>2014-05-25T11:07:27Z</time>
      </trkpt>
      <trkpt lat="45.863712541759014" lon="9.335207026451826">
        <ele>1158.53</ele>
        <time>2014-05-25T11:07:45Z</time>
      </trkpt>
      <trkpt lat="45.863700052723289" lon="9.335142821073532">
        <ele>1157.5599999999999</ele>
        <time>2014-05-25T11:08:01Z</time>
      </trkpt>
      <trkpt lat="45.863694185391068" lon="9.335134858265519">
        <ele>1157.0799999999999</ele>
        <time>2014-05-25T11:08:18Z</time>
      </trkpt>
      <trkpt lat="45.863673985004425" lon="9.335109628736973">
        <ele>1155.6400000000001</ele>
        <time>2014-05-25T11:08:32Z</time>
      </trkpt>
      <trkpt lat="45.863666776567698" lon="9.335119854658842">
        <ele>1155.6400000000001</ele>
        <time>2014-05-25T11:08:49Z</time>
      </trkpt>
      <trkpt lat="45.863668704405427" lon="9.335172828286886">
        <ele>1154.2</ele>
        <time>2014-05-25T11:08:59Z</time>
      </trkpt>
      <trkpt lat="45.863636434078217" lon="9.335180623456836">
        <ele>1152.28</ele>
        <time>2014-05-25T11:09:14Z</time>
      </trkpt>
      <trkpt lat="45.863624950870872" lon="9.335166206583381">
        <ele>1151.8</ele>
        <time>2014-05-25T11:09:20Z</time>
      </trkpt>
      <trkpt lat="45.86362193338573" lon="9.335150616243482">
        <ele>1151.3199999999999</ele>
        <time>2014-05-25T11:09:31Z</time>
      </trkpt>
      <trkpt lat="45.863578682765365" lon="9.335131337866187">
        <ele>1148.9100000000001</ele>
        <time>2014-05-25T11:09:45Z</time>
      </trkpt>
      <trkpt lat="45.863571306690574" lon="9.335099570453167">
        <ele>1147.95</ele>
        <time>2014-05-25T11:10:00Z</time>
      </trkpt>
      <trkpt lat="45.86356577463448" lon="9.335054308176041">
        <ele>1146.51</ele>
        <time>2014-05-25T11:10:15Z</time>
      </trkpt>
      <trkpt lat="45.863548759371042" lon="9.335064953193069">
        <ele>1145.0699999999999</ele>
        <time>2014-05-25T11:10:25Z</time>
      </trkpt>
      <trkpt lat="45.863544903695583" lon="9.335029246285558">
        <ele>1143.6300000000001</ele>
        <time>2014-05-25T11:10:37Z</time>
      </trkpt>
      <trkpt lat="45.863544149324298" lon="9.335010889917612">
        <ele>1143.6300000000001</ele>
        <time>2014-05-25T11:10:48Z</time>
      </trkpt>
      <trkpt lat="45.863593434914947" lon="9.334927992895246">
        <ele>1141.22</ele>
        <time>2014-05-25T11:11:01Z</time>
      </trkpt>
      <trkpt lat="45.863565187901258" lon="9.334948193281889">
        <ele>1138.3399999999999</ele>
        <time>2014-05-25T11:11:12Z</time>
      </trkpt>
      <trkpt lat="45.863539958372712" lon="9.334963699802756">
        <ele>1137.8599999999999</ele>
        <time>2014-05-25T11:11:29Z</time>
      </trkpt>
      <trkpt lat="45.863503748551011" lon="9.334924723953009">
        <ele>1136.9000000000001</ele>
        <time>2014-05-25T11:11:46Z</time>
      </trkpt>
      <trkpt lat="45.863497545942664" lon="9.334919359534979">
        <ele>1136.9000000000001</ele>
        <time>2014-05-25T11:11:47Z</time>
      </trkpt>
      <trkpt lat="45.863490756601095" lon="9.334896560758352">
        <ele>1135.45</ele>
        <time>2014-05-25T11:11:50Z</time>
      </trkpt>
      <trkpt lat="45.863491510972381" lon="9.334874264895916">
        <ele>1134.49</ele>
        <time>2014-05-25T11:12:04Z</time>
      </trkpt>
      <trkpt lat="45.863493522629142" lon="9.33488474227488">
        <ele>1132.5699999999999</ele>
        <time>2014-05-25T11:12:19Z</time>
      </trkpt>
      <trkpt lat="45.863490756601095" lon="9.334792708978057">
        <ele>1130.1700000000001</ele>
        <time>2014-05-25T11:12:32Z</time>
      </trkpt>
      <trkpt lat="45.86354817263782" lon="9.3347127456218">
        <ele>1127.28</ele>
        <time>2014-05-25T11:12:44Z</time>
      </trkpt>
      <trkpt lat="45.863575497642159" lon="9.334645690396428">
        <ele>1125.8399999999999</ele>
        <time>2014-05-25T11:12:58Z</time>
      </trkpt>
      <trkpt lat="45.863565858453512" lon="9.33458374813199">
        <ele>1124.4000000000001</ele>
        <time>2014-05-25T11:13:10Z</time>
      </trkpt>
      <trkpt lat="45.863572983071208" lon="9.334535803645849">
        <ele>1125.8399999999999</ele>
        <time>2014-05-25T11:13:17Z</time>
      </trkpt>
      <trkpt lat="45.86353107355535" lon="9.334408231079578">
        <ele>1125.3599999999999</ele>
        <time>2014-05-25T11:13:31Z</time>
      </trkpt>
      <trkpt lat="45.863508526235819" lon="9.334354838356376">
        <ele>1125.8399999999999</ele>
        <time>2014-05-25T11:13:44Z</time>
      </trkpt>
      <trkpt lat="45.863478351384401" lon="9.334331033751369">
        <ele>1124.8800000000001</ele>
        <time>2014-05-25T11:14:02Z</time>
      </trkpt>
      <trkpt lat="45.863461336120963" lon="9.334122240543366">
        <ele>1122.96</ele>
        <time>2014-05-25T11:14:17Z</time>
      </trkpt>
      <trkpt lat="45.863488158211112" lon="9.334079492837191">
        <ele>1122.96</ele>
        <time>2014-05-25T11:14:29Z</time>
      </trkpt>
      <trkpt lat="45.863492097705603" lon="9.334104470908642">
        <ele>1122.96</ele>
        <time>2014-05-25T11:14:46Z</time>
      </trkpt>
      <trkpt lat="45.863479189574718" lon="9.334110338240862">
        <ele>1122.96</ele>
        <time>2014-05-25T11:15:06Z</time>
      </trkpt>
      <trkpt lat="45.863465024158359" lon="9.334228690713644">
        <ele>1124.4000000000001</ele>
        <time>2014-05-25T11:15:19Z</time>
      </trkpt>
      <trkpt lat="45.863453457131982" lon="9.334222823381424">
        <ele>1122.48</ele>
        <time>2014-05-25T11:15:29Z</time>
      </trkpt>
      <trkpt lat="45.863449098542333" lon="9.334203964099288">
        <ele>1122.48</ele>
        <time>2014-05-25T11:15:47Z</time>
      </trkpt>
      <trkpt lat="45.863439375534654" lon="9.334215698763728">
        <ele>1122.96</ele>
        <time>2014-05-25T11:16:19Z</time>
      </trkpt>
      <trkpt lat="45.863439040258527" lon="9.334205137565732">
        <ele>1122.96</ele>
        <time>2014-05-25T11:16:45Z</time>
      </trkpt>
      <trkpt lat="45.863422360271215" lon="9.334216034039855">
        <ele>1122.48</ele>
        <time>2014-05-25T11:16:57Z</time>
      </trkpt>
      <trkpt lat="45.863422527909279" lon="9.334196504205465">
        <ele>1122.48</ele>
        <time>2014-05-25T11:16:59Z</time>
      </trkpt>
      <trkpt lat="45.863426048308611" lon="9.334136322140694">
        <ele>1122</ele>
        <time>2014-05-25T11:17:02Z</time>
      </trkpt>
      <trkpt lat="45.863419258967042" lon="9.334077313542366">
        <ele>1120.55</ele>
        <time>2014-05-25T11:17:06Z</time>
      </trkpt>
      <trkpt lat="45.863469215109944" lon="9.333957033231854">
        <ele>1118.6300000000001</ele>
        <time>2014-05-25T11:17:18Z</time>
      </trkpt>
      <trkpt lat="45.863461084663868" lon="9.333908250555396">
        <ele>1116.71</ele>
        <time>2014-05-25T11:17:23Z</time>
      </trkpt>
      <trkpt lat="45.86343820206821" lon="9.333883859217167">
        <ele>1115.75</ele>
        <time>2014-05-25T11:17:28Z</time>
      </trkpt>
      <trkpt lat="45.863411296159029" lon="9.333749664947391">
        <ele>1114.3099999999999</ele>
        <time>2014-05-25T11:17:41Z</time>
      </trkpt>
      <trkpt lat="45.863404087722301" lon="9.333756705746055">
        <ele>1113.8199999999999</ele>
        <time>2014-05-25T11:17:54Z</time>
      </trkpt>
      <trkpt lat="45.863479860126972" lon="9.333767769858241">
        <ele>1113.3399999999999</ele>
        <time>2014-05-25T11:18:18Z</time>
      </trkpt>
      <trkpt lat="45.863434933125973" lon="9.333769446238875">
        <ele>1113.3399999999999</ele>
        <time>2014-05-25T11:18:51Z</time>
      </trkpt>
      <trkpt lat="45.863418588414788" lon="9.333771374076605">
        <ele>1113.8199999999999</ele>
        <time>2014-05-25T11:19:17Z</time>
      </trkpt>
      <trkpt lat="45.863443734124303" lon="9.333763075992465">
        <ele>1113.8199999999999</ele>
        <time>2014-05-25T11:19:49Z</time>
      </trkpt>
      <trkpt lat="45.863417079672217" lon="9.333771457895637">
        <ele>1113.8199999999999</ele>
        <time>2014-05-25T11:20:14Z</time>
      </trkpt>
      <trkpt lat="45.863404925912619" lon="9.333744384348393">
        <ele>1113.8199999999999</ele>
        <time>2014-05-25T11:20:46Z</time>
      </trkpt>
      <trkpt lat="45.863419426605105" lon="9.333737678825855">
        <ele>1113.8199999999999</ele>
        <time>2014-05-25T11:21:17Z</time>
      </trkpt>
      <trkpt lat="45.863415151834488" lon="9.333746731281281">
        <ele>1113.8199999999999</ele>
        <time>2014-05-25T11:21:44Z</time>
      </trkpt>
      <trkpt lat="45.863429484888911" lon="9.33372518979013">
        <ele>1113.8199999999999</ele>
        <time>2014-05-25T11:22:13Z</time>
      </trkpt>
      <trkpt lat="45.863446751609445" lon="9.333758298307657">
        <ele>1113.8199999999999</ele>
        <time>2014-05-25T11:22:44Z</time>
      </trkpt>
      <trkpt lat="45.863404758274555" lon="9.333745641633868">
        <ele>1114.3099999999999</ele>
        <time>2014-05-25T11:23:19Z</time>
      </trkpt>
      <trkpt lat="45.863392939791083" lon="9.333742624148727">
        <ele>1114.3099999999999</ele>
        <time>2014-05-25T11:23:45Z</time>
      </trkpt>
      <trkpt lat="45.863377684727311" lon="9.333787215873599">
        <ele>1114.3099999999999</ele>
        <time>2014-05-25T11:24:25Z</time>
      </trkpt>
      <trkpt lat="45.863391347229481" lon="9.333776403218508">
        <ele>1114.3099999999999</ele>
        <time>2014-05-25T11:24:57Z</time>
      </trkpt>
      <trkpt lat="45.863378942012787" lon="9.333767183125019">
        <ele>1114.79</ele>
        <time>2014-05-25T11:25:30Z</time>
      </trkpt>
      <trkpt lat="45.863386988639832" lon="9.33376039378345">
        <ele>1114.79</ele>
        <time>2014-05-25T11:25:54Z</time>
      </trkpt>
      <trkpt lat="45.863396124914289" lon="9.333744635805488">
        <ele>1115.27</ele>
        <time>2014-05-25T11:26:19Z</time>
      </trkpt>
      <trkpt lat="45.863405093550682" lon="9.333729548379779">
        <ele>1114.79</ele>
        <time>2014-05-25T11:26:52Z</time>
      </trkpt>
      <trkpt lat="45.863382797688246" lon="9.333742624148727">
        <ele>1114.79</ele>
        <time>2014-05-25T11:27:26Z</time>
      </trkpt>
      <trkpt lat="45.863397298380733" lon="9.33375695720315">
        <ele>1114.79</ele>
        <time>2014-05-25T11:27:54Z</time>
      </trkpt>
      <trkpt lat="45.863387072458863" lon="9.333819570019841">
        <ele>1114.79</ele>
        <time>2014-05-25T11:28:31Z</time>
      </trkpt>
      <trkpt lat="45.863392185419798" lon="9.333793250843883">
        <ele>1115.27</ele>
        <time>2014-05-25T11:29:03Z</time>
      </trkpt>
      <trkpt lat="45.863385228440166" lon="9.333782689645886">
        <ele>1115.27</ele>
        <time>2014-05-25T11:29:47Z</time>
      </trkpt>
      <trkpt lat="45.863409535959363" lon="9.333776654675603">
        <ele>1115.27</ele>
        <time>2014-05-25T11:30:26Z</time>
      </trkpt>
      <trkpt lat="45.863434178754687" lon="9.333778414875269">
        <ele>1115.27</ele>
        <time>2014-05-25T11:30:57Z</time>
      </trkpt>
      <trkpt lat="45.863431915640831" lon="9.333746731281281">
        <ele>1115.75</ele>
        <time>2014-05-25T11:31:30Z</time>
      </trkpt>
      <trkpt lat="45.863467874005437" lon="9.333762070164084">
        <ele>1116.23</ele>
        <time>2014-05-25T11:32:05Z</time>
      </trkpt>
      <trkpt lat="45.86349100805819" lon="9.333744551986456">
        <ele>1115.75</ele>
        <time>2014-05-25T11:32:45Z</time>
      </trkpt>
      <trkpt lat="45.863432586193085" lon="9.333782102912664">
        <ele>1116.23</ele>
        <time>2014-05-25T11:33:24Z</time>
      </trkpt>
      <trkpt lat="45.863428311422467" lon="9.333790484815836">
        <ele>1116.23</ele>
        <time>2014-05-25T11:34:06Z</time>
      </trkpt>
      <trkpt lat="45.863398471847177" lon="9.333786210045219">
        <ele>1116.23</ele>
        <time>2014-05-25T11:34:45Z</time>
      </trkpt>
      <trkpt lat="45.863423701375723" lon="9.333767099305987">
        <ele>1116.71</ele>
        <time>2014-05-25T11:35:25Z</time>
      </trkpt>
      <trkpt lat="45.863417498767376" lon="9.333720495924354">
        <ele>1116.71</ele>
        <time>2014-05-25T11:36:03Z</time>
      </trkpt>
      <trkpt lat="45.863418001681566" lon="9.333695266395807">
        <ele>1116.23</ele>
        <time>2014-05-25T11:36:36Z</time>
      </trkpt>
      <trkpt lat="45.863405177369714" lon="9.333726027980447">
        <ele>1117.6700000000001</ele>
        <time>2014-05-25T11:37:13Z</time>
      </trkpt>
      <trkpt lat="45.863399477675557" lon="9.333717059344053">
        <ele>1116.23</ele>
        <time>2014-05-25T11:37:45Z</time>
      </trkpt>
      <trkpt lat="45.863409955054522" lon="9.333699876442552">
        <ele>1116.71</ele>
        <time>2014-05-25T11:38:18Z</time>
      </trkpt>
      <trkpt lat="45.863414984196424" lon="9.333689315244556">
        <ele>1116.23</ele>
        <time>2014-05-25T11:38:52Z</time>
      </trkpt>
      <trkpt lat="45.863395957276225" lon="9.333689566701651">
        <ele>1116.71</ele>
        <time>2014-05-25T11:39:29Z</time>
      </trkpt>
      <trkpt lat="45.863384893164039" lon="9.333720998838544">
        <ele>1116.71</ele>
        <time>2014-05-25T11:40:07Z</time>
      </trkpt>
      <trkpt lat="45.863384725525975" lon="9.333753688260913">
        <ele>1116.23</ele>
        <time>2014-05-25T11:40:33Z</time>
      </trkpt>
      <trkpt lat="45.863378020003438" lon="9.333764417096973">
        <ele>1116.71</ele>
        <time>2014-05-25T11:41:06Z</time>
      </trkpt>
      <trkpt lat="45.863414648920298" lon="9.333791909739375">
        <ele>1116.23</ele>
        <time>2014-05-25T11:41:45Z</time>
      </trkpt>
      <trkpt lat="45.863401992246509" lon="9.333681520074606">
        <ele>1116.71</ele>
        <time>2014-05-25T11:42:26Z</time>
      </trkpt>
      <trkpt lat="45.863404422998428" lon="9.333734912797809">
        <ele>1117.1900000000001</ele>
        <time>2014-05-25T11:42:57Z</time>
      </trkpt>
      <trkpt lat="45.863440381363034" lon="9.333736086264253">
        <ele>1117.1900000000001</ele>
        <time>2014-05-25T11:43:31Z</time>
      </trkpt>
      <trkpt lat="45.863401824608445" lon="9.333764081820846">
        <ele>1117.1900000000001</ele>
        <time>2014-05-25T11:44:06Z</time>
      </trkpt>
      <trkpt lat="45.863369973376393" lon="9.333802135661244">
        <ele>1117.6700000000001</ele>
        <time>2014-05-25T11:44:42Z</time>
      </trkpt>
      <trkpt lat="45.863399058580399" lon="9.333731476217508">
        <ele>1117.6700000000001</ele>
        <time>2014-05-25T11:45:20Z</time>
      </trkpt>
      <trkpt lat="45.863411547616124" lon="9.333781180903316">
        <ele>1117.6700000000001</ele>
        <time>2014-05-25T11:45:57Z</time>
      </trkpt>
      <trkpt lat="45.863407691940665" lon="9.333761399611831">
        <ele>1118.1500000000001</ele>
        <time>2014-05-25T11:46:36Z</time>
      </trkpt>
      <trkpt lat="45.863401908427477" lon="9.333796435967088">
        <ele>1118.6300000000001</ele>
        <time>2014-05-25T11:47:14Z</time>
      </trkpt>
      <trkpt lat="45.863393694162369" lon="9.333741199225187">
        <ele>1118.6300000000001</ele>
        <time>2014-05-25T11:47:50Z</time>
      </trkpt>
      <trkpt lat="45.863421354442835" lon="9.333785539492965">
        <ele>1119.1099999999999</ele>
        <time>2014-05-25T11:48:22Z</time>
      </trkpt>
      <trkpt lat="45.863403920084238" lon="9.333791909739375">
        <ele>1119.1099999999999</ele>
        <time>2014-05-25T11:49:00Z</time>
      </trkpt>
      <trkpt lat="45.863400986418128" lon="9.333754694089294">
        <ele>1119.5899999999999</ele>
        <time>2014-05-25T11:49:30Z</time>
      </trkpt>
      <trkpt lat="45.863374834880233" lon="9.333686800673604">
        <ele>1120.0699999999999</ele>
        <time>2014-05-25T11:50:03Z</time>
      </trkpt>
      <trkpt lat="45.863385647535324" lon="9.333748407661915">
        <ele>1119.5899999999999</ele>
        <time>2014-05-25T11:50:19Z</time>
      </trkpt>
      <trkpt lat="45.863404171541333" lon="9.333778582513332">
        <ele>1119.5899999999999</ele>
        <time>2014-05-25T11:50:48Z</time>
      </trkpt>
      <trkpt lat="45.863413056358695" lon="9.333772715181112">
        <ele>1119.5899999999999</ele>
        <time>2014-05-25T11:51:13Z</time>
      </trkpt>
      <trkpt lat="45.863425377756357" lon="9.333833400160074">
        <ele>1115.75</ele>
        <time>2014-05-25T11:51:52Z</time>
      </trkpt>
      <trkpt lat="45.863426132127643" lon="9.333832142874599">
        <ele>1115.75</ele>
        <time>2014-05-25T11:51:53Z</time>
      </trkpt>
      <trkpt lat="45.863439291715622" lon="9.333839938044548">
        <ele>1119.5899999999999</ele>
        <time>2014-05-25T11:51:59Z</time>
      </trkpt>
      <trkpt lat="45.863439375534654" lon="9.33384102769196">
        <ele>1119.5899999999999</ele>
        <time>2014-05-25T11:52:00Z</time>
      </trkpt>
      <trkpt lat="45.86342403665185" lon="9.333786712959409">
        <ele>1123.4400000000001</ele>
        <time>2014-05-25T11:52:10Z</time>
      </trkpt>
      <trkpt lat="45.863424791023135" lon="9.333784114569426">
        <ele>1123.4400000000001</ele>
        <time>2014-05-25T11:52:11Z</time>
      </trkpt>
      <trkpt lat="45.863429233431816" lon="9.333753352984786">
        <ele>1120.0699999999999</ele>
        <time>2014-05-25T11:52:21Z</time>
      </trkpt>
      <trkpt lat="45.863432167097926" lon="9.333752766251564">
        <ele>1120.0699999999999</ele>
        <time>2014-05-25T11:52:22Z</time>
      </trkpt>
      <trkpt lat="45.863423449918628" lon="9.333746647462249">
        <ele>1120.55</ele>
        <time>2014-05-25T11:52:40Z</time>
      </trkpt>
      <trkpt lat="45.863406099379063" lon="9.333775145933032">
        <ele>1121.03</ele>
        <time>2014-05-25T11:53:01Z</time>
      </trkpt>
      <trkpt lat="45.863423701375723" lon="9.333784114569426">
        <ele>1120.55</ele>
        <time>2014-05-25T11:53:31Z</time>
      </trkpt>
      <trkpt lat="45.863410206511617" lon="9.333786042407155">
        <ele>1120.0699999999999</ele>
        <time>2014-05-25T11:54:07Z</time>
      </trkpt>
      <trkpt lat="45.86339327506721" lon="9.333835495635867">
        <ele>1122.48</ele>
        <time>2014-05-25T11:54:33Z</time>
      </trkpt>
      <trkpt lat="45.863392436876893" lon="9.333832059055567">
        <ele>1119.1099999999999</ele>
        <time>2014-05-25T11:54:35Z</time>
      </trkpt>
      <trkpt lat="45.863392017781734" lon="9.333828538656235">
        <ele>1122.48</ele>
        <time>2014-05-25T11:54:36Z</time>
      </trkpt>
      <trkpt lat="45.863385144621134" lon="9.333791993558407">
        <ele>1121.52</ele>
        <time>2014-05-25T11:54:53Z</time>
      </trkpt>
      <trkpt lat="45.863405093550682" lon="9.333771374076605">
        <ele>1121.03</ele>
        <time>2014-05-25T11:55:15Z</time>
      </trkpt>
      <trkpt lat="45.863408027216792" lon="9.333700630813837">
        <ele>1121.03</ele>
        <time>2014-05-25T11:55:49Z</time>
      </trkpt>
      <trkpt lat="45.863368716090918" lon="9.333769949153066">
        <ele>1121.52</ele>
        <time>2014-05-25T11:56:31Z</time>
      </trkpt>
      <trkpt lat="45.863397549837828" lon="9.333790149539709">
        <ele>1122</ele>
        <time>2014-05-25T11:57:09Z</time>
      </trkpt>
      <trkpt lat="45.863412218168378" lon="9.333698367699981">
        <ele>1122</ele>
        <time>2014-05-25T11:57:49Z</time>
      </trkpt>
      <trkpt lat="45.863413559272885" lon="9.333657631650567">
        <ele>1122</ele>
        <time>2014-05-25T11:58:16Z</time>
      </trkpt>
      <trkpt lat="45.863392101600766" lon="9.333670120686293">
        <ele>1121.52</ele>
        <time>2014-05-25T11:58:46Z</time>
      </trkpt>
      <trkpt lat="45.863430323079228" lon="9.333711108192802">
        <ele>1122</ele>
        <time>2014-05-25T11:59:06Z</time>
      </trkpt>
      <trkpt lat="45.863379277288914" lon="9.333722926676273">
        <ele>1122</ele>
        <time>2014-05-25T11:59:25Z</time>
      </trkpt>
      <trkpt lat="45.863168640062213" lon="9.333780342712998">
        <ele>1121.52</ele>
        <time>2014-05-25T11:59:48Z</time>
      </trkpt>
      <trkpt lat="45.863367710262537" lon="9.333755280822516">
        <ele>1122</ele>
        <time>2014-05-25T12:00:14Z</time>
      </trkpt>
      <trkpt lat="45.863404925912619" lon="9.333763243630529">
        <ele>1122</ele>
        <time>2014-05-25T12:00:31Z</time>
      </trkpt>
      <trkpt lat="45.86339570581913" lon="9.33376282453537">
        <ele>1122</ele>
        <time>2014-05-25T12:00:59Z</time>
      </trkpt>
      <trkpt lat="45.863359160721302" lon="9.333772882819176">
        <ele>1122</ele>
        <time>2014-05-25T12:01:33Z</time>
      </trkpt>
      <trkpt lat="45.86344163864851" lon="9.333765506744385">
        <ele>1122.48</ele>
        <time>2014-05-25T12:02:04Z</time>
      </trkpt>
      <trkpt lat="45.863409535959363" lon="9.333775648847222">
        <ele>1122</ele>
        <time>2014-05-25T12:02:32Z</time>
      </trkpt>
      <trkpt lat="45.86338640190661" lon="9.333803476765752">
        <ele>1122.96</ele>
        <time>2014-05-25T12:03:09Z</time>
      </trkpt>
      <trkpt lat="45.863408949226141" lon="9.333712616935372">
        <ele>1122.96</ele>
        <time>2014-05-25T12:03:38Z</time>
      </trkpt>
      <trkpt lat="45.863397046923637" lon="9.333727620542049">
        <ele>1122.48</ele>
        <time>2014-05-25T12:04:02Z</time>
      </trkpt>
      <trkpt lat="45.863396124914289" lon="9.333738852292299">
        <ele>1122.96</ele>
        <time>2014-05-25T12:04:20Z</time>
      </trkpt>
      <trkpt lat="45.863373577594757" lon="9.333732649683952">
        <ele>1122.48</ele>
        <time>2014-05-25T12:04:43Z</time>
      </trkpt>
      <trkpt lat="45.863389419391751" lon="9.33370859362185">
        <ele>1122.96</ele>
        <time>2014-05-25T12:05:06Z</time>
      </trkpt>
      <trkpt lat="45.863398388028145" lon="9.333686465397477">
        <ele>1122.48</ele>
        <time>2014-05-25T12:05:32Z</time>
      </trkpt>
      <trkpt lat="45.86340107023716" lon="9.333705073222518">
        <ele>1122.48</ele>
        <time>2014-05-25T12:06:03Z</time>
      </trkpt>
      <trkpt lat="45.863425126299262" lon="9.333718065172434">
        <ele>1122</ele>
        <time>2014-05-25T12:06:19Z</time>
      </trkpt>
      <trkpt lat="45.863422276452184" lon="9.333701049908996">
        <ele>1122</ele>
        <time>2014-05-25T12:06:30Z</time>
      </trkpt>
      <trkpt lat="45.863408027216792" lon="9.333707252517343">
        <ele>1122</ele>
        <time>2014-05-25T12:06:33Z</time>
      </trkpt>
      <trkpt lat="45.863441554829478" lon="9.333713538944721">
        <ele>1122.96</ele>
        <time>2014-05-25T12:06:47Z</time>
      </trkpt>
      <trkpt lat="45.863434849306941" lon="9.333699624985457">
        <ele>1122.96</ele>
        <time>2014-05-25T12:07:09Z</time>
      </trkpt>
      <trkpt lat="45.863430155441165" lon="9.333695936948061">
        <ele>1122.96</ele>
        <time>2014-05-25T12:07:28Z</time>
      </trkpt>
      <trkpt lat="45.863408697769046" lon="9.333691745996475">
        <ele>1122.48</ele>
        <time>2014-05-25T12:07:48Z</time>
      </trkpt>
      <trkpt lat="45.863408865407109" lon="9.333657966926694">
        <ele>1122.48</ele>
        <time>2014-05-25T12:08:16Z</time>
      </trkpt>
      <trkpt lat="45.863433927297592" lon="9.333684705197811">
        <ele>1122.48</ele>
        <time>2014-05-25T12:08:38Z</time>
      </trkpt>
      <trkpt lat="45.863421438261867" lon="9.333672719076276">
        <ele>1122.48</ele>
        <time>2014-05-25T12:08:50Z</time>
      </trkpt>
      <trkpt lat="45.86340693756938" lon="9.333660397678614">
        <ele>1122.48</ele>
        <time>2014-05-25T12:09:10Z</time>
      </trkpt>
      <trkpt lat="45.863381456583738" lon="9.333610022440553">
        <ele>1123.9200000000001</ele>
        <time>2014-05-25T12:09:23Z</time>
      </trkpt>
      <trkpt lat="45.863382127135992" lon="9.333538273349404">
        <ele>1127.28</ele>
        <time>2014-05-25T12:09:33Z</time>
      </trkpt>
      <trkpt lat="45.863300990313292" lon="9.333413718268275">
        <ele>1128.24</ele>
        <time>2014-05-25T12:09:48Z</time>
      </trkpt>
      <trkpt lat="45.86321147158742" lon="9.333293689414859">
        <ele>1131.1300000000001</ele>
        <time>2014-05-25T12:10:03Z</time>
      </trkpt>
      <trkpt lat="45.863197389990091" lon="9.333146084100008">
        <ele>1133.05</ele>
        <time>2014-05-25T12:10:18Z</time>
      </trkpt>
      <trkpt lat="45.863145170733333" lon="9.333072826266289">
        <ele>1136.4200000000001</ele>
        <time>2014-05-25T12:10:33Z</time>
      </trkpt>
      <trkpt lat="45.863120947033167" lon="9.332895632833242">
        <ele>1139.3</ele>
        <time>2014-05-25T12:10:50Z</time>
      </trkpt>
      <trkpt lat="45.863107368350029" lon="9.332765294238925">
        <ele>1142.1800000000001</ele>
        <time>2014-05-25T12:11:08Z</time>
      </trkpt>
      <trkpt lat="45.863008461892605" lon="9.332615090534091">
        <ele>1143.6300000000001</ele>
        <time>2014-05-25T12:11:24Z</time>
      </trkpt>
      <trkpt lat="45.862968899309635" lon="9.332556836307049">
        <ele>1145.0699999999999</ele>
        <time>2014-05-25T12:11:32Z</time>
      </trkpt>
      <trkpt lat="45.862899329513311" lon="9.332470670342445">
        <ele>1146.51</ele>
        <time>2014-05-25T12:11:45Z</time>
      </trkpt>
      <trkpt lat="45.862857755273581" lon="9.332373356446624">
        <ele>1147.95</ele>
        <time>2014-05-25T12:12:00Z</time>
      </trkpt>
      <trkpt lat="45.862816851586103" lon="9.33226958848536">
        <ele>1149.8699999999999</ele>
        <time>2014-05-25T12:12:15Z</time>
      </trkpt>
      <trkpt lat="45.862819869071245" lon="9.332120474427939">
        <ele>1149.8699999999999</ele>
        <time>2014-05-25T12:12:32Z</time>
      </trkpt>
      <trkpt lat="45.862798579037189" lon="9.331968510523439">
        <ele>1151.8</ele>
        <time>2014-05-25T12:12:45Z</time>
      </trkpt>
      <trkpt lat="45.862818360328674" lon="9.331774972379208">
        <ele>1152.28</ele>
        <time>2014-05-25T12:12:59Z</time>
      </trkpt>
      <trkpt lat="45.86283378303051" lon="9.331618482246995">
        <ele>1155.1600000000001</ele>
        <time>2014-05-25T12:13:19Z</time>
      </trkpt>
      <trkpt lat="45.862841242924333" lon="9.331468278542161">
        <ele>1158.53</ele>
        <time>2014-05-25T12:13:35Z</time>
      </trkpt>
      <trkpt lat="45.862871250137687" lon="9.331387309357524">
        <ele>1157.5599999999999</ele>
        <time>2014-05-25T12:13:52Z</time>
      </trkpt>
      <trkpt lat="45.86292807944119" lon="9.331234004348517">
        <ele>1158.05</ele>
        <time>2014-05-25T12:14:06Z</time>
      </trkpt>
      <trkpt lat="45.862969066947699" lon="9.331135265529156">
        <ele>1158.53</ele>
        <time>2014-05-25T12:14:16Z</time>
      </trkpt>
      <trkpt lat="45.863026734441519" lon="9.331021858379245">
        <ele>1158.05</ele>
        <time>2014-05-25T12:14:28Z</time>
      </trkpt>
      <trkpt lat="45.863022794947028" lon="9.330888753756881">
        <ele>1159.97</ele>
        <time>2014-05-25T12:14:42Z</time>
      </trkpt>
      <trkpt lat="45.863054813817143" lon="9.330741064622998">
        <ele>1160.9300000000001</ele>
        <time>2014-05-25T12:14:57Z</time>
      </trkpt>
      <trkpt lat="45.863158833235502" lon="9.330553058534861">
        <ele>1161.4100000000001</ele>
        <time>2014-05-25T12:15:11Z</time>
      </trkpt>
      <trkpt lat="45.863243825733662" lon="9.330429676920176">
        <ele>1163.3299999999999</ele>
        <time>2014-05-25T12:15:26Z</time>
      </trkpt>
      <trkpt lat="45.863356646150351" lon="9.330315012484789">
        <ele>1165.74</ele>
        <time>2014-05-25T12:15:42Z</time>
      </trkpt>
      <trkpt lat="45.863455720245838" lon="9.330271845683456">
        <ele>1167.1800000000001</ele>
        <time>2014-05-25T12:15:56Z</time>
      </trkpt>
      <trkpt lat="45.863463347777724" lon="9.330267235636711">
        <ele>1167.6600000000001</ele>
        <time>2014-05-25T12:15:57Z</time>
      </trkpt>
      <trkpt lat="45.863477429375052" lon="9.330251393839717">
        <ele>1167.6600000000001</ele>
        <time>2014-05-25T12:16:00Z</time>
      </trkpt>
      <trkpt lat="45.863555297255516" lon="9.330132286995649">
        <ele>1168.1400000000001</ele>
        <time>2014-05-25T12:16:14Z</time>
      </trkpt>
      <trkpt lat="45.863579269498587" lon="9.330096580088139">
        <ele>1167.6600000000001</ele>
        <time>2014-05-25T12:16:17Z</time>
      </trkpt>
      <trkpt lat="45.863659400492907" lon="9.329977976158261">
        <ele>1169.0999999999999</ele>
        <time>2014-05-25T12:16:32Z</time>
      </trkpt>
      <trkpt lat="45.863665603101254" lon="9.329886110499501">
        <ele>1171.5</ele>
        <time>2014-05-25T12:16:46Z</time>
      </trkpt>
      <trkpt lat="45.863680355250835" lon="9.329750072211027">
        <ele>1174.3900000000001</ele>
        <time>2014-05-25T12:17:00Z</time>
      </trkpt>
      <trkpt lat="45.863717319443822" lon="9.329611603170633">
        <ele>1177.75</ele>
        <time>2014-05-25T12:17:18Z</time>
      </trkpt>
      <trkpt lat="45.863786051049829" lon="9.329433320090175">
        <ele>1179.1900000000001</ele>
        <time>2014-05-25T12:17:33Z</time>
      </trkpt>
      <trkpt lat="45.863855872303247" lon="9.329307926818728">
        <ele>1179.1900000000001</ele>
        <time>2014-05-25T12:17:51Z</time>
      </trkpt>
      <trkpt lat="45.86382226087153" lon="9.32932267896831">
        <ele>1179.1900000000001</ele>
        <time>2014-05-25T12:18:15Z</time>
      </trkpt>
      <trkpt lat="45.863887136802077" lon="9.329240201041102">
        <ele>1180.1600000000001</ele>
        <time>2014-05-25T12:18:33Z</time>
      </trkpt>
      <trkpt lat="45.863941870629787" lon="9.329120339825749">
        <ele>1182.5599999999999</ele>
        <time>2014-05-25T12:18:52Z</time>
      </trkpt>
      <trkpt lat="45.864046225324273" lon="9.329057056456804">
        <ele>1184.48</ele>
        <time>2014-05-25T12:19:06Z</time>
      </trkpt>
      <trkpt lat="45.864183520898223" lon="9.328961418941617">
        <ele>1186.4000000000001</ele>
        <time>2014-05-25T12:19:24Z</time>
      </trkpt>
      <trkpt lat="45.864242110401392" lon="9.328841976821423">
        <ele>1187.8499999999999</ele>
        <time>2014-05-25T12:19:37Z</time>
      </trkpt>
      <trkpt lat="45.864294329658151" lon="9.328766455873847">
        <ele>1190.25</ele>
        <time>2014-05-25T12:19:52Z</time>
      </trkpt>
      <trkpt lat="45.864256359636784" lon="9.328749608248472">
        <ele>1192.6500000000001</ele>
        <time>2014-05-25T12:20:05Z</time>
      </trkpt>
      <trkpt lat="45.8642952516675" lon="9.328614408150315">
        <ele>1196.02</ele>
        <time>2014-05-25T12:20:23Z</time>
      </trkpt>
      <trkpt lat="45.864366665482521" lon="9.328531594946981">
        <ele>1196.98</ele>
        <time>2014-05-25T12:20:43Z</time>
      </trkpt>
      <trkpt lat="45.864452579990029" lon="9.328461354598403">
        <ele>1198.4200000000001</ele>
        <time>2014-05-25T12:20:57Z</time>
      </trkpt>
      <trkpt lat="45.864507146179676" lon="9.328398993238807">
        <ele>1201.3</ele>
        <time>2014-05-25T12:21:11Z</time>
      </trkpt>
      <trkpt lat="45.864598760381341" lon="9.328359933570027">
        <ele>1202.75</ele>
        <time>2014-05-25T12:21:24Z</time>
      </trkpt>
      <trkpt lat="45.864664558321238" lon="9.328310312703252">
        <ele>1204.6700000000001</ele>
        <time>2014-05-25T12:21:37Z</time>
      </trkpt>
      <trkpt lat="45.864683669060469" lon="9.32828776538372">
        <ele>1206.1099999999999</ele>
        <time>2014-05-25T12:21:40Z</time>
      </trkpt>
      <trkpt lat="45.864806212484837" lon="9.3282300978899">
        <ele>1208.03</ele>
        <time>2014-05-25T12:21:59Z</time>
      </trkpt>
      <trkpt lat="45.864869747310877" lon="9.328177459537983">
        <ele>1210.4400000000001</ele>
        <time>2014-05-25T12:22:15Z</time>
      </trkpt>
      <trkpt lat="45.864874524995685" lon="9.328138986602426">
        <ele>1213.3199999999999</ele>
        <time>2014-05-25T12:22:30Z</time>
      </trkpt>
      <trkpt lat="45.86482984945178" lon="9.328095400705934">
        <ele>1216.6900000000001</ele>
        <time>2014-05-25T12:22:45Z</time>
      </trkpt>
      <trkpt lat="45.864840326830745" lon="9.328019376844168">
        <ele>1220.05</ele>
        <time>2014-05-25T12:22:56Z</time>
      </trkpt>
      <trkpt lat="45.864808056503534" lon="9.327913261950016">
        <ele>1222.45</ele>
        <time>2014-05-25T12:23:12Z</time>
      </trkpt>
      <trkpt lat="45.86479808203876" lon="9.327840590849519">
        <ele>1224.3800000000001</ele>
        <time>2014-05-25T12:23:25Z</time>
      </trkpt>
      <trkpt lat="45.864773187786341" lon="9.327799770981073">
        <ele>1226.3</ele>
        <time>2014-05-25T12:23:38Z</time>
      </trkpt>
      <trkpt lat="45.864771343767643" lon="9.327788706868887">
        <ele>1225.3399999999999</ele>
        <time>2014-05-25T12:23:44Z</time>
      </trkpt>
      <trkpt lat="45.8647252433002" lon="9.327806895598769">
        <ele>1226.78</ele>
        <time>2014-05-25T12:24:00Z</time>
      </trkpt>
      <trkpt lat="45.86465491913259" lon="9.327845955267549">
        <ele>1227.26</ele>
        <time>2014-05-25T12:24:13Z</time>
      </trkpt>
      <trkpt lat="45.864621056243777" lon="9.327870178967714">
        <ele>1227.26</ele>
        <time>2014-05-25T12:24:29Z</time>
      </trkpt>
      <trkpt lat="45.864629186689854" lon="9.327875543385744">
        <ele>1226.3</ele>
        <time>2014-05-25T12:24:49Z</time>
      </trkpt>
      <trkpt lat="45.864642346277833" lon="9.327853163704276">
        <ele>1227.26</ele>
        <time>2014-05-25T12:25:10Z</time>
      </trkpt>
      <trkpt lat="45.864655673503876" lon="9.327831957489252">
        <ele>1227.26</ele>
        <time>2014-05-25T12:25:32Z</time>
      </trkpt>
      <trkpt lat="45.864641088992357" lon="9.327859031036496">
        <ele>1227.74</ele>
        <time>2014-05-25T12:25:48Z</time>
      </trkpt>
      <trkpt lat="45.864630611613393" lon="9.327871017158032">
        <ele>1227.26</ele>
        <time>2014-05-25T12:26:07Z</time>
      </trkpt>
      <trkpt lat="45.864645279943943" lon="9.327857522293925">
        <ele>1227.74</ele>
        <time>2014-05-25T12:26:29Z</time>
      </trkpt>
      <trkpt lat="45.864636227488518" lon="9.327826509252191">
        <ele>1227.74</ele>
        <time>2014-05-25T12:26:52Z</time>
      </trkpt>
      <trkpt lat="45.864638406783342" lon="9.32784553617239">
        <ele>1228.22</ele>
        <time>2014-05-25T12:27:12Z</time>
      </trkpt>
      <trkpt lat="45.864652823656797" lon="9.327853750437498">
        <ele>1227.74</ele>
        <time>2014-05-25T12:27:39Z</time>
      </trkpt>
      <trkpt lat="45.864656763151288" lon="9.32785433717072">
        <ele>1227.74</ele>
        <time>2014-05-25T12:28:03Z</time>
      </trkpt>
      <trkpt lat="45.864628097042441" lon="9.327829610556364">
        <ele>1227.74</ele>
        <time>2014-05-25T12:28:32Z</time>
      </trkpt>
      <trkpt lat="45.864639831706882" lon="9.327858444303274">
        <ele>1227.74</ele>
        <time>2014-05-25T12:28:57Z</time>
      </trkpt>
      <trkpt lat="45.864601945504546" lon="9.327906472608447">
        <ele>1226.3</ele>
        <time>2014-05-25T12:29:11Z</time>
      </trkpt>
      <trkpt lat="45.864619798958302" lon="9.327891804277897">
        <ele>1225.8199999999999</ele>
        <time>2014-05-25T12:29:35Z</time>
      </trkpt>
      <trkpt lat="45.864610578864813" lon="9.327868083491921">
        <ele>1225.8199999999999</ele>
        <time>2014-05-25T12:30:07Z</time>
      </trkpt>
      <trkpt lat="45.864601526409388" lon="9.327862719073892">
        <ele>1226.78</ele>
        <time>2014-05-25T12:30:41Z</time>
      </trkpt>
      <trkpt lat="45.86460018530488" lon="9.327889122068882">
        <ele>1226.78</ele>
        <time>2014-05-25T12:31:07Z</time>
      </trkpt>
      <trkpt lat="45.864589288830757" lon="9.3278743699193">
        <ele>1226.78</ele>
        <time>2014-05-25T12:31:25Z</time>
      </trkpt>
      <trkpt lat="45.864605633541942" lon="9.327897420153022">
        <ele>1226.78</ele>
        <time>2014-05-25T12:31:56Z</time>
      </trkpt>
      <trkpt lat="45.864597670733929" lon="9.327885685488582">
        <ele>1227.26</ele>
        <time>2014-05-25T12:32:17Z</time>
      </trkpt>
      <trkpt lat="45.86454494856298" lon="9.327905047684908">
        <ele>1228.22</ele>
        <time>2014-05-25T12:32:30Z</time>
      </trkpt>
      <trkpt lat="45.864442521706223" lon="9.327863976359367">
        <ele>1229.1800000000001</ele>
        <time>2014-05-25T12:32:43Z</time>
      </trkpt>
      <trkpt lat="45.864426512271166" lon="9.32788074016571">
        <ele>1228.22</ele>
        <time>2014-05-25T12:32:47Z</time>
      </trkpt>
      <trkpt lat="45.864404970780015" lon="9.327895157039166">
        <ele>1227.26</ele>
        <time>2014-05-25T12:32:49Z</time>
      </trkpt>
      <trkpt lat="45.864318637177348" lon="9.327876213937998">
        <ele>1225.8199999999999</ele>
        <time>2014-05-25T12:33:01Z</time>
      </trkpt>
      <trkpt lat="45.864271949976683" lon="9.327869676053524">
        <ele>1225.3399999999999</ele>
        <time>2014-05-25T12:33:06Z</time>
      </trkpt>
      <trkpt lat="45.864215791225433" lon="9.327792311087251">
        <ele>1225.8199999999999</ele>
        <time>2014-05-25T12:33:19Z</time>
      </trkpt>
      <trkpt lat="45.864121662452817" lon="9.327845452353358">
        <ele>1222.9300000000001</ele>
        <time>2014-05-25T12:33:30Z</time>
      </trkpt>
      <trkpt lat="45.86401135660708" lon="9.327890127897263">
        <ele>1223.4200000000001</ele>
        <time>2014-05-25T12:33:41Z</time>
      </trkpt>
      <trkpt lat="45.863904235884547" lon="9.327953075990081">
        <ele>1222.45</ele>
        <time>2014-05-25T12:33:53Z</time>
      </trkpt>
      <trkpt lat="45.863859979435802" lon="9.327954836189747">
        <ele>1221.49</ele>
        <time>2014-05-25T12:34:07Z</time>
      </trkpt>
      <trkpt lat="45.863786889240146" lon="9.327963721007109">
        <ele>1223.9000000000001</ele>
        <time>2014-05-25T12:34:21Z</time>
      </trkpt>
      <trkpt lat="45.863673565909266" lon="9.328034883365035">
        <ele>1223.9000000000001</ele>
        <time>2014-05-25T12:34:35Z</time>
      </trkpt>
      <trkpt lat="45.863557728007436" lon="9.328181901946664">
        <ele>1222.45</ele>
        <time>2014-05-25T12:34:47Z</time>
      </trkpt>
      <trkpt lat="45.863493019714952" lon="9.328246777877212">
        <ele>1222.9300000000001</ele>
        <time>2014-05-25T12:34:52Z</time>
      </trkpt>
      <trkpt lat="45.863351030275226" lon="9.328380804508925">
        <ele>1225.8199999999999</ele>
        <time>2014-05-25T12:35:06Z</time>
      </trkpt>
      <trkpt lat="45.863241478800774" lon="9.328492786735296">
        <ele>1228.22</ele>
        <time>2014-05-25T12:35:19Z</time>
      </trkpt>
      <trkpt lat="45.86312698200345" lon="9.328661682084203">
        <ele>1229.1800000000001</ele>
        <time>2014-05-25T12:35:34Z</time>
      </trkpt>
      <trkpt lat="45.863058669492602" lon="9.328733514994383">
        <ele>1230.6199999999999</ele>
        <time>2014-05-25T12:35:51Z</time>
      </trkpt>
      <trkpt lat="45.862995469942689" lon="9.32873921468854">
        <ele>1232.0699999999999</ele>
        <time>2014-05-25T12:36:01Z</time>
      </trkpt>
      <trkpt lat="45.862904274836183" lon="9.328876677900553">
        <ele>1233.03</ele>
        <time>2014-05-25T12:36:17Z</time>
      </trkpt>
      <trkpt lat="45.862831687554717" lon="9.328981954604387">
        <ele>1233.99</ele>
        <time>2014-05-25T12:36:30Z</time>
      </trkpt>
      <trkpt lat="45.862784078344703" lon="9.329029731452465">
        <ele>1234.47</ele>
        <time>2014-05-25T12:36:43Z</time>
      </trkpt>
      <trkpt lat="45.86271895095706" lon="9.329070299863815">
        <ele>1234.95</ele>
        <time>2014-05-25T12:36:58Z</time>
      </trkpt>
      <trkpt lat="45.862711071968079" lon="9.329076083377004">
        <ele>1234.95</ele>
        <time>2014-05-25T12:36:59Z</time>
      </trkpt>
      <trkpt lat="45.862613087520003" lon="9.329151771962643">
        <ele>1234.95</ele>
        <time>2014-05-25T12:37:13Z</time>
      </trkpt>
      <trkpt lat="45.8626011852175" lon="9.329162249341607">
        <ele>1235.9100000000001</ele>
        <time>2014-05-25T12:37:29Z</time>
      </trkpt>
      <trkpt lat="45.862568998709321" lon="9.329158896580339">
        <ele>1237.3499999999999</ele>
        <time>2014-05-25T12:37:46Z</time>
      </trkpt>
      <trkpt lat="45.862537901848555" lon="9.329177672043443">
        <ele>1235.9100000000001</ele>
        <time>2014-05-25T12:38:09Z</time>
      </trkpt>
      <trkpt lat="45.862607136368752" lon="9.329201644286513">
        <ele>1236.3900000000001</ele>
        <time>2014-05-25T12:38:29Z</time>
      </trkpt>
      <trkpt lat="45.862545780837536" lon="9.329245230183005">
        <ele>1236.3900000000001</ele>
        <time>2014-05-25T12:38:54Z</time>
      </trkpt>
      <trkpt lat="45.862631695345044" lon="9.329158896580339">
        <ele>1237.3499999999999</ele>
        <time>2014-05-25T12:39:06Z</time>
      </trkpt>
      <trkpt lat="45.862519880756736" lon="9.329116567969322">
        <ele>1236.3900000000001</ele>
        <time>2014-05-25T12:39:24Z</time>
      </trkpt>
      <trkpt lat="45.862502111122012" lon="9.329204745590687">
        <ele>1236.8699999999999</ele>
        <time>2014-05-25T12:39:42Z</time>
      </trkpt>
      <trkpt lat="45.862505380064249" lon="9.329238943755627">
        <ele>1237.3499999999999</ele>
        <time>2014-05-25T12:40:02Z</time>
      </trkpt>
      <trkpt lat="45.862483587116003" lon="9.329183539375663">
        <ele>1237.3499999999999</ele>
        <time>2014-05-25T12:40:25Z</time>
      </trkpt>
      <trkpt lat="45.862462297081947" lon="9.329238776117563">
        <ele>1237.3499999999999</ele>
        <time>2014-05-25T12:40:46Z</time>
      </trkpt>
      <trkpt lat="45.86245316080749" lon="9.329270962625742">
        <ele>1237.8299999999999</ele>
        <time>2014-05-25T12:41:04Z</time>
      </trkpt>
      <trkpt lat="45.862372359260917" lon="9.329282781109214">
        <ele>1238.3199999999999</ele>
        <time>2014-05-25T12:41:22Z</time>
      </trkpt>
      <trkpt lat="45.862362133339047" lon="9.329305328428745">
        <ele>1237.8299999999999</ele>
        <time>2014-05-25T12:41:24Z</time>
      </trkpt>
      <trkpt lat="45.86232022382319" lon="9.329375484958291">
        <ele>1236.3900000000001</ele>
        <time>2014-05-25T12:41:31Z</time>
      </trkpt>
      <trkpt lat="45.862309159711003" lon="9.329530047252774">
        <ele>1233.51</ele>
        <time>2014-05-25T12:41:46Z</time>
      </trkpt>
      <trkpt lat="45.862277057021856" lon="9.329695841297507">
        <ele>1230.6199999999999</ele>
        <time>2014-05-25T12:41:59Z</time>
      </trkpt>
      <trkpt lat="45.862249312922359" lon="9.329791562631726">
        <ele>1229.1800000000001</ele>
        <time>2014-05-25T12:42:12Z</time>
      </trkpt>
      <trkpt lat="45.862321145832539" lon="9.32965787127614">
        <ele>1229.1800000000001</ele>
        <time>2014-05-25T12:42:36Z</time>
      </trkpt>
      <trkpt lat="45.862280074506998" lon="9.329743701964617">
        <ele>1228.7</ele>
        <time>2014-05-25T12:42:54Z</time>
      </trkpt>
      <trkpt lat="45.862252581864595" lon="9.32984353043139">
        <ele>1226.3</ele>
        <time>2014-05-25T12:43:04Z</time>
      </trkpt>
      <trkpt lat="45.862181335687637" lon="9.329901868477464">
        <ele>1225.3399999999999</ele>
        <time>2014-05-25T12:43:17Z</time>
      </trkpt>
      <trkpt lat="45.862106988206506" lon="9.329925170168281">
        <ele>1226.3</ele>
        <time>2014-05-25T12:43:29Z</time>
      </trkpt>
      <trkpt lat="45.862112520262599" lon="9.329932378605008">
        <ele>1225.8199999999999</ele>
        <time>2014-05-25T12:43:31Z</time>
      </trkpt>
      <trkpt lat="45.862047644332051" lon="9.329983424395323">
        <ele>1222.9300000000001</ele>
        <time>2014-05-25T12:43:44Z</time>
      </trkpt>
      <trkpt lat="45.861947983503342" lon="9.330081073567271">
        <ele>1221.97</ele>
        <time>2014-05-25T12:43:58Z</time>
      </trkpt>
      <trkpt lat="45.861917054280639" lon="9.330096999183297">
        <ele>1221.01</ele>
        <time>2014-05-25T12:44:01Z</time>
      </trkpt>
      <trkpt lat="45.861854190006852" lon="9.330098172649741">
        <ele>1220.05</ele>
        <time>2014-05-25T12:44:11Z</time>
      </trkpt>
      <trkpt lat="45.8617221750319" lon="9.330170005559921">
        <ele>1221.01</ele>
        <time>2014-05-25T12:44:25Z</time>
      </trkpt>
      <trkpt lat="45.861657885834575" lon="9.330244353041053">
        <ele>1221.01</ele>
        <time>2014-05-25T12:44:33Z</time>
      </trkpt>
      <trkpt lat="45.861593680456281" lon="9.330359185114503">
        <ele>1219.5699999999999</ele>
        <time>2014-05-25T12:44:48Z</time>
      </trkpt>
      <trkpt lat="45.861551351845264" lon="9.330470664426684">
        <ele>1218.6099999999999</ele>
        <time>2014-05-25T12:45:04Z</time>
      </trkpt>
      <trkpt lat="45.861509023234248" lon="9.330571833997965">
        <ele>1217.1700000000001</ele>
        <time>2014-05-25T12:45:18Z</time>
      </trkpt>
      <trkpt lat="45.861444314941764" lon="9.330675853416324">
        <ele>1215.24</ele>
        <time>2014-05-25T12:45:32Z</time>
      </trkpt>
      <trkpt lat="45.861445488408208" lon="9.330781046301127">
        <ele>1213.8</ele>
        <time>2014-05-25T12:45:46Z</time>
      </trkpt>
      <trkpt lat="45.861453283578157" lon="9.330928400158882">
        <ele>1212.3599999999999</ele>
        <time>2014-05-25T12:45:57Z</time>
      </trkpt>
      <trkpt lat="45.861374577507377" lon="9.331097127869725">
        <ele>1210.9200000000001</ele>
        <time>2014-05-25T12:46:11Z</time>
      </trkpt>
      <trkpt lat="45.861299391835928" lon="9.331124955788255">
        <ele>1209.96</ele>
        <time>2014-05-25T12:46:22Z</time>
      </trkpt>
      <trkpt lat="45.861283466219902" lon="9.331126380711794">
        <ele>1209.48</ele>
        <time>2014-05-25T12:46:36Z</time>
      </trkpt>
      <trkpt lat="45.861220266669989" lon="9.331044154241681">
        <ele>1208.03</ele>
        <time>2014-05-25T12:46:42Z</time>
      </trkpt>
      <trkpt lat="45.861201826483011" lon="9.331021271646023">
        <ele>1206.5899999999999</ele>
        <time>2014-05-25T12:46:45Z</time>
      </trkpt>
      <trkpt lat="45.861132927238941" lon="9.330872911959887">
        <ele>1203.23</ele>
        <time>2014-05-25T12:47:00Z</time>
      </trkpt>
      <trkpt lat="45.861075846478343" lon="9.330765204504132">
        <ele>1200.3399999999999</ele>
        <time>2014-05-25T12:47:13Z</time>
      </trkpt>
      <trkpt lat="45.861015748232603" lon="9.330682475119829">
        <ele>1196.98</ele>
        <time>2014-05-25T12:47:26Z</time>
      </trkpt>
      <trkpt lat="45.860960092395544" lon="9.330595219507814">
        <ele>1193.6099999999999</ele>
        <time>2014-05-25T12:47:36Z</time>
      </trkpt>
      <trkpt lat="45.860916338860989" lon="9.330584323033691">
        <ele>1192.1700000000001</ele>
        <time>2014-05-25T12:47:40Z</time>
      </trkpt>
      <trkpt lat="45.860809637233615" lon="9.330395981669426">
        <ele>1190.73</ele>
        <time>2014-05-25T12:47:54Z</time>
      </trkpt>
      <trkpt lat="45.860792873427272" lon="9.330237144604325">
        <ele>1187.8499999999999</ele>
        <time>2014-05-25T12:48:06Z</time>
      </trkpt>
      <trkpt lat="45.860777115449309" lon="9.330114349722862">
        <ele>1186.8800000000001</ele>
        <time>2014-05-25T12:48:15Z</time>
      </trkpt>
      <trkpt lat="45.860826820135117" lon="9.329994739964604">
        <ele>1186.4000000000001</ele>
        <time>2014-05-25T12:48:30Z</time>
      </trkpt>
      <trkpt lat="45.860809218138456" lon="9.329937072470784">
        <ele>1184</ele>
        <time>2014-05-25T12:48:45Z</time>
      </trkpt>
      <trkpt lat="45.86080938577652" lon="9.329851157963276">
        <ele>1180.6400000000001</ele>
        <time>2014-05-25T12:48:58Z</time>
      </trkpt>
      <trkpt lat="45.860775019973516" lon="9.329804889857769">
        <ele>1178.71</ele>
        <time>2014-05-25T12:49:10Z</time>
      </trkpt>
      <trkpt lat="45.860759764909744" lon="9.329766165465117">
        <ele>1177.27</ele>
        <time>2014-05-25T12:49:14Z</time>
      </trkpt>
      <trkpt lat="45.860761860385537" lon="9.329604646191001">
        <ele>1174.3900000000001</ele>
        <time>2014-05-25T12:49:28Z</time>
      </trkpt>
      <trkpt lat="45.860720537602901" lon="9.329541781917214">
        <ele>1171.98</ele>
        <time>2014-05-25T12:49:43Z</time>
      </trkpt>
      <trkpt lat="45.860657673329115" lon="9.329490149393678">
        <ele>1170.0599999999999</ele>
        <time>2014-05-25T12:49:53Z</time>
      </trkpt>
      <trkpt lat="45.860645938664675" lon="9.329462237656117">
        <ele>1169.5799999999999</ele>
        <time>2014-05-25T12:49:55Z</time>
      </trkpt>
      <trkpt lat="45.860603107139468" lon="9.329437678679824">
        <ele>1166.22</ele>
        <time>2014-05-25T12:50:06Z</time>
      </trkpt>
      <trkpt lat="45.860536135733128" lon="9.329391913488507">
        <ele>1162.8499999999999</ele>
        <time>2014-05-25T12:50:20Z</time>
      </trkpt>
      <trkpt lat="45.860481988638639" lon="9.329346315935254">
        <ele>1159.97</ele>
        <time>2014-05-25T12:50:36Z</time>
      </trkpt>
      <trkpt lat="45.860455669462681" lon="9.329358637332916">
        <ele>1157.0799999999999</ele>
        <time>2014-05-25T12:50:49Z</time>
      </trkpt>
      <trkpt lat="45.860400265082717" lon="9.329274734482169">
        <ele>1154.2</ele>
        <time>2014-05-25T12:51:04Z</time>
      </trkpt>
      <trkpt lat="45.860345112159848" lon="9.329234333708882">
        <ele>1150.8399999999999</ele>
        <time>2014-05-25T12:51:20Z</time>
      </trkpt>
      <trkpt lat="45.860284259542823" lon="9.329202650114894">
        <ele>1147.47</ele>
        <time>2014-05-25T12:51:33Z</time>
      </trkpt>
      <trkpt lat="45.860249055549502" lon="9.329108688980341">
        <ele>1144.5899999999999</ele>
        <time>2014-05-25T12:51:47Z</time>
      </trkpt>
      <trkpt lat="45.860219299793243" lon="9.329105252400041">
        <ele>1142.6600000000001</ele>
        <time>2014-05-25T12:51:56Z</time>
      </trkpt>
      <trkpt lat="45.860163643956184" lon="9.329102402552962">
        <ele>1140.26</ele>
        <time>2014-05-25T12:52:10Z</time>
      </trkpt>
      <trkpt lat="45.860132882371545" lon="9.329112209379673">
        <ele>1137.3800000000001</ele>
        <time>2014-05-25T12:52:23Z</time>
      </trkpt>
      <trkpt lat="45.860088542103767" lon="9.329079017043114">
        <ele>1134.97</ele>
        <time>2014-05-25T12:52:38Z</time>
      </trkpt>
      <trkpt lat="45.860068593174219" lon="9.328967118635774">
        <ele>1133.05</ele>
        <time>2014-05-25T12:52:53Z</time>
      </trkpt>
      <trkpt lat="45.860058618709445" lon="9.329054458066821">
        <ele>1130.6500000000001</ele>
        <time>2014-05-25T12:53:11Z</time>
      </trkpt>
      <trkpt lat="45.860042944550514" lon="9.329088488593698">
        <ele>1127.76</ele>
        <time>2014-05-25T12:53:25Z</time>
      </trkpt>
      <trkpt lat="45.860006231814623" lon="9.329151939600706">
        <ele>1124.8800000000001</ele>
        <time>2014-05-25T12:53:38Z</time>
      </trkpt>
      <trkpt lat="45.859956527128816" lon="9.329236010089517">
        <ele>1121.52</ele>
        <time>2014-05-25T12:53:51Z</time>
      </trkpt>
      <trkpt lat="45.859920484945178" lon="9.329205751419067">
        <ele>1119.1099999999999</ele>
        <time>2014-05-25T12:54:12Z</time>
      </trkpt>
      <trkpt lat="45.859878994524479" lon="9.329125536605716">
        <ele>1115.75</ele>
        <time>2014-05-25T12:54:22Z</time>
      </trkpt>
      <trkpt lat="45.859858794137836" lon="9.329124446958304">
        <ele>1115.27</ele>
        <time>2014-05-25T12:54:24Z</time>
      </trkpt>
      <trkpt lat="45.859807161614299" lon="9.329092763364315">
        <ele>1111.9000000000001</ele>
        <time>2014-05-25T12:54:37Z</time>
      </trkpt>
      <trkpt lat="45.859734658151865" lon="9.32902411557734">
        <ele>1108.54</ele>
        <time>2014-05-25T12:54:50Z</time>
      </trkpt>
      <trkpt lat="45.859708674252033" lon="9.329046746715903">
        <ele>1108.0599999999999</ele>
        <time>2014-05-25T12:55:05Z</time>
      </trkpt>
      <trkpt lat="45.859661400318146" lon="9.328990252688527">
        <ele>1105.6500000000001</ele>
        <time>2014-05-25T12:55:19Z</time>
      </trkpt>
      <trkpt lat="45.859600463882089" lon="9.328994611278176">
        <ele>1102.29</ele>
        <time>2014-05-25T12:55:30Z</time>
      </trkpt>
      <trkpt lat="45.859574563801289" lon="9.328942811116576">
        <ele>1100.3699999999999</ele>
        <time>2014-05-25T12:55:36Z</time>
      </trkpt>
      <trkpt lat="45.859551429748535" lon="9.328964855521917">
        <ele>1097</ele>
        <time>2014-05-25T12:55:49Z</time>
      </trkpt>
      <trkpt lat="45.859547071158886" lon="9.328983128070831">
        <ele>1094.5999999999999</ele>
        <time>2014-05-25T12:56:03Z</time>
      </trkpt>
      <trkpt lat="45.85954874753952" lon="9.328998047858477">
        <ele>1093.6400000000001</ele>
        <time>2014-05-25T12:56:05Z</time>
      </trkpt>
      <trkpt lat="45.859546400606632" lon="9.329021601006389">
        <ele>1092.6800000000001</ele>
        <time>2014-05-25T12:56:08Z</time>
      </trkpt>
      <trkpt lat="45.859510442242026" lon="9.329026630148292">
        <ele>1090.75</ele>
        <time>2014-05-25T12:56:12Z</time>
      </trkpt>
      <trkpt lat="45.859454283490777" lon="9.328988995403051">
        <ele>1087.8699999999999</ele>
        <time>2014-05-25T12:56:26Z</time>
      </trkpt>
      <trkpt lat="45.859378343448043" lon="9.328956054523587">
        <ele>1084.99</ele>
        <time>2014-05-25T12:56:39Z</time>
      </trkpt>
      <trkpt lat="45.859319251030684" lon="9.328964436426759">
        <ele>1082.5799999999999</ele>
        <time>2014-05-25T12:56:53Z</time>
      </trkpt>
      <trkpt lat="45.859283376485109" lon="9.328970052301884">
        <ele>1079.7</ele>
        <time>2014-05-25T12:57:05Z</time>
      </trkpt>
      <trkpt lat="45.85921062156558" lon="9.328893776983023">
        <ele>1076.8099999999999</ele>
        <time>2014-05-25T12:57:20Z</time>
      </trkpt>
      <trkpt lat="45.859219757840037" lon="9.328983128070831">
        <ele>1074.4100000000001</ele>
        <time>2014-05-25T12:57:33Z</time>
      </trkpt>
      <trkpt lat="45.85908891633153" lon="9.329039957374334">
        <ele>1071.05</ele>
        <time>2014-05-25T12:57:46Z</time>
      </trkpt>
      <trkpt lat="45.859033763408661" lon="9.329050937667489">
        <ele>1068.1600000000001</ele>
        <time>2014-05-25T12:57:59Z</time>
      </trkpt>
      <trkpt lat="45.858948016539216" lon="9.328997377306223">
        <ele>1066.72</ele>
        <time>2014-05-25T12:58:13Z</time>
      </trkpt>
      <trkpt lat="45.858943741768599" lon="9.328983882442117">
        <ele>1065.28</ele>
        <time>2014-05-25T12:58:15Z</time>
      </trkpt>
      <trkpt lat="45.858859168365598" lon="9.328949265182018">
        <ele>1061.9100000000001</ele>
        <time>2014-05-25T12:58:31Z</time>
      </trkpt>
      <trkpt lat="45.858806865289807" lon="9.329002238810062">
        <ele>1059.51</ele>
        <time>2014-05-25T12:58:45Z</time>
      </trkpt>
      <trkpt lat="45.858762776479125" lon="9.328933423385024">
        <ele>1057.1099999999999</ele>
        <time>2014-05-25T12:58:58Z</time>
      </trkpt>
      <trkpt lat="45.858729248866439" lon="9.328840132802725">
        <ele>1053.74</ele>
        <time>2014-05-25T12:59:12Z</time>
      </trkpt>
      <trkpt lat="45.858687926083803" lon="9.328834684565663">
        <ele>1051.3399999999999</ele>
        <time>2014-05-25T12:59:26Z</time>
      </trkpt>
      <trkpt lat="45.858619026839733" lon="9.328854884952307">
        <ele>1048.9400000000001</ele>
        <time>2014-05-25T12:59:37Z</time>
      </trkpt>
      <trkpt lat="45.858589187264442" lon="9.32879788801074">
        <ele>1046.05</ele>
        <time>2014-05-25T12:59:50Z</time>
      </trkpt>
      <trkpt lat="45.85853872820735" lon="9.328755140304565">
        <ele>1043.1700000000001</ele>
        <time>2014-05-25T13:00:02Z</time>
      </trkpt>
      <trkpt lat="45.858511067926884" lon="9.328632429242134">
        <ele>1040.76</ele>
        <time>2014-05-25T13:00:15Z</time>
      </trkpt>
      <trkpt lat="45.85848500020802" lon="9.328595967963338">
        <ele>1038.8399999999999</ele>
        <time>2014-05-25T13:00:28Z</time>
      </trkpt>
      <trkpt lat="45.858429428189993" lon="9.328632429242134">
        <ele>1035.48</ele>
        <time>2014-05-25T13:00:41Z</time>
      </trkpt>
      <trkpt lat="45.858373269438744" lon="9.328642571344972">
        <ele>1034.52</ele>
        <time>2014-05-25T13:00:46Z</time>
      </trkpt>
      <trkpt lat="45.858284756541252" lon="9.328640475869179">
        <ele>1032.5899999999999</ele>
        <time>2014-05-25T13:00:59Z</time>
      </trkpt>
      <trkpt lat="45.85821527056396" lon="9.328695880249143">
        <ele>1029.23</ele>
        <time>2014-05-25T13:01:13Z</time>
      </trkpt>
      <trkpt lat="45.858164140954614" lon="9.328610468655825">
        <ele>1026.3399999999999</ele>
        <time>2014-05-25T13:01:26Z</time>
      </trkpt>
      <trkpt lat="45.858071772381663" lon="9.328616755083203">
        <ele>1023.46</ele>
        <time>2014-05-25T13:01:40Z</time>
      </trkpt>
      <trkpt lat="45.857999855652452" lon="9.328512651845813">
        <ele>1020.1</ele>
        <time>2014-05-25T13:01:52Z</time>
      </trkpt>
      <trkpt lat="45.857951156795025" lon="9.328416427597404">
        <ele>1017.21</ele>
        <time>2014-05-25T13:02:05Z</time>
      </trkpt>
      <trkpt lat="45.857928609475493" lon="9.32837619446218">
        <ele>1014.8099999999999</ele>
        <time>2014-05-25T13:02:20Z</time>
      </trkpt>
      <trkpt lat="45.857844958081841" lon="9.328517513349652">
        <ele>1011.9299999999999</ele>
        <time>2014-05-25T13:02:33Z</time>
      </trkpt>
      <trkpt lat="45.857840431854129" lon="9.328556740656495">
        <ele>1011.4400000000001</ele>
        <time>2014-05-25T13:02:36Z</time>
      </trkpt>
      <trkpt lat="45.85785903967917" lon="9.328629076480866">
        <ele>1010.96</ele>
        <time>2014-05-25T13:02:53Z</time>
      </trkpt>
      <trkpt lat="45.857854010537267" lon="9.328595465049148">
        <ele>1010.96</ele>
        <time>2014-05-25T13:03:24Z</time>
      </trkpt>
      <trkpt lat="45.857789888978004" lon="9.328531427308917">
        <ele>1009.04</ele>
        <time>2014-05-25T13:03:37Z</time>
      </trkpt>
      <trkpt lat="45.85781360976398" lon="9.328511981293559">
        <ele>1008.08</ele>
        <time>2014-05-25T13:03:49Z</time>
      </trkpt>
      <trkpt lat="45.857687378302217" lon="9.328411314636469">
        <ele>1008.08</ele>
        <time>2014-05-25T13:04:14Z</time>
      </trkpt>
      <trkpt lat="45.857672039419413" lon="9.328348115086556">
        <ele>1008.5599999999999</ele>
        <time>2014-05-25T13:04:48Z</time>
      </trkpt>
      <trkpt lat="45.857672626152635" lon="9.32837275788188">
        <ele>1008.5599999999999</ele>
        <time>2014-05-25T13:05:20Z</time>
      </trkpt>
      <trkpt lat="45.857679415494204" lon="9.328390108421445">
        <ele>1009.04</ele>
        <time>2014-05-25T13:05:52Z</time>
      </trkpt>
      <trkpt lat="45.857660304754972" lon="9.328330345451832">
        <ele>1009.04</ele>
        <time>2014-05-25T13:06:21Z</time>
      </trkpt>
      <trkpt lat="45.857674386352301" lon="9.328368483111262">
        <ele>1009.52</ele>
        <time>2014-05-25T13:06:56Z</time>
      </trkpt>
      <trkpt lat="45.857674386352301" lon="9.328315341845155">
        <ele>1009.52</ele>
        <time>2014-05-25T13:07:26Z</time>
      </trkpt>
      <trkpt lat="45.857663322240114" lon="9.328296398743987">
        <ele>1010</ele>
        <time>2014-05-25T13:07:59Z</time>
      </trkpt>
      <trkpt lat="45.857652677223086" lon="9.328269325196743">
        <ele>1010.48</ele>
        <time>2014-05-25T13:08:36Z</time>
      </trkpt>
      <trkpt lat="45.857613198459148" lon="9.328372506424785">
        <ele>1010.48</ele>
        <time>2014-05-25T13:09:03Z</time>
      </trkpt>
      <trkpt lat="45.857642283663154" lon="9.328487925231457">
        <ele>1010.96</ele>
        <time>2014-05-25T13:09:38Z</time>
      </trkpt>
      <trkpt lat="45.857701543718576" lon="9.328446770086885">
        <ele>1011.9299999999999</ele>
        <time>2014-05-25T13:10:17Z</time>
      </trkpt>
      <trkpt lat="45.857661729678512" lon="9.328357670456171">
        <ele>1012.41</ele>
        <time>2014-05-25T13:10:40Z</time>
      </trkpt>
      <trkpt lat="45.857668854296207" lon="9.328430844470859">
        <ele>1012.41</ele>
        <time>2014-05-25T13:11:16Z</time>
      </trkpt>
      <trkpt lat="45.857637086883187" lon="9.32842799462378">
        <ele>1012.41</ele>
        <time>2014-05-25T13:11:53Z</time>
      </trkpt>
      <trkpt lat="45.85764454677701" lon="9.328453978523612">
        <ele>1012.89</ele>
        <time>2014-05-25T13:12:14Z</time>
      </trkpt>
      <trkpt lat="45.857695508748293" lon="9.328503515571356">
        <ele>1013.37</ele>
        <time>2014-05-25T13:12:46Z</time>
      </trkpt>
      <trkpt lat="45.857721995562315" lon="9.328525559976697">
        <ele>1013.37</ele>
        <time>2014-05-25T13:13:19Z</time>
      </trkpt>
      <trkpt lat="45.85771981626749" lon="9.328596638515592">
        <ele>1013.85</ele>
        <time>2014-05-25T13:13:58Z</time>
      </trkpt>
      <trkpt lat="45.857730880379677" lon="9.328551795333624">
        <ele>1014.8099999999999</ele>
        <time>2014-05-25T13:14:11Z</time>
      </trkpt>
      <trkpt lat="45.857697017490864" lon="9.328487673774362">
        <ele>1014.8099999999999</ele>
        <time>2014-05-25T13:14:31Z</time>
      </trkpt>
      <trkpt lat="45.857713781297207" lon="9.328418606892228">
        <ele>1014.8099999999999</ele>
        <time>2014-05-25T13:14:57Z</time>
      </trkpt>
      <trkpt lat="45.85767874494195" lon="9.328337050974369">
        <ele>1014.8099999999999</ele>
        <time>2014-05-25T13:15:29Z</time>
      </trkpt>
      <trkpt lat="45.857651671394706" lon="9.328436711803079">
        <ele>1015.77</ele>
        <time>2014-05-25T13:16:01Z</time>
      </trkpt>
      <trkpt lat="45.857657957822084" lon="9.32843822054565">
        <ele>1015.29</ele>
        <time>2014-05-25T13:16:23Z</time>
      </trkpt>
      <trkpt lat="45.857740351930261" lon="9.32858289219439">
        <ele>1015.77</ele>
        <time>2014-05-25T13:16:53Z</time>
      </trkpt>
      <trkpt lat="45.857721995562315" lon="9.32851935736835">
        <ele>1015.77</ele>
        <time>2014-05-25T13:17:22Z</time>
      </trkpt>
      <trkpt lat="45.857683774083853" lon="9.328410057350993">
        <ele>1015.77</ele>
        <time>2014-05-25T13:17:55Z</time>
      </trkpt>
      <trkpt lat="45.857672123238444" lon="9.328508209437132">
        <ele>1015.77</ele>
        <time>2014-05-25T13:18:13Z</time>
      </trkpt>
      <trkpt lat="45.857630968093872" lon="9.32844702154398">
        <ele>1014.8099999999999</ele>
        <time>2014-05-25T13:18:28Z</time>
      </trkpt>
      <trkpt lat="45.857616467401385" lon="9.328319784253836">
        <ele>1012.41</ele>
        <time>2014-05-25T13:18:42Z</time>
      </trkpt>
      <trkpt lat="45.857599535956979" lon="9.328286843374372">
        <ele>1010.96</ele>
        <time>2014-05-25T13:18:53Z</time>
      </trkpt>
      <trkpt lat="45.857550418004394" lon="9.328253902494907">
        <ele>1009.04</ele>
        <time>2014-05-25T13:18:56Z</time>
      </trkpt>
      <trkpt lat="45.857457546517253" lon="9.328126162290573">
        <ele>1006.16</ele>
        <time>2014-05-25T13:19:01Z</time>
      </trkpt>
      <trkpt lat="45.857377331703901" lon="9.328056173399091">
        <ele>1002.79</ele>
        <time>2014-05-25T13:19:05Z</time>
      </trkpt>
      <trkpt lat="45.857297284528613" lon="9.328006217256188">
        <ele>999.42999999999995</ele>
        <time>2014-05-25T13:19:11Z</time>
      </trkpt>
      <trkpt lat="45.857285633683205" lon="9.328009821474552">
        <ele>998.47000000000003</ele>
        <time>2014-05-25T13:19:12Z</time>
      </trkpt>
      <trkpt lat="45.857211789116263" lon="9.328041253611445">
        <ele>996.05999999999995</ele>
        <time>2014-05-25T13:19:18Z</time>
      </trkpt>
      <trkpt lat="45.857166275382042" lon="9.328044690191746">
        <ele>992.70000000000005</ele>
        <time>2014-05-25T13:19:27Z</time>
      </trkpt>
      <trkpt lat="45.857132328674197" lon="9.328026417642832">
        <ele>991.74000000000001</ele>
        <time>2014-05-25T13:19:31Z</time>
      </trkpt>
      <trkpt lat="45.857085976749659" lon="9.327912088483572">
        <ele>988.37</ele>
        <time>2014-05-25T13:19:44Z</time>
      </trkpt>
      <trkpt lat="45.857041468843818" lon="9.327916447073221">
        <ele>985.49000000000001</ele>
        <time>2014-05-25T13:19:52Z</time>
      </trkpt>
      <trkpt lat="45.856950525194407" lon="9.32794083841145">
        <ele>984.04999999999995</ele>
        <time>2014-05-25T13:20:05Z</time>
      </trkpt>
      <trkpt lat="45.856932923197746" lon="9.327877135947347">
        <ele>981.63999999999999</ele>
        <time>2014-05-25T13:20:25Z</time>
      </trkpt>
      <trkpt lat="45.856895120814443" lon="9.327873950824142">
        <ele>978.75999999999999</ele>
        <time>2014-05-25T13:20:34Z</time>
      </trkpt>
      <trkpt lat="45.856767129153013" lon="9.327967492863536">
        <ele>976.36000000000001</ele>
        <time>2014-05-25T13:20:51Z</time>
      </trkpt>
      <trkpt lat="45.856677275151014" lon="9.328026250004768">
        <ele>973.47000000000003</ele>
        <time>2014-05-25T13:21:04Z</time>
      </trkpt>
      <trkpt lat="45.856572836637497" lon="9.32808106765151">
        <ele>972.02999999999997</ele>
        <time>2014-05-25T13:21:20Z</time>
      </trkpt>
      <trkpt lat="45.85646353662014" lon="9.328179555013776">
        <ele>970.11000000000001</ele>
        <time>2014-05-25T13:21:34Z</time>
      </trkpt>
      <trkpt lat="45.856360355392098" lon="9.328242084011436">
        <ele>969.14999999999998</ele>
        <time>2014-05-25T13:21:43Z</time>
      </trkpt>
      <trkpt lat="45.85631400346756" lon="9.328257758170366">
        <ele>969.14999999999998</ele>
        <time>2014-05-25T13:21:46Z</time>
      </trkpt>
      <trkpt lat="45.856059864163399" lon="9.328445596620441">
        <ele>967.70000000000005</ele>
        <time>2014-05-25T13:22:04Z</time>
      </trkpt>
      <trkpt lat="45.85594167932868" lon="9.328582808375359">
        <ele>966.74000000000001</ele>
        <time>2014-05-25T13:22:16Z</time>
      </trkpt>
      <trkpt lat="45.855872612446547" lon="9.328690515831113">
        <ele>967.70000000000005</ele>
        <time>2014-05-25T13:22:32Z</time>
      </trkpt>
      <trkpt lat="45.855713607743382" lon="9.328813645988703">
        <ele>965.77999999999997</ele>
        <time>2014-05-25T13:22:45Z</time>
      </trkpt>
      <trkpt lat="45.855620484799147" lon="9.328965358436108">
        <ele>963.86000000000001</ele>
        <time>2014-05-25T13:22:58Z</time>
      </trkpt>
      <trkpt lat="45.85545402020216" lon="9.329097038134933">
        <ele>962.89999999999998</ele>
        <time>2014-05-25T13:23:13Z</time>
      </trkpt>
      <trkpt lat="45.85533918812871" lon="9.329223353415728">
        <ele>962.41999999999996</ele>
        <time>2014-05-25T13:23:25Z</time>
      </trkpt>
      <trkpt lat="45.85520138964057" lon="9.32925813831389">
        <ele>960.98000000000002</ele>
        <time>2014-05-25T13:23:40Z</time>
      </trkpt>
      <trkpt lat="45.855088736861944" lon="9.329484365880489">
        <ele>957.61000000000001</ele>
        <time>2014-05-25T13:23:56Z</time>
      </trkpt>
      <trkpt lat="45.855102734640241" lon="9.329535327851772">
        <ele>956.16999999999996</ele>
        <time>2014-05-25T13:23:59Z</time>
      </trkpt>
      <trkpt lat="45.855107344686985" lon="9.329549744725227">
        <ele>955.69000000000005</ele>
        <time>2014-05-25T13:24:00Z</time>
      </trkpt>
      <trkpt lat="45.855028638616204" lon="9.329716544598341">
        <ele>952.32000000000005</ele>
        <time>2014-05-25T13:24:14Z</time>
      </trkpt>
      <trkpt lat="45.854951608926058" lon="9.329879488795996">
        <ele>949.44000000000005</ele>
        <time>2014-05-25T13:24:29Z</time>
      </trkpt>
      <trkpt lat="45.854942053556442" lon="9.330039415508509">
        <ele>947.03999999999996</ele>
        <time>2014-05-25T13:24:40Z</time>
      </trkpt>
      <trkpt lat="45.8549321629107" lon="9.330159779638052">
        <ele>945.11000000000001</ele>
        <time>2014-05-25T13:24:50Z</time>
      </trkpt>
      <trkpt lat="45.854877680540085" lon="9.33021342381835">
        <ele>944.63</ele>
        <time>2014-05-25T13:24:55Z</time>
      </trkpt>
      <trkpt lat="45.85478313267231" lon="9.330447111278772">
        <ele>945.11000000000001</ele>
        <time>2014-05-25T13:25:11Z</time>
      </trkpt>
      <trkpt lat="45.854711383581161" lon="9.330637380480766">
        <ele>946.55999999999995</ele>
        <time>2014-05-25T13:25:26Z</time>
      </trkpt>
      <trkpt lat="45.854622703045607" lon="9.330771071836352">
        <ele>946.55999999999995</ele>
        <time>2014-05-25T13:25:37Z</time>
      </trkpt>
      <trkpt lat="45.854581631720066" lon="9.330819435417652">
        <ele>946.55999999999995</ele>
        <time>2014-05-25T13:25:41Z</time>
      </trkpt>
      <trkpt lat="45.854512900114059" lon="9.330928986892104">
        <ele>948.48000000000002</ele>
        <time>2014-05-25T13:25:53Z</time>
      </trkpt>
      <trkpt lat="45.854477779939771" lon="9.331008614972234">
        <ele>948.96000000000004</ele>
        <time>2014-05-25T13:26:01Z</time>
      </trkpt>
      <trkpt lat="45.854491107165813" lon="9.331237692385912">
        <ele>945.59000000000003</ele>
        <time>2014-05-25T13:26:17Z</time>
      </trkpt>
      <trkpt lat="45.854500411078334" lon="9.331258814781904">
        <ele>945.11000000000001</ele>
        <time>2014-05-25T13:26:19Z</time>
      </trkpt>
      <trkpt lat="45.854500411078334" lon="9.331336263567209">
        <ele>943.19000000000005</ele>
        <time>2014-05-25T13:26:24Z</time>
      </trkpt>
      <trkpt lat="45.854486161842942" lon="9.331378089264035">
        <ele>942.23000000000002</ele>
        <time>2014-05-25T13:26:28Z</time>
      </trkpt>
      <trkpt lat="45.854447269812226" lon="9.331458639353514">
        <ele>940.78999999999996</ele>
        <time>2014-05-25T13:26:34Z</time>
      </trkpt>
      <trkpt lat="45.854399660602212" lon="9.331528712064028">
        <ele>940.30999999999995</ele>
        <time>2014-05-25T13:26:41Z</time>
      </trkpt>
      <trkpt lat="45.85438976995647" lon="9.331554360687733">
        <ele>940.30999999999995</ele>
        <time>2014-05-25T13:26:43Z</time>
      </trkpt>
      <trkpt lat="45.854337718337774" lon="9.33164949528873">
        <ele>939.83000000000004</ele>
        <time>2014-05-25T13:26:50Z</time>
      </trkpt>
      <trkpt lat="45.854217186570168" lon="9.331935988739133">
        <ele>940.30999999999995</ele>
        <time>2014-05-25T13:27:08Z</time>
      </trkpt>
      <trkpt lat="45.854112077504396" lon="9.332098681479693">
        <ele>941.75</ele>
        <time>2014-05-25T13:27:24Z</time>
      </trkpt>
      <trkpt lat="45.854062372818589" lon="9.332304708659649">
        <ele>938.86000000000001</ele>
        <time>2014-05-25T13:27:37Z</time>
      </trkpt>
      <trkpt lat="45.854084249585867" lon="9.332472933456302">
        <ele>935.98000000000002</ele>
        <time>2014-05-25T13:27:48Z</time>
      </trkpt>
      <trkpt lat="45.854076622053981" lon="9.33263554237783">
        <ele>933.10000000000002</ele>
        <time>2014-05-25T13:28:02Z</time>
      </trkpt>
      <trkpt lat="45.853980649262667" lon="9.332701759412885">
        <ele>930.21000000000004</ele>
        <time>2014-05-25T13:28:15Z</time>
      </trkpt>
      <trkpt lat="45.853947876021266" lon="9.332864703610539">
        <ele>927.33000000000004</ele>
        <time>2014-05-25T13:28:28Z</time>
      </trkpt>
      <trkpt lat="45.853881323710084" lon="9.332959419116378">
        <ele>923.96000000000004</ele>
        <time>2014-05-25T13:28:39Z</time>
      </trkpt>
      <trkpt lat="45.853838324546814" lon="9.333045920357108">
        <ele>920.60000000000002</ele>
        <time>2014-05-25T13:28:48Z</time>
      </trkpt>
      <trkpt lat="45.853797001764178" lon="9.33316620066762">
        <ele>917.24000000000001</ele>
        <time>2014-05-25T13:28:59Z</time>
      </trkpt>
      <trkpt lat="45.8537941519171" lon="9.333313219249249">
        <ele>914.35000000000002</ele>
        <time>2014-05-25T13:29:10Z</time>
      </trkpt>
      <trkpt lat="45.853773867711425" lon="9.333434421569109">
        <ele>911.95000000000005</ele>
        <time>2014-05-25T13:29:22Z</time>
      </trkpt>
      <trkpt lat="45.853741178289056" lon="9.333562580868602">
        <ele>909.05999999999995</ele>
        <time>2014-05-25T13:29:35Z</time>
      </trkpt>
      <trkpt lat="45.853726174682379" lon="9.333693757653236">
        <ele>906.17999999999995</ele>
        <time>2014-05-25T13:29:46Z</time>
      </trkpt>
      <trkpt lat="45.853743944317102" lon="9.333821246400476">
        <ele>902.82000000000005</ele>
        <time>2014-05-25T13:29:59Z</time>
      </trkpt>
      <trkpt lat="45.853738244622946" lon="9.333864748477936">
        <ele>901.85000000000002</ele>
        <time>2014-05-25T13:30:03Z</time>
      </trkpt>
      <trkpt lat="45.853704214096069" lon="9.33400321751833">
        <ele>900.40999999999997</ele>
        <time>2014-05-25T13:30:16Z</time>
      </trkpt>
      <trkpt lat="45.853652330115438" lon="9.333989303559065">
        <ele>899.45000000000005</ele>
        <time>2014-05-25T13:30:35Z</time>
      </trkpt>
      <trkpt lat="45.853635314851999" lon="9.333983939141035">
        <ele>899.45000000000005</ele>
        <time>2014-05-25T13:30:37Z</time>
      </trkpt>
      <trkpt lat="45.853619556874037" lon="9.334031380712986">
        <ele>897.52999999999997</ele>
        <time>2014-05-25T13:30:41Z</time>
      </trkpt>
      <trkpt lat="45.853620646521449" lon="9.334084773436189">
        <ele>896.57000000000005</ele>
        <time>2014-05-25T13:30:45Z</time>
      </trkpt>
      <trkpt lat="45.853587705641985" lon="9.334347965195775">
        <ele>893.20000000000005</ele>
        <time>2014-05-25T13:31:03Z</time>
      </trkpt>
      <trkpt lat="45.853549651801586" lon="9.334367914125323">
        <ele>891.75999999999999</ele>
        <time>2014-05-25T13:31:09Z</time>
      </trkpt>
      <trkpt lat="45.853533893823624" lon="9.334395490586758">
        <ele>891.27999999999997</ele>
        <time>2014-05-25T13:31:11Z</time>
      </trkpt>
      <trkpt lat="45.853535234928131" lon="9.334615096449852">
        <ele>889.84000000000003</ele>
        <time>2014-05-25T13:31:24Z</time>
      </trkpt>
      <trkpt lat="45.853538420051336" lon="9.334738980978727">
        <ele>887.42999999999995</ele>
        <time>2014-05-25T13:31:37Z</time>
      </trkpt>
      <trkpt lat="45.853533558547497" lon="9.334840066730976">
        <ele>885.02999999999997</ele>
        <time>2014-05-25T13:31:44Z</time>
      </trkpt>
      <trkpt lat="45.853581754490733" lon="9.33499219827354">
        <ele>882.63</ele>
        <time>2014-05-25T13:31:57Z</time>
      </trkpt>
      <trkpt lat="45.853602876886725" lon="9.335145000368357">
        <ele>879.74000000000001</ele>
        <time>2014-05-25T13:32:08Z</time>
      </trkpt>
      <trkpt lat="45.8536197245121" lon="9.335310207679868">
        <ele>877.34000000000003</ele>
        <time>2014-05-25T13:32:22Z</time>
      </trkpt>
      <trkpt lat="45.85354445502162" lon="9.335468541830778">
        <ele>874.94000000000005</ele>
        <time>2014-05-25T13:32:37Z</time>
      </trkpt>
      <trkpt lat="45.853529870510101" lon="9.335512379184365">
        <ele>873.98000000000002</ele>
        <time>2014-05-25T13:32:42Z</time>
      </trkpt>
      <trkpt lat="45.853508412837982" lon="9.335681945085526">
        <ele>871.09000000000003</ele>
        <time>2014-05-25T13:32:56Z</time>
      </trkpt>
      <trkpt lat="45.853517549112439" lon="9.335785713046789">
        <ele>869.16999999999996</ele>
        <time>2014-05-25T13:33:08Z</time>
      </trkpt>
      <trkpt lat="45.853514866903424" lon="9.335910268127918">
        <ele>866.28999999999996</ele>
        <time>2014-05-25T13:33:19Z</time>
      </trkpt>
      <trkpt lat="45.853458875790238" lon="9.33606575243175">
        <ele>863.39999999999998</ele>
        <time>2014-05-25T13:33:32Z</time>
      </trkpt>
      <trkpt lat="45.853416295722127" lon="9.3361996114254">
        <ele>860.03999999999996</ele>
        <time>2014-05-25T13:33:43Z</time>
      </trkpt>
      <trkpt lat="45.853367932140827" lon="9.336297931149602">
        <ele>858.11000000000001</ele>
        <time>2014-05-25T13:33:55Z</time>
      </trkpt>
      <trkpt lat="45.853346223011613" lon="9.336430616676807">
        <ele>854.75</ele>
        <time>2014-05-25T13:34:07Z</time>
      </trkpt>
      <trkpt lat="45.853341612964869" lon="9.336444614455104">
        <ele>854.75</ele>
        <time>2014-05-25T13:34:08Z</time>
      </trkpt>
      <trkpt lat="45.853230301290751" lon="9.336564978584647">
        <ele>851.87</ele>
        <time>2014-05-25T13:34:24Z</time>
      </trkpt>
      <trkpt lat="45.853153103962541" lon="9.336647121235728">
        <ele>848.5</ele>
        <time>2014-05-25T13:34:37Z</time>
      </trkpt>
      <trkpt lat="45.853117145597935" lon="9.336729263886809">
        <ele>845.62</ele>
        <time>2014-05-25T13:34:48Z</time>
      </trkpt>
      <trkpt lat="45.853092167526484" lon="9.336795816197991">
        <ele>842.25</ele>
        <time>2014-05-25T13:34:59Z</time>
      </trkpt>
      <trkpt lat="45.853061489760876" lon="9.33685046620667">
        <ele>840.80999999999995</ele>
        <time>2014-05-25T13:35:05Z</time>
      </trkpt>
      <trkpt lat="45.852896701544523" lon="9.336908804252744">
        <ele>838.40999999999997</ele>
        <time>2014-05-25T13:35:20Z</time>
      </trkpt>
      <trkpt lat="45.852820007130504" lon="9.336906457319856">
        <ele>836.96000000000004</ele>
        <time>2014-05-25T13:35:33Z</time>
      </trkpt>
      <trkpt lat="45.852781618013978" lon="9.336960939690471">
        <ele>834.08000000000004</ele>
        <time>2014-05-25T13:35:41Z</time>
      </trkpt>
      <trkpt lat="45.852658320218325" lon="9.33694576844573">
        <ele>831.20000000000005</ele>
        <time>2014-05-25T13:35:54Z</time>
      </trkpt>
      <trkpt lat="45.852603083476424" lon="9.337021121755242">
        <ele>828.78999999999996</ele>
        <time>2014-05-25T13:36:09Z</time>
      </trkpt>
      <trkpt lat="45.852626971900463" lon="9.337126985192299">
        <ele>825.42999999999995</ele>
        <time>2014-05-25T13:36:21Z</time>
      </trkpt>
      <trkpt lat="45.852610543370247" lon="9.337202589958906">
        <ele>823.02999999999997</ele>
        <time>2014-05-25T13:36:33Z</time>
      </trkpt>
      <trkpt lat="45.852513983845711" lon="9.337231423705816">
        <ele>820.13999999999999</ele>
        <time>2014-05-25T13:36:47Z</time>
      </trkpt>
      <trkpt lat="45.85248607210815" lon="9.337258581072092">
        <ele>817.74000000000001</ele>
        <time>2014-05-25T13:36:59Z</time>
      </trkpt>
      <trkpt lat="45.852465871721506" lon="9.337313650175929">
        <ele>815.82000000000005</ele>
        <time>2014-05-25T13:37:05Z</time>
      </trkpt>
      <trkpt lat="45.852424381300807" lon="9.337377855554223">
        <ele>812.45000000000005</ele>
        <time>2014-05-25T13:37:15Z</time>
      </trkpt>
      <trkpt lat="45.852452460676432" lon="9.337477684020996">
        <ele>809.57000000000005</ele>
        <time>2014-05-25T13:37:24Z</time>
      </trkpt>
      <trkpt lat="45.852425806224346" lon="9.33749251998961">
        <ele>808.13</ele>
        <time>2014-05-25T13:37:38Z</time>
      </trkpt>
      <trkpt lat="45.852404432371259" lon="9.337426805868745">
        <ele>807.63999999999999</ele>
        <time>2014-05-25T13:38:06Z</time>
      </trkpt>
      <trkpt lat="45.852450197562575" lon="9.337512133643031">
        <ele>807.63999999999999</ele>
        <time>2014-05-25T13:38:34Z</time>
      </trkpt>
      <trkpt lat="45.852476516738534" lon="9.337561335414648">
        <ele>808.13</ele>
        <time>2014-05-25T13:39:07Z</time>
      </trkpt>
      <trkpt lat="45.852403677999973" lon="9.337461506947875">
        <ele>807.63999999999999</ele>
        <time>2014-05-25T13:39:32Z</time>
      </trkpt>
      <trkpt lat="45.85236637853086" lon="9.337440887466073">
        <ele>808.13</ele>
        <time>2014-05-25T13:40:08Z</time>
      </trkpt>
      <trkpt lat="45.852411389350891" lon="9.337405515834689">
        <ele>807.63999999999999</ele>
        <time>2014-05-25T13:40:48Z</time>
      </trkpt>
      <trkpt lat="45.852461596950889" lon="9.337442982941866">
        <ele>807.63999999999999</ele>
        <time>2014-05-25T13:41:28Z</time>
      </trkpt>
      <trkpt lat="45.852479031309485" lon="9.337454047054052">
        <ele>807.63999999999999</ele>
        <time>2014-05-25T13:42:04Z</time>
      </trkpt>
      <trkpt lat="45.85244357585907" lon="9.337453544139862">
        <ele>807.63999999999999</ele>
        <time>2014-05-25T13:42:39Z</time>
      </trkpt>
      <trkpt lat="45.852439049631357" lon="9.337479611858726">
        <ele>807.63999999999999</ele>
        <time>2014-05-25T13:43:18Z</time>
      </trkpt>
      <trkpt lat="45.852415999397635" lon="9.337534094229341">
        <ele>808.13</ele>
        <time>2014-05-25T13:43:37Z</time>
      </trkpt>
      <trkpt lat="45.852359673008323" lon="9.337529232725501">
        <ele>808.13</ele>
        <time>2014-05-25T13:43:56Z</time>
      </trkpt>
      <trkpt lat="45.852379621937871" lon="9.33753065764904">
        <ele>807.63999999999999</ele>
        <time>2014-05-25T13:44:12Z</time>
      </trkpt>
      <trkpt lat="45.852356571704149" lon="9.337549433112145">
        <ele>807.63999999999999</ele>
        <time>2014-05-25T13:44:29Z</time>
      </trkpt>
      <trkpt lat="45.852398313581944" lon="9.337574830278754">
        <ele>807.63999999999999</ele>
        <time>2014-05-25T13:44:50Z</time>
      </trkpt>
      <trkpt lat="45.852406024932861" lon="9.337587486952543">
        <ele>808.13</ele>
        <time>2014-05-25T13:45:19Z</time>
      </trkpt>
      <trkpt lat="45.85240451619029" lon="9.337607687339187">
        <ele>807.63999999999999</ele>
        <time>2014-05-25T13:45:45Z</time>
      </trkpt>
      <trkpt lat="45.852375514805317" lon="9.33755605481565">
        <ele>807.63999999999999</ele>
        <time>2014-05-25T13:46:08Z</time>
      </trkpt>
      <trkpt lat="45.852359756827354" lon="9.337537363171578">
        <ele>807.63999999999999</ele>
        <time>2014-05-25T13:46:35Z</time>
      </trkpt>
      <trkpt lat="45.852301837876439" lon="9.337461926043034">
        <ele>805.72000000000003</ele>
        <time>2014-05-25T13:46:57Z</time>
      </trkpt>
      <trkpt lat="45.852220030501485" lon="9.337440971285105">
        <ele>802.84000000000003</ele>
        <time>2014-05-25T13:47:09Z</time>
      </trkpt>
      <trkpt lat="45.852153226733208" lon="9.337519593536854">
        <ele>799.47000000000003</ele>
        <time>2014-05-25T13:47:20Z</time>
      </trkpt>
      <trkpt lat="45.852100336924195" lon="9.337533339858055">
        <ele>796.59000000000003</ele>
        <time>2014-05-25T13:47:31Z</time>
      </trkpt>
      <trkpt lat="45.852057002484798" lon="9.337493693456054">
        <ele>793.22000000000003</ele>
        <time>2014-05-25T13:47:45Z</time>
      </trkpt>
      <trkpt lat="45.852054990828037" lon="9.337459830567241">
        <ele>792.74000000000001</ele>
        <time>2014-05-25T13:47:47Z</time>
      </trkpt>
      <trkpt lat="45.851986929774284" lon="9.337459160014987">
        <ele>789.38</ele>
        <time>2014-05-25T13:47:56Z</time>
      </trkpt>
      <trkpt lat="45.851978547871113" lon="9.337487490847707">
        <ele>787.94000000000005</ele>
        <time>2014-05-25T13:48:01Z</time>
      </trkpt>
      <trkpt lat="45.851926915347576" lon="9.337482880800962">
        <ele>784.57000000000005</ele>
        <time>2014-05-25T13:48:14Z</time>
      </trkpt>
      <trkpt lat="45.851823482662439" lon="9.337441138923168">
        <ele>781.21000000000004</ele>
        <time>2014-05-25T13:48:24Z</time>
      </trkpt>
      <trkpt lat="45.851799929514527" lon="9.33753551915288">
        <ele>778.32000000000005</ele>
        <time>2014-05-25T13:48:34Z</time>
      </trkpt>
      <trkpt lat="45.851791379973292" lon="9.337662337347865">
        <ele>774.48000000000002</ele>
        <time>2014-05-25T13:48:44Z</time>
      </trkpt>
      <trkpt lat="45.851752068847418" lon="9.337804578244686">
        <ele>771.11000000000001</ele>
        <time>2014-05-25T13:48:55Z</time>
      </trkpt>
      <trkpt lat="45.851724660024047" lon="9.337917901575565">
        <ele>768.23000000000002</ele>
        <time>2014-05-25T13:49:05Z</time>
      </trkpt>
      <trkpt lat="45.851653330028057" lon="9.338044719770551">
        <ele>764.38999999999999</ele>
        <time>2014-05-25T13:49:18Z</time>
      </trkpt>
      <trkpt lat="45.851573785766959" lon="9.338128538802266">
        <ele>761.98000000000002</ele>
        <time>2014-05-25T13:49:31Z</time>
      </trkpt>
      <trkpt lat="45.85152106359601" lon="9.338253680616617">
        <ele>758.62</ele>
        <time>2014-05-25T13:49:42Z</time>
      </trkpt>
      <trkpt lat="45.851501449942589" lon="9.338364992290735">
        <ele>755.73000000000002</ele>
        <time>2014-05-25T13:49:54Z</time>
      </trkpt>
      <trkpt lat="45.851415116339922" lon="9.338480243459344">
        <ele>751.88999999999999</ele>
        <time>2014-05-25T13:50:08Z</time>
      </trkpt>
      <trkpt lat="45.851392569020391" lon="9.338526930660009">
        <ele>751.40999999999997</ele>
        <time>2014-05-25T13:50:12Z</time>
      </trkpt>
      <trkpt lat="45.851331129670143" lon="9.33865056373179">
        <ele>748.03999999999996</ele>
        <time>2014-05-25T13:50:25Z</time>
      </trkpt>
      <trkpt lat="45.851377313956618" lon="9.338633799925447">
        <ele>744.67999999999995</ele>
        <time>2014-05-25T13:50:36Z</time>
      </trkpt>
      <trkpt lat="45.851383684203029" lon="9.338648300617933">
        <ele>744.20000000000005</ele>
        <time>2014-05-25T13:50:38Z</time>
      </trkpt>
      <trkpt lat="45.851400699466467" lon="9.338696580380201">
        <ele>743.24000000000001</ele>
        <time>2014-05-25T13:50:51Z</time>
      </trkpt>
      <trkpt lat="45.851336494088173" lon="9.33882893063128">
        <ele>740.35000000000002</ele>
        <time>2014-05-25T13:51:04Z</time>
      </trkpt>
      <trkpt lat="45.851278575137258" lon="9.338976871222258">
        <ele>736.99000000000001</ele>
        <time>2014-05-25T13:51:18Z</time>
      </trkpt>
      <trkpt lat="45.851199198514223" lon="9.339086087420583">
        <ele>735.07000000000005</ele>
        <time>2014-05-25T13:51:33Z</time>
      </trkpt>
      <trkpt lat="45.851126359775662" lon="9.339063037186861">
        <ele>733.13999999999999</ele>
        <time>2014-05-25T13:51:46Z</time>
      </trkpt>
      <trkpt lat="45.851091155782342" lon="9.339034873992205">
        <ele>730.25999999999999</ele>
        <time>2014-05-25T13:51:59Z</time>
      </trkpt>
      <trkpt lat="45.851067518815398" lon="9.338914090767503">
        <ele>726.88999999999999</ele>
        <time>2014-05-25T13:52:12Z</time>
      </trkpt>
      <trkpt lat="45.8510104380548" lon="9.338853070512414">
        <ele>723.52999999999997</ele>
        <time>2014-05-25T13:52:22Z</time>
      </trkpt>
      <trkpt lat="45.850960230454803" lon="9.338802276179195">
        <ele>720.64999999999998</ele>
        <time>2014-05-25T13:52:34Z</time>
      </trkpt>
      <trkpt lat="45.850940700620413" lon="9.338908977806568">
        <ele>717.27999999999997</ele>
        <time>2014-05-25T13:52:45Z</time>
      </trkpt>
      <trkpt lat="45.850881105288863" lon="9.338878551498056">
        <ele>713.91999999999996</ele>
        <time>2014-05-25T13:52:57Z</time>
      </trkpt>
      <trkpt lat="45.850829053670168" lon="9.338845778256655">
        <ele>711.02999999999997</ele>
        <time>2014-05-25T13:53:09Z</time>
      </trkpt>
      <trkpt lat="45.850786808878183" lon="9.338895818218589">
        <ele>708.14999999999998</ele>
        <time>2014-05-25T13:53:21Z</time>
      </trkpt>
      <trkpt lat="45.850687567144632" lon="9.338841503486037">
        <ele>705.25999999999999</ele>
        <time>2014-05-25T13:53:33Z</time>
      </trkpt>
      <trkpt lat="45.85063124075532" lon="9.338758857920766">
        <ele>701.89999999999998</ele>
        <time>2014-05-25T13:53:45Z</time>
      </trkpt>
      <trkpt lat="45.850545326247811" lon="9.338763635605574">
        <ele>699.01999999999998</ele>
        <time>2014-05-25T13:53:57Z</time>
      </trkpt>
      <trkpt lat="45.850490340963006" lon="9.338847203180194">
        <ele>696.13</ele>
        <time>2014-05-25T13:54:11Z</time>
      </trkpt>
      <trkpt lat="45.850485563278198" lon="9.338855417445302">
        <ele>695.64999999999998</ele>
        <time>2014-05-25T13:54:12Z</time>
      </trkpt>
      <trkpt lat="45.850492604076862" lon="9.338971255347133">
        <ele>692.28999999999996</ele>
        <time>2014-05-25T13:54:24Z</time>
      </trkpt>
      <trkpt lat="45.850519593805075" lon="9.339116513729096">
        <ele>689.88</ele>
        <time>2014-05-25T13:54:37Z</time>
      </trkpt>
      <trkpt lat="45.85051498375833" lon="9.339237632229924">
        <ele>687.48000000000002</ele>
        <time>2014-05-25T13:54:49Z</time>
      </trkpt>
      <trkpt lat="45.85046561434865" lon="9.33924525976181">
        <ele>686.51999999999998</ele>
        <time>2014-05-25T13:54:55Z</time>
      </trkpt>
      <trkpt lat="45.850343909114599" lon="9.339234279468656">
        <ele>683.14999999999998</ele>
        <time>2014-05-25T13:55:07Z</time>
      </trkpt>
      <trkpt lat="45.850281296297908" lon="9.339181976392865">
        <ele>681.71000000000004</ele>
        <time>2014-05-25T13:55:15Z</time>
      </trkpt>
      <trkpt lat="45.850221114233136" lon="9.339076029136777">
        <ele>679.78999999999996</ele>
        <time>2014-05-25T13:55:29Z</time>
      </trkpt>
      <trkpt lat="45.850104186683893" lon="9.339073011651635">
        <ele>676.90999999999997</ele>
        <time>2014-05-25T13:55:43Z</time>
      </trkpt>
      <trkpt lat="45.850014500319958" lon="9.339008470997214">
        <ele>673.53999999999996</ele>
        <time>2014-05-25T13:55:57Z</time>
      </trkpt>
      <trkpt lat="45.849918192252517" lon="9.338997574523091">
        <ele>671.13999999999999</ele>
        <time>2014-05-25T13:56:12Z</time>
      </trkpt>
      <trkpt lat="45.849888017401099" lon="9.339039567857981">
        <ele>669.70000000000005</ele>
        <time>2014-05-25T13:56:17Z</time>
      </trkpt>
      <trkpt lat="45.849853400141001" lon="9.339052559807897">
        <ele>668.73000000000002</ele>
        <time>2014-05-25T13:56:20Z</time>
      </trkpt>
      <trkpt lat="45.849766731262207" lon="9.33902439661324">
        <ele>665.85000000000002</ele>
        <time>2014-05-25T13:56:33Z</time>
      </trkpt>
      <trkpt lat="45.849688025191426" lon="9.339074101299048">
        <ele>662.49000000000001</ele>
        <time>2014-05-25T13:56:44Z</time>
      </trkpt>
      <trkpt lat="45.849687019363046" lon="9.339110981673002">
        <ele>662.49000000000001</ele>
        <time>2014-05-25T13:56:55Z</time>
      </trkpt>
      <trkpt lat="45.849665813148022" lon="9.339104108512402">
        <ele>662.49000000000001</ele>
        <time>2014-05-25T13:57:08Z</time>
      </trkpt>
      <trkpt lat="45.849579144269228" lon="9.339170577004552">
        <ele>660.08000000000004</ele>
        <time>2014-05-25T13:57:22Z</time>
      </trkpt>
      <trkpt lat="45.849514016881585" lon="9.339220281690359">
        <ele>658.63999999999999</ele>
        <time>2014-05-25T13:57:36Z</time>
      </trkpt>
      <trkpt lat="45.849414775148034" lon="9.339306196197867">
        <ele>657.20000000000005</ele>
        <time>2014-05-25T13:57:49Z</time>
      </trkpt>
      <trkpt lat="45.849386025220156" lon="9.339378196746111">
        <ele>656.72000000000003</ele>
        <time>2014-05-25T13:57:54Z</time>
      </trkpt>
      <trkpt lat="45.849305810406804" lon="9.339555222541094">
        <ele>653.35000000000002</ele>
        <time>2014-05-25T13:58:09Z</time>
      </trkpt>
      <trkpt lat="45.849252250045538" lon="9.339688494801521">
        <ele>650.47000000000003</ele>
        <time>2014-05-25T13:58:22Z</time>
      </trkpt>
      <trkpt lat="45.849204389378428" lon="9.339821683242917">
        <ele>647.10000000000002</ele>
        <time>2014-05-25T13:58:35Z</time>
      </trkpt>
      <trkpt lat="45.84916197694838" lon="9.339981861412525">
        <ele>644.22000000000003</ele>
        <time>2014-05-25T13:58:48Z</time>
      </trkpt>
      <trkpt lat="45.849139848724008" lon="9.340094095095992">
        <ele>641.34000000000003</ele>
        <time>2014-05-25T13:58:58Z</time>
      </trkpt>
      <trkpt lat="45.849142782390118" lon="9.340206915512681">
        <ele>637.97000000000003</ele>
        <time>2014-05-25T13:59:08Z</time>
      </trkpt>
      <trkpt lat="45.84910674020648" lon="9.340301295742393">
        <ele>635.57000000000005</ele>
        <time>2014-05-25T13:59:19Z</time>
      </trkpt>
      <trkpt lat="45.849101627245545" lon="9.340435322374106">
        <ele>632.67999999999995</ele>
        <time>2014-05-25T13:59:31Z</time>
      </trkpt>
      <trkpt lat="45.84914336912334" lon="9.340530037879944">
        <ele>629.79999999999995</ele>
        <time>2014-05-25T13:59:42Z</time>
      </trkpt>
      <trkpt lat="45.849151331931353" lon="9.340584520250559">
        <ele>627.88</ele>
        <time>2014-05-25T13:59:48Z</time>
      </trkpt>
      <trkpt lat="45.849138423800468" lon="9.340729359537363">
        <ele>624.99000000000001</ele>
        <time>2014-05-25T13:59:59Z</time>
      </trkpt>
      <trkpt lat="45.849189134314656" lon="9.340885765850544">
        <ele>622.11000000000001</ele>
        <time>2014-05-25T14:00:12Z</time>
      </trkpt>
      <trkpt lat="45.849212184548378" lon="9.340920047834516">
        <ele>621.63</ele>
        <time>2014-05-25T14:00:15Z</time>
      </trkpt>
      <trkpt lat="45.849282257258892" lon="9.341063713654876">
        <ele>619.23000000000002</ele>
        <time>2014-05-25T14:00:26Z</time>
      </trkpt>
      <trkpt lat="45.849289214238524" lon="9.341123895719647">
        <ele>616.34000000000003</ele>
        <time>2014-05-25T14:00:37Z</time>
      </trkpt>
      <trkpt lat="45.849306983873248" lon="9.341143593192101">
        <ele>615.86000000000001</ele>
        <time>2014-05-25T14:00:39Z</time>
      </trkpt>
      <trkpt lat="45.849297679960728" lon="9.34125155210495">
        <ele>613.46000000000004</ele>
        <time>2014-05-25T14:00:50Z</time>
      </trkpt>
      <trkpt lat="45.849300948902965" lon="9.341345764696598">
        <ele>610.57000000000005</ele>
        <time>2014-05-25T14:01:01Z</time>
      </trkpt>
      <trkpt lat="45.849300110712647" lon="9.341403683647513">
        <ele>608.64999999999998</ele>
        <time>2014-05-25T14:01:06Z</time>
      </trkpt>
      <trkpt lat="45.849288795143366" lon="9.341485742479563">
        <ele>606.25</ele>
        <time>2014-05-25T14:01:14Z</time>
      </trkpt>
      <trkpt lat="45.849287956953049" lon="9.34163510799408">
        <ele>603.36000000000001</ele>
        <time>2014-05-25T14:01:27Z</time>
      </trkpt>
      <trkpt lat="45.849318969994783" lon="9.341840380802751">
        <ele>600.96000000000004</ele>
        <time>2014-05-25T14:01:40Z</time>
      </trkpt>
      <trkpt lat="45.849315701052547" lon="9.341945322230458">
        <ele>600</ele>
        <time>2014-05-25T14:01:54Z</time>
      </trkpt>
      <trkpt lat="45.84929876960814" lon="9.341924535110593">
        <ele>599.51999999999998</ele>
        <time>2014-05-25T14:02:08Z</time>
      </trkpt>
      <trkpt lat="45.849298350512981" lon="9.341946076601744">
        <ele>598.08000000000004</ele>
        <time>2014-05-25T14:02:17Z</time>
      </trkpt>
      <trkpt lat="45.849273288622499" lon="9.341947250068188">
        <ele>598.55999999999995</ele>
        <time>2014-05-25T14:02:36Z</time>
      </trkpt>
      <trkpt lat="45.84929826669395" lon="9.341975497081876">
        <ele>598.08000000000004</ele>
        <time>2014-05-25T14:03:03Z</time>
      </trkpt>
      <trkpt lat="45.849328022450209" lon="9.341988153755665">
        <ele>598.08000000000004</ele>
        <time>2014-05-25T14:03:37Z</time>
      </trkpt>
      <trkpt lat="45.849320478737354" lon="9.341959739103913">
        <ele>597.60000000000002</ele>
        <time>2014-05-25T14:04:19Z</time>
      </trkpt>
      <trkpt lat="45.849312013015151" lon="9.341946495696902">
        <ele>597.60000000000002</ele>
        <time>2014-05-25T14:04:58Z</time>
      </trkpt>
      <trkpt lat="45.8493094984442" lon="9.34195470996201">
        <ele>597.60000000000002</ele>
        <time>2014-05-25T14:05:38Z</time>
      </trkpt>
      <trkpt lat="45.849311258643866" lon="9.341954877600074">
        <ele>597.12</ele>
        <time>2014-05-25T14:06:18Z</time>
      </trkpt>
      <trkpt lat="45.849278569221497" lon="9.341963846236467">
        <ele>597.12</ele>
        <time>2014-05-25T14:06:57Z</time>
      </trkpt>
      <trkpt lat="45.849309666082263" lon="9.34197373688221">
        <ele>597.12</ele>
        <time>2014-05-25T14:07:37Z</time>
      </trkpt>
      <trkpt lat="45.849309582263231" lon="9.341940796002746">
        <ele>596.63999999999999</ele>
        <time>2014-05-25T14:08:17Z</time>
      </trkpt>
      <trkpt lat="45.849296506494284" lon="9.341947333887219">
        <ele>596.14999999999998</ele>
        <time>2014-05-25T14:08:51Z</time>
      </trkpt>
      <trkpt lat="45.849297847598791" lon="9.341920511797071">
        <ele>596.14999999999998</ele>
        <time>2014-05-25T14:09:24Z</time>
      </trkpt>
      <trkpt lat="45.849313354119658" lon="9.341950099915266">
        <ele>595.66999999999996</ele>
        <time>2014-05-25T14:10:00Z</time>
      </trkpt>
      <trkpt lat="45.849299440160394" lon="9.341935683041811">
        <ele>595.19000000000005</ele>
        <time>2014-05-25T14:10:40Z</time>
      </trkpt>
      <trkpt lat="45.849285610020161" lon="9.341920427978039">
        <ele>595.19000000000005</ele>
        <time>2014-05-25T14:11:14Z</time>
      </trkpt>
      <trkpt lat="45.849271779879928" lon="9.341950099915266">
        <ele>594.71000000000004</ele>
        <time>2014-05-25T14:11:53Z</time>
      </trkpt>
      <trkpt lat="45.849294746294618" lon="9.341932749375701">
        <ele>594.71000000000004</ele>
        <time>2014-05-25T14:12:35Z</time>
      </trkpt>
      <trkpt lat="45.849290303885937" lon="9.341942053288221">
        <ele>594.71000000000004</ele>
        <time>2014-05-25T14:13:13Z</time>
      </trkpt>
      <trkpt lat="45.84929533302784" lon="9.341934928670526">
        <ele>594.23000000000002</ele>
        <time>2014-05-25T14:13:51Z</time>
      </trkpt>
      <trkpt lat="45.849276725202799" lon="9.341932497918606">
        <ele>594.23000000000002</ele>
        <time>2014-05-25T14:14:31Z</time>
      </trkpt>
      <trkpt lat="45.849300026893616" lon="9.341945573687553">
        <ele>594.23000000000002</ele>
        <time>2014-05-25T14:15:08Z</time>
      </trkpt>
      <trkpt lat="45.84929239936173" lon="9.341954626142979">
        <ele>593.75</ele>
        <time>2014-05-25T14:15:48Z</time>
      </trkpt>
      <trkpt lat="45.849308911710978" lon="9.34192880988121">
        <ele>593.75</ele>
        <time>2014-05-25T14:16:27Z</time>
      </trkpt>
      <trkpt lat="45.849308241158724" lon="9.341955967247486">
        <ele>593.75</ele>
        <time>2014-05-25T14:17:07Z</time>
      </trkpt>
      <trkpt lat="45.849294578656554" lon="9.341924367472529">
        <ele>593.26999999999998</ele>
        <time>2014-05-25T14:17:40Z</time>
      </trkpt>
      <trkpt lat="45.84927043877542" lon="9.341980693861842">
        <ele>593.26999999999998</ele>
        <time>2014-05-25T14:18:16Z</time>
      </trkpt>
      <trkpt lat="45.849269265308976" lon="9.341971976682544">
        <ele>593.26999999999998</ele>
        <time>2014-05-25T14:19:00Z</time>
      </trkpt>
      <trkpt lat="45.849291477352381" lon="9.341949094086886">
        <ele>593.26999999999998</ele>
        <time>2014-05-25T14:19:20Z</time>
      </trkpt>
      <trkpt lat="45.849294662475586" lon="9.341931827366352">
        <ele>593.75</ele>
        <time>2014-05-25T14:19:39Z</time>
      </trkpt>
      <trkpt lat="45.849290890619159" lon="9.341942388564348">
        <ele>593.26999999999998</ele>
        <time>2014-05-25T14:20:14Z</time>
      </trkpt>
      <trkpt lat="45.849290136247873" lon="9.341938365250826">
        <ele>592.78999999999996</ele>
        <time>2014-05-25T14:20:43Z</time>
      </trkpt>
      <trkpt lat="45.849275216460228" lon="9.341925038024783">
        <ele>593.26999999999998</ele>
        <time>2014-05-25T14:21:22Z</time>
      </trkpt>
      <trkpt lat="45.849304050207138" lon="9.341953285038471">
        <ele>592.78999999999996</ele>
        <time>2014-05-25T14:21:51Z</time>
      </trkpt>
      <trkpt lat="45.849299021065235" lon="9.341942640021443">
        <ele>591.83000000000004</ele>
        <time>2014-05-25T14:22:12Z</time>
      </trkpt>
      <trkpt lat="45.849302709102631" lon="9.341933839023113">
        <ele>593.26999999999998</ele>
        <time>2014-05-25T14:22:22Z</time>
      </trkpt>
      <trkpt lat="45.849296087399125" lon="9.341990500688553">
        <ele>592.78999999999996</ele>
        <time>2014-05-25T14:22:52Z</time>
      </trkpt>
      <trkpt lat="45.849321903660893" lon="9.342028889805079">
        <ele>592.78999999999996</ele>
        <time>2014-05-25T14:23:30Z</time>
      </trkpt>
      <trkpt lat="45.84929876960814" lon="9.341972479596734">
        <ele>592.78999999999996</ele>
        <time>2014-05-25T14:24:14Z</time>
      </trkpt>
      <trkpt lat="45.849291644990444" lon="9.341983711346984">
        <ele>592.78999999999996</ele>
        <time>2014-05-25T14:24:55Z</time>
      </trkpt>
      <trkpt lat="45.849305307492614" lon="9.341977592557669">
        <ele>592.78999999999996</ele>
        <time>2014-05-25T14:25:27Z</time>
      </trkpt>
      <trkpt lat="45.849307654425502" lon="9.341982454061508">
        <ele>592.78999999999996</ele>
        <time>2014-05-25T14:25:48Z</time>
      </trkpt>
      <trkpt lat="45.849300613626838" lon="9.34200064279139">
        <ele>592.78999999999996</ele>
        <time>2014-05-25T14:26:17Z</time>
      </trkpt>
      <trkpt lat="45.84929826669395" lon="9.341955715790391">
        <ele>592.30999999999995</ele>
        <time>2014-05-25T14:26:54Z</time>
      </trkpt>
      <trkpt lat="45.849295752122998" lon="9.34197474271059">
        <ele>592.30999999999995</ele>
        <time>2014-05-25T14:27:31Z</time>
      </trkpt>
      <trkpt lat="45.849322322756052" lon="9.341982956975699">
        <ele>592.30999999999995</ele>
        <time>2014-05-25T14:28:03Z</time>
      </trkpt>
      <trkpt lat="45.849328190088272" lon="9.342001313343644">
        <ele>591.83000000000004</ele>
        <time>2014-05-25T14:28:28Z</time>
      </trkpt>
      <trkpt lat="45.849331626668572" lon="9.342003827914596">
        <ele>592.30999999999995</ele>
        <time>2014-05-25T14:28:55Z</time>
      </trkpt>
      <trkpt lat="45.849301787093282" lon="9.341967198997736">
        <ele>591.83000000000004</ele>
        <time>2014-05-25T14:29:22Z</time>
      </trkpt>
      <trkpt lat="45.849321903660893" lon="9.341996535658836">
        <ele>592.30999999999995</ele>
        <time>2014-05-25T14:29:57Z</time>
      </trkpt>
      <trkpt lat="45.849307905882597" lon="9.341989746317267">
        <ele>591.83000000000004</ele>
        <time>2014-05-25T14:30:28Z</time>
      </trkpt>
      <trkpt lat="45.849324082955718" lon="9.34200600720942">
        <ele>591.83000000000004</ele>
        <time>2014-05-25T14:31:09Z</time>
      </trkpt>
      <trkpt lat="45.849295584484935" lon="9.341965522617102">
        <ele>591.83000000000004</ele>
        <time>2014-05-25T14:31:47Z</time>
      </trkpt>
      <trkpt lat="45.849310336634517" lon="9.341939622536302">
        <ele>591.83000000000004</ele>
        <time>2014-05-25T14:32:23Z</time>
      </trkpt>
      <trkpt lat="45.849326094612479" lon="9.341936269775033">
        <ele>591.35000000000002</ele>
        <time>2014-05-25T14:33:01Z</time>
      </trkpt>
      <trkpt lat="45.849291142076254" lon="9.341927971690893">
        <ele>591.35000000000002</ele>
        <time>2014-05-25T14:33:39Z</time>
      </trkpt>
      <trkpt lat="45.849305894225836" lon="9.341962086036801">
        <ele>591.35000000000002</ele>
        <time>2014-05-25T14:34:11Z</time>
      </trkpt>
      <trkpt lat="45.849303966388106" lon="9.34193953871727">
        <ele>590.87</ele>
        <time>2014-05-25T14:34:42Z</time>
      </trkpt>
      <trkpt lat="45.849315449595451" lon="9.341946076601744">
        <ele>590.87</ele>
        <time>2014-05-25T14:35:13Z</time>
      </trkpt>
      <trkpt lat="45.849309330806136" lon="9.341961834579706">
        <ele>590.87</ele>
        <time>2014-05-25T14:35:48Z</time>
      </trkpt>
      <trkpt lat="45.849313689395785" lon="9.341978263109922">
        <ele>590.38999999999999</ele>
        <time>2014-05-25T14:36:22Z</time>
      </trkpt>
      <trkpt lat="45.849344283342361" lon="9.341965019702911">
        <ele>590.38999999999999</ele>
        <time>2014-05-25T14:36:52Z</time>
      </trkpt>
      <trkpt lat="45.849323160946369" lon="9.341934593394399">
        <ele>590.87</ele>
        <time>2014-05-25T14:36:57Z</time>
      </trkpt>
      <trkpt lat="45.849315701052547" lon="9.341951189562678">
        <ele>591.83000000000004</ele>
        <time>2014-05-25T14:37:08Z</time>
      </trkpt>
      <trkpt lat="45.849316287785769" lon="9.34194884262979">
        <ele>591.35000000000002</ele>
        <time>2014-05-25T14:37:23Z</time>
      </trkpt>
      <trkpt lat="45.849303212016821" lon="9.341941550374031">
        <ele>591.35000000000002</ele>
        <time>2014-05-25T14:37:43Z</time>
      </trkpt>
      <trkpt lat="45.849270522594452" lon="9.34188430197537">
        <ele>590.87</ele>
        <time>2014-05-25T14:38:01Z</time>
      </trkpt>
      <trkpt lat="45.849253507331014" lon="9.341894863173366">
        <ele>590.87</ele>
        <time>2014-05-25T14:38:17Z</time>
      </trkpt>
      <trkpt lat="45.849267169833183" lon="9.341941382735968">
        <ele>589.90999999999997</ele>
        <time>2014-05-25T14:38:40Z</time>
      </trkpt>
      <trkpt lat="45.849295584484935" lon="9.341969126835465">
        <ele>589.42999999999995</ele>
        <time>2014-05-25T14:38:57Z</time>
      </trkpt>
      <trkpt lat="45.849353754892945" lon="9.342092759907246">
        <ele>587.01999999999998</ele>
        <time>2014-05-25T14:39:13Z</time>
      </trkpt>
      <trkpt lat="45.849405052140355" lon="9.342133412137628">
        <ele>586.05999999999995</ele>
        <time>2014-05-25T14:39:24Z</time>
      </trkpt>
      <trkpt lat="45.849498510360718" lon="9.34218043461442">
        <ele>584.62</ele>
        <time>2014-05-25T14:39:38Z</time>
      </trkpt>
      <trkpt lat="45.849550729617476" lon="9.342230809852481">
        <ele>583.65999999999997</ele>
        <time>2014-05-25T14:39:48Z</time>
      </trkpt>
      <trkpt lat="45.84959146566689" lon="9.34235192835331">
        <ele>581.25</ele>
        <time>2014-05-25T14:40:03Z</time>
      </trkpt>
      <trkpt lat="45.849646115675569" lon="9.342277916148305">
        <ele>579.33000000000004</ele>
        <time>2014-05-25T14:40:13Z</time>
      </trkpt>
      <trkpt lat="45.849782740697265" lon="9.342190492898226">
        <ele>576.92999999999995</ele>
        <time>2014-05-25T14:40:30Z</time>
      </trkpt>
      <trkpt lat="45.849929340183735" lon="9.342115977779031">
        <ele>574.03999999999996</ele>
        <time>2014-05-25T14:40:47Z</time>
      </trkpt>
      <trkpt lat="45.850063115358353" lon="9.342101644724608">
        <ele>571.15999999999997</ele>
        <time>2014-05-25T14:41:06Z</time>
      </trkpt>
      <trkpt lat="45.85016805678606" lon="9.342098040506244">
        <ele>569.24000000000001</ele>
        <time>2014-05-25T14:41:21Z</time>
      </trkpt>
      <trkpt lat="45.850275177508593" lon="9.342153193429112">
        <ele>566.83000000000004</ele>
        <time>2014-05-25T14:41:37Z</time>
      </trkpt>
      <trkpt lat="45.850384645164013" lon="9.342172723263502">
        <ele>563.95000000000005</ele>
        <time>2014-05-25T14:41:53Z</time>
      </trkpt>
      <trkpt lat="45.850490424782038" lon="9.342204239219427">
        <ele>562.02999999999997</ele>
        <time>2014-05-25T14:42:08Z</time>
      </trkpt>
      <trkpt lat="45.850634761154652" lon="9.342253357172012">
        <ele>559.13999999999999</ele>
        <time>2014-05-25T14:42:24Z</time>
      </trkpt>
      <trkpt lat="45.850584888830781" lon="9.342374810948968">
        <ele>557.22000000000003</ele>
        <time>2014-05-25T14:42:40Z</time>
      </trkpt>
      <trkpt lat="45.850479863584042" lon="9.342413702979684">
        <ele>555.29999999999995</ele>
        <time>2014-05-25T14:42:55Z</time>
      </trkpt>
      <trkpt lat="45.850565107539296" lon="9.342459049075842">
        <ele>553.38</ele>
        <time>2014-05-25T14:43:07Z</time>
      </trkpt>
      <trkpt lat="45.850730566307902" lon="9.342468352988362">
        <ele>550.97000000000003</ele>
        <time>2014-05-25T14:43:26Z</time>
      </trkpt>
      <trkpt lat="45.85085604339838" lon="9.342411775141954">
        <ele>548.57000000000005</ele>
        <time>2014-05-25T14:43:43Z</time>
      </trkpt>
      <trkpt lat="45.850986717268825" lon="9.342400711029768">
        <ele>546.64999999999998</ele>
        <time>2014-05-25T14:43:58Z</time>
      </trkpt>
      <trkpt lat="45.851136166602373" lon="9.342396184802055">
        <ele>545.20000000000005</ele>
        <time>2014-05-25T14:44:13Z</time>
      </trkpt>
      <trkpt lat="45.851215375587344" lon="9.342379840090871">
        <ele>543.75999999999999</ele>
        <time>2014-05-25T14:44:25Z</time>
      </trkpt>
      <trkpt lat="45.851380499079823" lon="9.342342205345631">
        <ele>542.79999999999995</ele>
        <time>2014-05-25T14:44:39Z</time>
      </trkpt>
      <trkpt lat="45.851530870422721" lon="9.342270120978355">
        <ele>541.36000000000001</ele>
        <time>2014-05-25T14:44:56Z</time>
      </trkpt>
      <trkpt lat="45.851741340011358" lon="9.342268444597721">
        <ele>539.91999999999996</ele>
        <time>2014-05-25T14:45:14Z</time>
      </trkpt>
      <trkpt lat="45.851796744391322" lon="9.342357125133276">
        <ele>538.48000000000002</ele>
        <time>2014-05-25T14:45:27Z</time>
      </trkpt>
      <trkpt lat="45.851873187348247" lon="9.342581424862146">
        <ele>538.48000000000002</ele>
        <time>2014-05-25T14:45:44Z</time>
      </trkpt>
      <trkpt lat="45.851974189281464" lon="9.342725425958633">
        <ele>537.02999999999997</ele>
        <time>2014-05-25T14:46:00Z</time>
      </trkpt>
      <trkpt lat="45.852039735764265" lon="9.342867415398359">
        <ele>535.11000000000001</ele>
        <time>2014-05-25T14:46:13Z</time>
      </trkpt>
      <trkpt lat="45.852117016911507" lon="9.343044273555279">
        <ele>532.23000000000002</ele>
        <time>2014-05-25T14:46:28Z</time>
      </trkpt>
      <trkpt lat="45.852135121822357" lon="9.343181988224387">
        <ele>530.29999999999995</ele>
        <time>2014-05-25T14:46:38Z</time>
      </trkpt>
      <trkpt lat="45.852140067145228" lon="9.343347111716867">
        <ele>527.89999999999998</ele>
        <time>2014-05-25T14:46:52Z</time>
      </trkpt>
      <trkpt lat="45.852160938084126" lon="9.343557916581631">
        <ele>525.01999999999998</ele>
        <time>2014-05-25T14:47:09Z</time>
      </trkpt>
      <trkpt lat="45.852206451818347" lon="9.343712646514177">
        <ele>522.61000000000001</ele>
        <time>2014-05-25T14:47:22Z</time>
      </trkpt>
      <trkpt lat="45.852190526202321" lon="9.343880787491798">
        <ele>520.21000000000004</ele>
        <time>2014-05-25T14:47:38Z</time>
      </trkpt>
      <trkpt lat="45.852173175662756" lon="9.344085808843374">
        <ele>516.85000000000002</ele>
        <time>2014-05-25T14:47:54Z</time>
      </trkpt>
      <trkpt lat="45.852152891457081" lon="9.344269959256053">
        <ele>513.96000000000004</ele>
        <time>2014-05-25T14:48:09Z</time>
      </trkpt>
      <trkpt lat="45.852138474583626" lon="9.344450086355209">
        <ele>511.07999999999998</ele>
        <time>2014-05-25T14:48:24Z</time>
      </trkpt>
      <trkpt lat="45.852136211469769" lon="9.34459718875587">
        <ele>508.19</ele>
        <time>2014-05-25T14:48:38Z</time>
      </trkpt>
      <trkpt lat="45.852154148742557" lon="9.344767173752189">
        <ele>505.31</ele>
        <time>2014-05-25T14:48:54Z</time>
      </trkpt>
      <trkpt lat="45.85223444737494" lon="9.344920814037323">
        <ele>502.43000000000001</ele>
        <time>2014-05-25T14:49:11Z</time>
      </trkpt>
      <trkpt lat="45.852285996079445" lon="9.344989294186235">
        <ele>501.45999999999998</ele>
        <time>2014-05-25T14:49:18Z</time>
      </trkpt>
      <trkpt lat="45.852394793182611" lon="9.345094989985228">
        <ele>498.57999999999998</ele>
        <time>2014-05-25T14:49:35Z</time>
      </trkpt>
      <trkpt lat="45.852467799559236" lon="9.345238069072366">
        <ele>496.66000000000003</ele>
        <time>2014-05-25T14:49:51Z</time>
      </trkpt>
      <trkpt lat="45.852534016594291" lon="9.345369078218937">
        <ele>495.22000000000003</ele>
        <time>2014-05-25T14:50:06Z</time>
      </trkpt>
      <trkpt lat="45.852602496743202" lon="9.345540069043636">
        <ele>492.81</ele>
        <time>2014-05-25T14:50:23Z</time>
      </trkpt>
      <trkpt lat="45.852623954415321" lon="9.345678705722094">
        <ele>491.37</ele>
        <time>2014-05-25T14:50:35Z</time>
      </trkpt>
      <trkpt lat="45.852626049891114" lon="9.345845673233271">
        <ele>488.97000000000003</ele>
        <time>2014-05-25T14:50:50Z</time>
      </trkpt>
      <trkpt lat="45.852649603039026" lon="9.345994032919407">
        <ele>487.52999999999997</ele>
        <time>2014-05-25T14:51:04Z</time>
      </trkpt>
      <trkpt lat="45.852669300511479" lon="9.346213806420565">
        <ele>485.12</ele>
        <time>2014-05-25T14:51:21Z</time>
      </trkpt>
      <trkpt lat="45.852717664092779" lon="9.346389323472977">
        <ele>482.72000000000003</ele>
        <time>2014-05-25T14:51:36Z</time>
      </trkpt>
      <trkpt lat="45.852733002975583" lon="9.346500970423222">
        <ele>481.27999999999997</ele>
        <time>2014-05-25T14:51:46Z</time>
      </trkpt>
      <trkpt lat="45.852701235562563" lon="9.346683192998171">
        <ele>477.91000000000003</ele>
        <time>2014-05-25T14:52:02Z</time>
      </trkpt>
      <trkpt lat="45.852592270821333" lon="9.346778998151422">
        <ele>475.02999999999997</ele>
        <time>2014-05-25T14:52:16Z</time>
      </trkpt>
      <trkpt lat="45.852507194504142" lon="9.34686591848731">
        <ele>472.13999999999999</ele>
        <time>2014-05-25T14:52:32Z</time>
      </trkpt>
      <trkpt lat="45.852500405162573" lon="9.34687421657145">
        <ele>472.13999999999999</ele>
        <time>2014-05-25T14:52:33Z</time>
      </trkpt>
      <trkpt lat="45.852387165650725" lon="9.347010003402829">
        <ele>468.77999999999997</ele>
        <time>2014-05-25T14:52:50Z</time>
      </trkpt>
      <trkpt lat="45.852312818169594" lon="9.347122823819518">
        <ele>465.42000000000002</ele>
        <time>2014-05-25T14:53:06Z</time>
      </trkpt>
      <trkpt lat="45.852231178432703" lon="9.347101701423526">
        <ele>463.49000000000001</ele>
        <time>2014-05-25T14:53:15Z</time>
      </trkpt>
      <trkpt lat="45.852057421579957" lon="9.347057696431875">
        <ele>460.13</ele>
        <time>2014-05-25T14:53:32Z</time>
      </trkpt>
      <trkpt lat="45.851921131834388" lon="9.347057025879622">
        <ele>457.72000000000003</ele>
        <time>2014-05-25T14:53:45Z</time>
      </trkpt>
      <trkpt lat="45.851727006956935" lon="9.347074879333377">
        <ele>455.31999999999999</ele>
        <time>2014-05-25T14:54:01Z</time>
      </trkpt>
      <trkpt lat="45.851672273129225" lon="9.347044955939055">
        <ele>454.36000000000001</ele>
        <time>2014-05-25T14:54:06Z</time>
      </trkpt>
      <trkpt lat="45.851615276187658" lon="9.34697094373405">
        <ele>453.39999999999998</ele>
        <time>2014-05-25T14:54:12Z</time>
      </trkpt>
      <trkpt lat="45.851596500724554" lon="9.346879497170448">
        <ele>452.92000000000002</ele>
        <time>2014-05-25T14:54:17Z</time>
      </trkpt>
      <trkpt lat="45.851615695282817" lon="9.346573725342751">
        <ele>450.02999999999997</ele>
        <time>2014-05-25T14:54:33Z</time>
      </trkpt>
      <trkpt lat="45.851583424955606" lon="9.346256218850613">
        <ele>446.67000000000002</ele>
        <time>2014-05-25T14:54:51Z</time>
      </trkpt>
      <trkpt lat="45.851490050554276" lon="9.346226546913385">
        <ele>443.79000000000002</ele>
        <time>2014-05-25T14:55:07Z</time>
      </trkpt>
      <trkpt lat="45.851458618417382" lon="9.346315478906035">
        <ele>442.33999999999997</ele>
        <time>2014-05-25T14:55:14Z</time>
      </trkpt>
      <trkpt lat="45.851365579292178" lon="9.34654438868165">
        <ele>439.45999999999998</ele>
        <time>2014-05-25T14:55:30Z</time>
      </trkpt>
      <trkpt lat="45.851271618157625" lon="9.346720492467284">
        <ele>437.06</ele>
        <time>2014-05-25T14:55:43Z</time>
      </trkpt>
      <trkpt lat="45.851186458021402" lon="9.346934230998159">
        <ele>434.64999999999998</ele>
        <time>2014-05-25T14:55:59Z</time>
      </trkpt>
      <trkpt lat="45.851183943450451" lon="9.3469856120646">
        <ele>434.17000000000002</ele>
        <time>2014-05-25T14:56:02Z</time>
      </trkpt>
      <trkpt lat="45.851176986470819" lon="9.347052667289972">
        <ele>433.69</ele>
        <time>2014-05-25T14:56:06Z</time>
      </trkpt>
      <trkpt lat="45.851185284554958" lon="9.347295491024852">
        <ele>431.76999999999998</ele>
        <time>2014-05-25T14:56:21Z</time>
      </trkpt>
      <trkpt lat="45.85123767144978" lon="9.347512666136026">
        <ele>430.81</ele>
        <time>2014-05-25T14:56:34Z</time>
      </trkpt>
      <trkpt lat="45.851395418867469" lon="9.347692457959056">
        <ele>427.92000000000002</ele>
        <time>2014-05-25T14:56:49Z</time>
      </trkpt>
      <trkpt lat="45.85153472609818" lon="9.347880715504289">
        <ele>425.51999999999998</ele>
        <time>2014-05-25T14:57:04Z</time>
      </trkpt>
      <trkpt lat="45.85161192342639" lon="9.348127478733659">
        <ele>422.63999999999999</ele>
        <time>2014-05-25T14:57:18Z</time>
      </trkpt>
      <trkpt lat="45.851634722203016" lon="9.348351610824466">
        <ele>420.23000000000002</ele>
        <time>2014-05-25T14:57:31Z</time>
      </trkpt>
      <trkpt lat="45.851636733859777" lon="9.348570546135306">
        <ele>417.35000000000002</ele>
        <time>2014-05-25T14:57:44Z</time>
      </trkpt>
      <trkpt lat="45.851654587313533" lon="9.348656795918942">
        <ele>416.38999999999999</ele>
        <time>2014-05-25T14:57:49Z</time>
      </trkpt>
      <trkpt lat="45.851675542071462" lon="9.348919317126274">
        <ele>413.01999999999998</ele>
        <time>2014-05-25T14:58:03Z</time>
      </trkpt>
      <trkpt lat="45.851841839030385" lon="9.349075220525265">
        <ele>409.18000000000001</ele>
        <time>2014-05-25T14:58:20Z</time>
      </trkpt>
      <trkpt lat="45.852034706622362" lon="9.349134396761656">
        <ele>407.74000000000001</ele>
        <time>2014-05-25T14:58:35Z</time>
      </trkpt>
      <trkpt lat="45.852189185097814" lon="9.349142108112574">
        <ele>407.25999999999999</ele>
        <time>2014-05-25T14:58:49Z</time>
      </trkpt>
      <trkpt lat="45.852344501763582" lon="9.349197931587696">
        <ele>406.29000000000002</ele>
        <time>2014-05-25T14:59:03Z</time>
      </trkpt>
      <trkpt lat="45.852351123467088" lon="9.349209414795041">
        <ele>406.29000000000002</ele>
        <time>2014-05-25T14:59:04Z</time>
      </trkpt>
      <trkpt lat="45.852390686050057" lon="9.349298430606723">
        <ele>406.29000000000002</ele>
        <time>2014-05-25T14:59:10Z</time>
      </trkpt>
      <trkpt lat="45.852361768484116" lon="9.34964862652123">
        <ele>404.37</ele>
        <time>2014-05-25T14:59:29Z</time>
      </trkpt>
      <trkpt lat="45.852306531742215" lon="9.349908381700516">
        <ele>401.49000000000001</ele>
        <time>2014-05-25T14:59:44Z</time>
      </trkpt>
      <trkpt lat="45.852284152060747" lon="9.350164867937565">
        <ele>398.60000000000002</ele>
        <time>2014-05-25T15:00:00Z</time>
      </trkpt>
      <trkpt lat="45.852288845926523" lon="9.350288668647409">
        <ele>397.63999999999999</ele>
        <time>2014-05-25T15:00:16Z</time>
      </trkpt>
      <trkpt lat="45.852299574762583" lon="9.350450523197651">
        <ele>395.72000000000003</ele>
        <time>2014-05-25T15:00:29Z</time>
      </trkpt>
      <trkpt lat="45.852333940565586" lon="9.350523445755243">
        <ele>394.75999999999999</ele>
        <time>2014-05-25T15:00:35Z</time>
      </trkpt>
      <trkpt lat="45.852361181750894" lon="9.35060877352953">
        <ele>394.27999999999997</ele>
        <time>2014-05-25T15:00:45Z</time>
      </trkpt>
      <trkpt lat="45.852238638326526" lon="9.350650599226356">
        <ele>392.83999999999997</ele>
        <time>2014-05-25T15:00:55Z</time>
      </trkpt>
      <trkpt lat="45.852164290845394" lon="9.350691083818674">
        <ele>391.38999999999999</ele>
        <time>2014-05-25T15:01:01Z</time>
      </trkpt>
      <trkpt lat="45.851993886753917" lon="9.350726036354899">
        <ele>388.50999999999999</ele>
        <time>2014-05-25T15:01:14Z</time>
      </trkpt>
      <trkpt lat="45.851848712190986" lon="9.350743889808655">
        <ele>385.14999999999998</ele>
        <time>2014-05-25T15:01:26Z</time>
      </trkpt>
      <trkpt lat="45.851731784641743" lon="9.35076467692852">
        <ele>382.25999999999999</ele>
        <time>2014-05-25T15:01:36Z</time>
      </trkpt>
      <trkpt lat="45.851675625890493" lon="9.350812789052725">
        <ele>380.33999999999997</ele>
        <time>2014-05-25T15:01:42Z</time>
      </trkpt>
      <trkpt lat="45.851686522364616" lon="9.35103876516223">
        <ele>376.97000000000003</ele>
        <time>2014-05-25T15:01:56Z</time>
      </trkpt>
      <trkpt lat="45.851671351119876" lon="9.351207241415978">
        <ele>375.05000000000001</ele>
        <time>2014-05-25T15:02:06Z</time>
      </trkpt>
      <trkpt lat="45.851573115214705" lon="9.35119366273284">
        <ele>372.17000000000002</ele>
        <time>2014-05-25T15:02:17Z</time>
      </trkpt>
      <trkpt lat="45.851451242342591" lon="9.35102216899395">
        <ele>369.27999999999997</ele>
        <time>2014-05-25T15:02:32Z</time>
      </trkpt>
      <trkpt lat="45.851336997002363" lon="9.350862745195627">
        <ele>365.92000000000002</ele>
        <time>2014-05-25T15:02:46Z</time>
      </trkpt>
      <trkpt lat="45.851205987855792" lon="9.350736849009991">
        <ele>362.55000000000001</ele>
        <time>2014-05-25T15:03:00Z</time>
      </trkpt>
      <trkpt lat="45.851098196581006" lon="9.350589327514172">
        <ele>359.67000000000002</ele>
        <time>2014-05-25T15:03:14Z</time>
      </trkpt>
      <trkpt lat="45.850960481911898" lon="9.350434765219688">
        <ele>356.31</ele>
        <time>2014-05-25T15:03:29Z</time>
      </trkpt>
      <trkpt lat="45.850838106125593" lon="9.350282968953252">
        <ele>353.42000000000002</ele>
        <time>2014-05-25T15:03:44Z</time>
      </trkpt>
      <trkpt lat="45.850775660946965" lon="9.350203173235059">
        <ele>351.98000000000002</ele>
        <time>2014-05-25T15:03:52Z</time>
      </trkpt>
      <trkpt lat="45.850745653733611" lon="9.350239131599665">
        <ele>350.54000000000002</ele>
        <time>2014-05-25T15:03:57Z</time>
      </trkpt>
      <trkpt lat="45.850719669833779" lon="9.35036251321435">
        <ele>348.62</ele>
        <time>2014-05-25T15:04:05Z</time>
      </trkpt>
      <trkpt lat="45.850667534396052" lon="9.350571306422353">
        <ele>345.25</ele>
        <time>2014-05-25T15:04:19Z</time>
      </trkpt>
      <trkpt lat="45.850652866065502" lon="9.350776579231024">
        <ele>342.37</ele>
        <time>2014-05-25T15:04:32Z</time>
      </trkpt>
      <trkpt lat="45.850612968206406" lon="9.350948659703136">
        <ele>339.48000000000002</ele>
        <time>2014-05-25T15:04:43Z</time>
      </trkpt>
      <trkpt lat="45.850494112819433" lon="9.3510334007442">
        <ele>336.12</ele>
        <time>2014-05-25T15:04:56Z</time>
      </trkpt>
      <trkpt lat="45.850430577993393" lon="9.351114202290773">
        <ele>334.68000000000001</ele>
        <time>2014-05-25T15:05:03Z</time>
      </trkpt>
      <trkpt lat="45.850354554131627" lon="9.351341938599944">
        <ele>331.31</ele>
        <time>2014-05-25T15:05:19Z</time>
      </trkpt>
      <trkpt lat="45.850353380665183" lon="9.351370772346854">
        <ele>330.82999999999998</ele>
        <time>2014-05-25T15:05:21Z</time>
      </trkpt>
      <trkpt lat="45.850324546918273" lon="9.351567160338163">
        <ele>327.94999999999999</ele>
        <time>2014-05-25T15:05:34Z</time>
      </trkpt>
      <trkpt lat="45.850315075367689" lon="9.351637400686741">
        <ele>327.47000000000003</ele>
        <time>2014-05-25T15:05:38Z</time>
      </trkpt>
      <trkpt lat="45.850319685414433" lon="9.351678974926472">
        <ele>326.5</ele>
        <time>2014-05-25T15:05:41Z</time>
      </trkpt>
      <trkpt lat="45.850328402593732" lon="9.351740498095751">
        <ele>326.01999999999998</ele>
        <time>2014-05-25T15:05:45Z</time>
      </trkpt>
      <trkpt lat="45.850317925214767" lon="9.351856671273708">
        <ele>325.06</ele>
        <time>2014-05-25T15:05:57Z</time>
      </trkpt>
      <trkpt lat="45.850337455049157" lon="9.352007294073701">
        <ele>323.62</ele>
        <time>2014-05-25T15:06:09Z</time>
      </trkpt>
      <trkpt lat="45.850410293787718" lon="9.35208641923964">
        <ele>322.66000000000003</ele>
        <time>2014-05-25T15:06:22Z</time>
      </trkpt>
      <trkpt lat="45.850415658205748" lon="9.352095304057002">
        <ele>322.66000000000003</ele>
        <time>2014-05-25T15:06:23Z</time>
      </trkpt>
      <trkpt lat="45.850419346243143" lon="9.35216554440558">
        <ele>321.69999999999999</ele>
        <time>2014-05-25T15:06:34Z</time>
      </trkpt>
      <trkpt lat="45.850431164726615" lon="9.35238054022193">
        <ele>319.30000000000001</ele>
        <time>2014-05-25T15:06:47Z</time>
      </trkpt>
      <trkpt lat="45.850429069250822" lon="9.35238934122026">
        <ele>319.30000000000001</ele>
        <time>2014-05-25T15:06:48Z</time>
      </trkpt>
      <trkpt lat="45.850363858044147" lon="9.352480033412576">
        <ele>317.85000000000002</ele>
        <time>2014-05-25T15:06:58Z</time>
      </trkpt>
      <trkpt lat="45.8503542188555" lon="9.35268203727901">
        <ele>315.44999999999999</ele>
        <time>2014-05-25T15:07:14Z</time>
      </trkpt>
      <trkpt lat="45.8504284825176" lon="9.352812459692359">
        <ele>314.00999999999999</ele>
        <time>2014-05-25T15:07:29Z</time>
      </trkpt>
      <trkpt lat="45.850493693724275" lon="9.353052265942097">
        <ele>312.08999999999997</ele>
        <time>2014-05-25T15:07:45Z</time>
      </trkpt>
      <trkpt lat="45.850497046485543" lon="9.353067604824901">
        <ele>312.08999999999997</ele>
        <time>2014-05-25T15:07:46Z</time>
      </trkpt>
      <trkpt lat="45.850459998473525" lon="9.353244043886662">
        <ele>310.16000000000003</ele>
        <time>2014-05-25T15:08:03Z</time>
      </trkpt>
      <trkpt lat="45.850510960444808" lon="9.353313026949763">
        <ele>309.68000000000001</ele>
        <time>2014-05-25T15:08:10Z</time>
      </trkpt>
      <trkpt lat="45.850587990134954" lon="9.35353615321219">
        <ele>307.75999999999999</ele>
        <time>2014-05-25T15:08:26Z</time>
      </trkpt>
      <trkpt lat="45.85062344558537" lon="9.353683758527041">
        <ele>305.83999999999997</ele>
        <time>2014-05-25T15:08:38Z</time>
      </trkpt>
      <trkpt lat="45.850618248805404" lon="9.353902945294976">
        <ele>303.43000000000001</ele>
        <time>2014-05-25T15:08:52Z</time>
      </trkpt>
      <trkpt lat="45.850593103095889" lon="9.354058848693967">
        <ele>301.99000000000001</ele>
        <time>2014-05-25T15:09:02Z</time>
      </trkpt>
      <trkpt lat="45.850545661523938" lon="9.354092041030526">
        <ele>301.02999999999997</ele>
        <time>2014-05-25T15:09:06Z</time>
      </trkpt>
      <trkpt lat="45.850431751459837" lon="9.354077121242881">
        <ele>299.11000000000001</ele>
        <time>2014-05-25T15:09:16Z</time>
      </trkpt>
      <trkpt lat="45.850372072309256" lon="9.354119785130024">
        <ele>298.14999999999998</ele>
        <time>2014-05-25T15:09:23Z</time>
      </trkpt>
      <trkpt lat="45.850395122542977" lon="9.354400578886271">
        <ele>295.74000000000001</ele>
        <time>2014-05-25T15:09:40Z</time>
      </trkpt>
      <trkpt lat="45.850360672920942" lon="9.35459453612566">
        <ele>294.77999999999997</ele>
        <time>2014-05-25T15:09:54Z</time>
      </trkpt>
      <trkpt lat="45.850244918838143" lon="9.354655053466559">
        <ele>293.33999999999997</ele>
        <time>2014-05-25T15:10:05Z</time>
      </trkpt>
      <trkpt lat="45.850090524181724" lon="9.354653880000114">
        <ele>292.38</ele>
        <time>2014-05-25T15:10:19Z</time>
      </trkpt>
      <trkpt lat="45.849979799240828" lon="9.354564361274242">
        <ele>289.49000000000001</ele>
        <time>2014-05-25T15:10:33Z</time>
      </trkpt>
      <trkpt lat="45.849848538637161" lon="9.354442153126001">
        <ele>287.56999999999999</ele>
        <time>2014-05-25T15:10:49Z</time>
      </trkpt>
      <trkpt lat="45.84975122474134" lon="9.354227157309651">
        <ele>286.61000000000001</ele>
        <time>2014-05-25T15:11:05Z</time>
      </trkpt>
      <trkpt lat="45.849727587774396" lon="9.353895736858249">
        <ele>286.13</ele>
        <time>2014-05-25T15:11:22Z</time>
      </trkpt>
      <trkpt lat="45.849720546975732" lon="9.353864975273609">
        <ele>286.13</ele>
        <time>2014-05-25T15:11:24Z</time>
      </trkpt>
      <trkpt lat="45.849714009091258" lon="9.353857012465596">
        <ele>286.13</ele>
        <time>2014-05-25T15:11:25Z</time>
      </trkpt>
      <trkpt lat="45.849675536155701" lon="9.353633215650916">
        <ele>286.13</ele>
        <time>2014-05-25T15:11:42Z</time>
      </trkpt>
      <trkpt lat="45.849676793441176" lon="9.353571441024542">
        <ele>286.61000000000001</ele>
        <time>2014-05-25T15:11:47Z</time>
      </trkpt>
      <trkpt lat="45.849685845896602" lon="9.353378070518374">
        <ele>286.61000000000001</ele>
        <time>2014-05-25T15:12:04Z</time>
      </trkpt>
      <trkpt lat="45.849722307175398" lon="9.353309506550431">
        <ele>286.13</ele>
        <time>2014-05-25T15:12:15Z</time>
      </trkpt>
      <trkpt lat="45.849724570289254" lon="9.353306824341416">
        <ele>283.25</ele>
        <time>2014-05-25T15:12:31Z</time>
      </trkpt>
      <trkpt lat="45.849724151194096" lon="9.353313110768795">
        <ele>286.61000000000001</ele>
        <time>2014-05-25T15:12:36Z</time>
      </trkpt>
      <trkpt lat="45.849722223356366" lon="9.353316547349095">
        <ele>286.61000000000001</ele>
        <time>2014-05-25T15:12:37Z</time>
      </trkpt>
    </trkseg>
  </trk>

</gpx>